[[{"header":{"parameterUnit":"m.s-1","parameterCategory":1,"la1":30.6,"la2":29.2853,"lo1":-89.7004,"lo2":-87.6739,"dy":0.0162,"dx":0.0183,"nx":112,"ny":82,"refTime":"2024-06-14T18:00:00:Z","depth":0,"parameterNumber":2,"parameterNumberName":"U-component_of_WINDS"},"data":[0.0,0.0,0.0,0.0,0.0,0.0,0.0,0.0,0.0,0.0,0.0,0.0,0.0,0.0,0.0,0.0,0.0,0.0,0.0,0.0,0.0,0.0,0.0,0.0,0.0,0.0,0.0,0.0,0.0,0.0,0.0,0.0,0.0,0.0,0.0,0.0,0.0,0.0,0.0,0.0,0.0,0.0,0.0,0.0,0.0,0.0,0.0,0.0,0.0,0.0,0.0,0.0,0.0,0.0,0.0,0.0,0.0,0.0,0.0,0.0,0.0,0.0,0.0,0.0,0.0,0.0,0.0,0.0,0.0,0.0,0.0,0.0,0.0,0.0,0.0,0.0,0.0,0.0,0.0,0.0,0.0,0.0,0.0,0.0,0.0,0.0,0.0,0.0,0.0,0.0,-0.2045,-0.287,-0.3356,-0.3606,-0.3595,-0.3426,-0.2879,-0.1867,0.0,0.0,0.0,0.0,0.0,0.0,0.0,0.0,0.0,0.0,0.0,0.0,0.0,0.0,0.0,0.0,0.0,0.0,0.0,0.0,0.0,0.0,0.0,0.0,0.0,0.0,0.0,0.0,0.0,0.0,0.0,0.0,0.0,0.0,0.0,0.0,0.0,0.0,0.0,0.0,0.0,0.0,0.0,0.0,0.0,0.0,0.0,0.0,0.0,0.0,0.0,0.0,0.0,0.0,0.0,0.0,0.0,0.0,0.0,0.0,0.0,0.0,0.0,0.0,0.0,0.0,0.0,0.0,0.0,0.0,0.0,0.0,0.0,0.0,0.0,0.0,0.0,0.0,0.0,0.0,0.0,0.0,0.0,0.0,0.0,0.0,0.0,0.0,0.0,0.0,0.0,0.0,0.0,0.0,0.0,0.0,0.0,0.0,0.0,0.0,0.0,0.0,0.0,0.0,-0.259,-0.3184,-0.3458,-0.3597,-0.3599,-0.3461,-0.2927,-0.1864,0.0,0.0,0.0,0.0,0.0,0.0,0.0,0.0,0.0,0.0,0.0,0.0,0.0,0.0,0.0,0.0,0.0,0.0,0.0,0.0,0.0,0.0,0.0,0.0,0.0,0.0,0.0,0.0,0.0,0.0,0.0,0.0,0.0,0.0,0.0,0.0,0.0,0.0,0.0,0.0,0.0,0.0,0.0,0.0,0.0,0.0,0.0,0.0,0.0,0.0,0.0,0.0,0.0,0.0,0.0,0.0,0.0,0.0,0.0,0.0,0.0,0.0,0.0,0.0,0.0,0.0,0.0,0.0,0.0,0.0,0.0,0.0,0.0,0.0,0.0,0.0,0.0,0.0,0.0,0.0,0.0,0.0,0.0,0.0,0.0,0.0,0.0,0.0,0.0,0.0,0.0,0.0,0.0,0.0,0.0,0.0,0.0,0.0,0.0,0.0,0.0,0.0,0.0,-0.3836,-0.4533,-0.5182,-0.5399,-0.5488,-0.5506,-0.5304,-0.4673,-0.3442,-0.3015,0.0,0.0,0.0,0.0,0.0,0.0,0.0,0.0,0.0,0.0,0.0,0.0,0.0,0.0,0.0,0.0,0.0,0.0,0.0,0.0,0.0,0.0,0.0,0.0,0.0,0.0,0.0,0.0,0.0,0.0,0.0,0.0,0.0,0.0,0.0,0.0,0.0,0.0,0.0,0.0,0.0,0.0,0.0,0.0,0.0,0.0,0.0,0.0,0.0,0.0,0.0,0.0,0.0,0.0,0.0,0.0,0.0,0.0,0.0,0.0,0.0,0.0,0.0,0.0,0.0,0.0,0.0,0.0,0.0,0.0,0.0,0.0,0.0,0.0,0.0,0.0,0.0,0.0,0.0,0.0,0.0,0.0,0.0,0.0,0.0,0.0,0.0,0.0,0.0,0.0,0.0,0.0,0.0,0.0,0.0,0.0,0.0,0.0,0.0,0.0,0.0,0.0,-0.5318,-0.6173,-0.6837,-0.7011,-0.7098,-0.7098,-0.6803,-0.6067,-0.4773,-0.4079,0.0,0.0,0.0,0.0,0.0,0.0,0.0,0.0,0.0,0.0,0.0,0.0,0.0,0.0,0.0,0.0,0.0,0.0,0.0,0.0,0.0,0.0,0.0,0.0,0.0,0.0,0.0,0.0,0.0,0.0,0.0,0.0,0.0,0.0,0.0,0.0,0.0,0.0,0.0,0.0,0.0,0.0,0.0,0.0,0.0,0.0,0.0,0.0,0.0,0.0,0.0,0.0,0.0,0.0,0.0,0.0,0.0,0.0,0.0,0.0,0.0,0.0,0.0,0.0,0.0,0.0,0.0,0.0,0.0,0.0,0.0,0.0,0.0,0.0,0.0,0.0,0.0,0.0,0.0,0.0,0.0,0.0,0.0,0.0,0.0,0.0,0.0,0.0,0.0,0.0,0.0,0.0,0.0,0.0,0.0,0.0,0.0,0.0,0.0,0.0,0.0,0.0,-0.5874,-0.643,-0.6857,-0.7011,-0.7098,-0.7098,-0.662,-0.586,-0.4762,-0.3905,0.0,0.0,0.0,0.0,0.0,0.0,0.0,0.0,0.0,0.0,0.0,0.0,0.0,0.0,0.0,0.0,0.0,0.0,0.0,0.0,0.0,0.0,0.0,0.0,0.0,0.0,0.0,0.0,0.0,0.0,0.0,0.0,0.0,0.0,0.0,0.0,0.0,0.0,0.0,0.0,0.0,0.0,0.0,0.0,0.0,0.0,0.0,0.0,0.0,0.0,0.0,0.0,0.0,0.0,0.0,0.0,0.0,0.0,0.0,0.0,0.0,0.0,0.0,0.0,0.0,0.0,0.0,0.0,0.0,0.0,0.0,0.0,0.0,0.0,0.0,0.0,0.0,0.0,0.0,0.0,0.0,0.0,0.0,0.0,0.0,0.0,0.0,0.0,0.0,0.0,0.0,0.0,0.0,0.0,0.0,0.0,0.0,0.0,0.0,0.0,0.0,0.0,-0.5986,-0.6484,0.0,-0.7065,-0.7098,-0.7098,-0.6681,-0.6124,-0.5423,0.0,0.0,0.0,0.0,0.0,0.0,0.0,0.0,0.0,0.0,0.0,0.0,0.0,0.0,0.0,0.0,0.0,0.0,0.0,0.0,0.0,0.0,0.0,0.0,0.0,0.0,0.0,0.0,0.0,0.0,0.0,0.0,0.0,0.0,0.0,0.0,0.0,0.0,0.0,0.0,0.0,0.0,0.0,0.0,0.0,0.0,0.0,0.0,0.0,0.0,0.0,0.0,0.0,0.0,0.0,0.0,0.0,0.0,0.0,0.0,0.0,0.0,0.0,0.0,0.0,0.0,0.0,0.0,0.0,0.0,0.0,0.0,0.0,0.0,0.0,0.0,0.0,0.0,0.0,0.0,0.0,0.0,0.0,0.0,0.0,0.0,0.0,0.0,0.0,0.0,0.0,0.0,0.0,0.0,0.0,0.0,0.0,0.0,0.0,0.0,0.0,0.0,-0.5521,-0.6069,-0.6559,0.0,-0.7098,-0.7098,-0.7098,-0.6641,-0.6159,-0.5759,0.0,0.0,0.0,0.0,0.0,0.0,0.0,0.0,0.0,0.0,0.0,0.0,0.0,0.0,0.0,0.0,0.0,0.0,0.0,0.0,0.0,0.0,0.0,0.0,0.0,0.0,0.0,0.0,0.0,0.0,0.0,0.0,0.0,0.0,0.0,0.0,0.0,0.0,0.0,0.0,0.0,0.0,0.0,0.0,0.0,0.0,0.0,0.0,0.0,0.0,0.0,0.0,0.0,0.0,0.0,0.0,0.0,0.0,0.0,0.0,0.0,0.0,0.0,0.0,0.0,0.0,0.0,0.0,0.0,0.0,0.0,0.0,0.0,0.0,0.0,0.0,0.0,0.0,0.0,0.0,0.0,0.0,0.0,0.0,0.0,0.0,0.0,0.0,0.0,0.0,0.0,0.0,0.0,0.0,0.0,0.0,0.0,0.0,0.0,0.0,0.0,0.0,-0.5664,-0.6219,-0.6647,-0.7051,-0.7098,-0.7098,-0.7098,-0.6424,-0.589,0.0,0.0,0.0,0.0,0.0,0.0,0.0,0.0,0.0,0.0,0.0,0.0,0.0,0.0,0.0,0.0,0.0,0.0,0.0,0.0,0.0,0.0,0.0,0.0,0.0,0.0,0.0,0.0,0.0,0.0,0.0,0.0,0.0,0.0,0.0,0.0,0.0,0.0,0.0,0.0,0.0,0.0,0.0,0.0,0.0,0.0,0.0,0.0,0.0,0.0,0.0,0.0,0.0,0.0,0.0,0.0,0.0,0.0,0.0,0.0,0.0,0.0,0.0,0.0,0.0,0.0,0.0,0.0,0.0,0.0,0.0,0.0,0.0,0.0,0.0,0.0,0.0,0.0,0.0,0.0,0.0,0.0,0.0,0.0,0.0,0.0,0.0,0.0,0.0,0.0,0.0,0.0,0.0,0.0,0.0,0.0,0.0,0.0,0.0,0.0,0.0,0.0,0.0,-0.5691,-0.6383,-0.6926,-0.7265,-0.7305,-0.7305,-0.7305,-0.6729,-0.6173,-0.5766,0.0,0.0,0.0,0.0,0.0,0.0,0.0,0.0,0.0,0.0,0.0,0.0,0.0,0.0,0.0,0.0,0.0,0.0,0.0,0.0,0.0,0.0,0.0,0.0,0.0,0.0,0.0,0.0,0.0,0.0,0.0,0.0,0.0,0.0,0.0,0.0,0.0,0.0,0.0,0.0,0.0,0.0,0.0,0.0,0.0,0.0,0.0,0.0,0.0,0.0,0.0,0.0,0.0,0.0,0.0,0.0,0.0,0.0,0.0,0.0,0.0,0.0,0.0,0.0,0.0,0.0,0.0,0.0,0.0,0.0,0.0,0.0,0.0,0.0,0.0,0.0,0.0,0.0,0.0,0.0,0.0,0.0,0.0,0.0,0.0,0.0,0.0,0.0,0.0,0.0,0.0,0.0,0.0,0.0,0.0,0.0,0.0,0.0,0.0,0.0,0.0,0.0,-0.5782,-0.6525,-0.7107,-0.745,-0.7485,-0.7464,-0.7396,-0.6893,-0.6341,-0.5752,0.0,0.0,0.0,0.0,0.0,0.0,0.0,0.0,0.0,0.0,0.0,0.0,0.0,0.0,0.0,0.0,0.0,0.0,0.0,0.0,0.0,0.0,0.0,0.0,0.0,0.0,0.0,0.0,0.0,0.0,0.0,0.0,0.0,0.0,0.0,0.0,0.0,0.0,0.0,0.0,0.0,0.0,0.0,0.0,0.0,0.0,0.0,0.0,0.0,0.0,0.0,0.0,0.0,0.0,0.0,0.0,0.0,0.0,0.0,0.0,0.0,0.0,0.0,0.0,0.0,0.0,0.0,0.0,0.0,0.0,0.0,0.0,0.0,0.0,0.0,0.0,0.0,0.0,0.0,0.0,0.0,0.0,0.0,0.0,0.0,0.0,0.0,0.0,0.0,0.0,0.0,0.0,0.0,0.0,0.0,0.0,0.0,0.0,0.0,0.0,0.0,0.0,-0.6192,-0.6978,-0.7571,-0.7771,-0.7806,-0.7704,-0.745,-0.7,-0.6437,-0.5736,0.0,0.0,0.0,0.0,0.0,0.0,0.0,0.0,0.0,0.0,0.0,0.0,0.0,0.0,0.0,0.0,0.0,0.0,0.0,0.0,0.0,0.0,0.0,0.0,0.0,0.0,0.0,0.0,0.0,0.0,0.0,0.0,0.0,0.0,0.0,0.0,0.0,0.0,0.0,0.0,0.0,0.0,0.0,0.0,0.0,0.0,0.0,0.0,0.0,0.0,0.0,0.0,0.0,0.0,0.0,0.0,0.0,0.0,0.0,0.0,-0.7093,-0.5698,0.0,0.0,0.0,0.0,0.0,0.0,0.0,0.0,0.0,0.0,0.0,0.0,0.0,0.0,0.0,0.0,0.0,0.0,0.0,0.0,0.0,0.0,0.0,0.0,0.0,0.0,0.0,0.0,0.0,0.0,0.0,0.0,0.0,0.0,0.0,0.0,0.0,0.0,0.0,0.0,-0.8259,-0.9504,-1.0003,-0.9408,-0.9331,-0.8886,-0.7815,-0.7283,-0.6809,-0.6335,-0.5467,0.0,0.0,0.0,0.0,0.0,0.0,0.0,0.0,0.0,0.0,0.0,0.0,0.0,0.0,0.0,0.0,0.0,0.0,0.0,0.0,0.0,0.0,0.0,0.0,0.0,0.0,0.0,0.0,0.0,0.0,0.0,0.0,0.0,0.0,0.0,0.0,0.0,0.0,0.0,0.0,0.0,0.0,0.0,0.0,0.0,0.0,0.0,0.0,0.0,0.0,0.0,0.0,0.0,0.0,0.0,0.0,0.0,0.0,0.0,-1.0004,-0.8745,0.0,0.0,0.0,0.0,0.0,0.0,0.0,0.0,0.0,0.0,0.0,0.0,0.0,0.0,0.0,0.0,0.0,0.0,0.0,0.0,0.0,0.0,0.0,0.0,0.0,0.0,0.0,0.0,0.0,0.0,0.0,0.0,0.0,0.0,0.0,0.0,0.0,0.0,0.0,0.0,-0.9255,-1.0571,-1.1232,-1.0851,-1.0807,-1.0506,-0.9747,-0.9382,-0.8978,-0.84,-0.7635,0.0,0.0,0.0,0.0,0.0,0.0,0.0,0.0,0.0,0.0,0.0,0.0,0.0,0.0,0.0,0.0,0.0,0.0,0.0,0.0,0.0,0.0,0.0,0.0,0.0,0.0,0.0,0.0,0.0,0.0,0.0,0.0,0.0,0.0,0.0,0.0,0.0,0.0,0.0,0.0,0.0,0.0,0.0,0.0,0.0,0.0,0.0,0.0,0.0,0.0,0.0,0.0,0.0,-1.493,-1.4976,-1.4995,-1.4995,-1.5054,-1.5101,-1.3712,-1.2767,-1.216,-1.1467,0.0,0.0,0.0,0.0,0.0,0.0,0.0,0.0,0.0,0.0,0.0,0.0,0.0,0.0,0.0,0.0,0.0,0.0,0.0,0.0,0.0,0.0,-1.2642,-1.1936,-1.2533,-1.268,-1.0635,0.0,0.0,0.0,0.0,0.0,0.0,0.0,0.0,0.0,0.0,0.0,-1.0283,-1.1542,-1.2315,-1.2259,-1.2266,-1.2111,-1.1759,-1.1605,-1.1268,-1.0627,-1.0007,-0.9253,0.0,0.0,0.0,0.0,0.0,0.0,0.0,0.0,0.0,0.0,0.0,0.0,0.0,0.0,0.0,0.0,0.0,0.0,0.0,0.0,0.0,0.0,0.0,0.0,0.0,0.0,0.0,0.0,0.0,0.0,0.0,0.0,-0.9598,-1.0138,0.0,0.0,0.0,0.0,0.0,0.0,0.0,0.0,0.0,0.0,0.0,0.0,0.0,-1.6572,-1.7685,-1.8262,-1.8709,-1.9007,-1.9754,-1.9872,-1.9367,-1.9367,-1.9393,-1.9363,-1.8932,0.0,-1.3436,-1.2914,0.0,0.0,0.0,0.0,0.0,0.0,0.0,0.0,0.0,0.0,0.0,0.0,0.0,0.0,0.0,0.0,0.0,0.0,0.0,0.0,0.0,0.0,-1.5716,-1.5597,-1.5695,-1.565,-1.5032,-1.2379,-1.0071,-0.998,-0.9772,0.0,0.0,0.0,0.0,0.0,0.0,0.0,-1.2891,-1.4142,-1.4576,-1.3729,-1.3632,-1.3164,-1.1972,-1.1745,-1.1574,-1.137,-1.069,-1.0176,-0.9908,-0.8944,0.0,0.0,0.0,0.0,0.0,0.0,0.0,0.0,0.0,0.0,0.0,0.0,0.0,0.0,0.0,0.0,0.0,0.0,0.0,0.0,0.0,0.0,0.0,0.0,0.0,0.0,0.0,0.0,0.0,-1.0205,-1.1503,-1.2835,-1.2554,-1.2218,0.0,0.0,0.0,0.0,0.0,0.0,0.0,0.0,0.0,-1.7663,-1.8495,-1.9345,-2.0231,-2.0788,-2.1229,-2.1555,-2.1943,-2.1871,-2.1424,-2.1424,-2.1344,-2.1216,-2.1082,-1.9928,-1.8054,-1.6821,-1.5764,-1.4897,0.0,0.0,0.0,0.0,-1.4214,-1.4163,-1.4966,-1.4928,-1.4501,-1.4274,0.0,0.0,0.0,0.0,0.0,0.0,0.0,-1.4754,-1.5391,-1.619,-1.6872,-1.7194,-1.7141,-1.6993,-1.6847,-1.5406,-1.3749,0.0,-1.2235,-1.1784,-1.029,0.0,0.0,0.0,0.0,-1.3079,-1.3992,-1.4994,-1.5473,-1.5008,-1.4973,-1.4735,-1.4124,-1.404,-1.3908,-1.3713,-1.3243,-1.2719,-1.2155,-1.1372,-1.0256,0.0,0.0,0.0,0.0,0.0,0.0,0.0,0.0,0.0,0.0,0.0,0.0,0.0,0.0,0.0,0.0,0.0,0.0,0.0,0.0,0.0,0.0,0.0,0.0,0.0,0.0,0.0,0.0,-1.25,-1.3695,-1.5243,-1.5143,-1.4864,0.0,0.0,0.0,0.0,0.0,0.0,-1.8624,-1.889,-1.9463,-2.0441,-2.0962,-2.1515,-2.2037,-2.2432,-2.2806,-2.3134,-2.3134,-2.3014,-2.2766,-2.2686,-2.2525,-2.2325,-2.2245,-2.2077,-2.1676,-2.004,-1.8891,-1.8143,-1.7769,-1.7314,-1.6939,-1.7595,-1.7582,-1.7435,-1.8516,-1.849,-1.7849,-1.7367,-1.6673,-1.5858,-1.4683,0.0,0.0,0.0,0.0,-1.6032,-1.6834,-1.7208,-1.7541,-1.8009,-1.7983,-1.7836,-1.7836,-1.7608,-1.6792,0.0,-1.4407,-1.3975,-1.2198,0.0,0.0,0.0,0.0,-1.4335,-1.4674,-1.5354,-1.5808,-1.5808,-1.5808,-1.5808,-1.5808,-1.5808,-1.5715,-1.5524,-1.5253,-1.4772,-1.3994,-1.3434,-1.2257,-1.0396,0.0,0.0,0.0,0.0,0.0,0.0,0.0,0.0,0.0,0.0,0.0,0.0,0.0,0.0,0.0,0.0,0.0,0.0,0.0,0.0,0.0,0.0,0.0,0.0,0.0,0.0,0.0,0.0,0.0,-1.6595,-1.7583,0.0,0.0,0.0,0.0,-1.7862,-1.8945,-1.988,-2.0539,-2.1336,-2.1937,-2.2271,-2.2626,-2.2947,-2.3198,-2.3225,-2.3434,-2.3763,-2.3763,-2.375,-2.3723,-2.3407,-2.3238,-2.3212,-2.2987,-2.2679,-2.2285,-2.1082,-2.0258,-1.9626,-1.9036,-1.8651,-1.8384,-1.8424,-1.8597,-1.8796,-1.8863,-1.8863,-1.8916,-1.9452,-1.8823,-1.7822,-1.7475,-1.6819,0.0,0.0,-1.6846,-1.7246,-1.7796,-1.7956,-1.8049,-1.8397,-1.8464,-1.8437,-1.8437,-1.8183,-1.7609,0.0,-1.5925,-1.5421,-1.4487,0.0,-1.4009,-1.3961,-1.4269,-1.4687,-1.5284,-1.5631,-1.5808,-1.5808,-1.5808,-1.5808,-1.5808,-1.5808,-1.5795,-1.5781,-1.5538,-1.5231,-1.4932,-1.4357,-1.3454,-1.2201,-1.1339,0.0,0.0,0.0,0.0,0.0,0.0,0.0,0.0,0.0,0.0,0.0,0.0,0.0,0.0,0.0,0.0,0.0,0.0,0.0,0.0,0.0,0.0,0.0,0.0,0.0,0.0,0.0,0.0,-1.8677,-1.9573,0.0,-1.8905,-1.9517,-2.0174,-2.0548,-2.1309,-2.2144,-2.2899,-2.3247,-2.3541,-2.3799,-2.4142,-2.4379,-2.4449,-2.4636,-2.4783,-2.489,-2.489,-2.4796,-2.4646,-2.4302,-2.4026,-2.3875,-2.3616,-2.3429,-2.3247,-2.2632,-2.1924,-2.1189,-2.0975,-2.0722,-2.0498,-2.0498,-2.0401,-2.0334,-2.0334,-2.0201,-2.0027,-1.9853,-1.9386,-1.8878,-1.8799,-1.8545,-1.8358,-1.8611,-1.8771,-1.8945,-1.9316,-1.9423,-1.9397,-1.9345,-1.9332,-1.9225,-1.8851,-1.8663,-1.8409,-1.7822,-1.7167,-1.6364,-1.5271,-1.5471,-1.5578,-1.5017,-1.5498,-1.5981,-1.6206,-1.6326,-1.6302,-1.6139,-1.6112,-1.6032,-1.5821,-1.5808,-1.5728,-1.5541,-1.5458,-1.5177,-1.4696,-1.4482,-1.3801,-1.2631,-1.2091,-1.1022,0.0,0.0,0.0,0.0,0.0,0.0,0.0,0.0,0.0,0.0,0.0,0.0,0.0,0.0,0.0,0.0,0.0,0.0,0.0,0.0,0.0,0.0,0.0,0.0,0.0,-1.8719,-1.9977,-2.0378,-2.1256,-2.163,-2.0997,-2.1651,-2.2311,-2.2699,-2.3308,-2.395,-2.4609,-2.4743,-2.493,-2.5211,-2.5424,-2.5556,-2.5556,-2.5611,-2.5665,-2.5665,-2.5558,-2.5411,-2.5224,-2.4986,-2.4823,-2.4636,-2.4436,-2.4249,-2.4048,-2.3812,-2.33,-2.2586,-2.2245,-2.1984,-2.1729,-2.1729,-2.1577,-2.139,-2.1296,-2.1069,-2.0762,-2.0374,-2.004,-1.9843,-1.9843,-1.9776,-1.9693,-1.9893,-1.9947,-1.9987,-2.0157,-2.0197,-2.0157,-1.9987,-1.9947,-1.984,-1.9423,-1.9263,-1.9132,-1.8879,-1.817,-1.7314,-1.6324,-1.662,-1.674,-1.5952,-1.6339,-1.67,-1.67,-1.67,-1.6633,-1.6433,-1.6351,-1.6217,-1.5992,-1.5861,-1.5728,-1.5551,-1.5444,-1.5177,-1.4696,-1.4482,-1.3908,-1.2939,-1.243,-1.1601,-1.0437,0.0,0.0,0.0,0.0,0.0,0.0,0.0,0.0,0.0,0.0,0.0,0.0,0.0,0.0,0.0,0.0,0.0,0.0,0.0,0.0,0.0,0.0,0.0,-1.901,-2.0013,-2.1007,-2.1609,-2.2672,-2.3118,-2.2531,-2.3567,-2.4262,-2.4275,-2.481,-2.5264,-2.5558,-2.5838,-2.6172,-2.6413,-2.6413,-2.6413,-2.6413,-2.6172,-2.6038,-2.6038,-2.5705,-2.5571,-2.5571,-2.5545,-2.5545,-2.5545,-2.5518,-2.5159,-2.4626,-2.4626,-2.4329,-2.375,-2.2806,-2.2285,-2.2044,-2.205,-2.2037,-2.1951,-2.1703,-2.1408,-2.1122,-2.1122,-2.0922,-2.0726,-2.0726,-2.0494,-2.0224,-2.0224,-2.0224,-2.0224,-2.0224,-2.0224,-2.0224,-2.0224,-2.0224,-2.021,-2.021,-2.0013,-1.9733,-1.9468,-1.8946,-1.8358,-1.7742,-1.7635,-1.7422,-1.6847,-1.6754,0.0,-1.6754,-1.674,-1.6727,-1.6727,-1.6498,-1.631,-1.6297,-1.6005,-1.5808,-1.5781,-1.5538,-1.528,-1.5008,-1.4424,-1.3828,-1.3233,-1.239,-1.194,-1.1926,0.0,0.0,0.0,0.0,0.0,0.0,0.0,0.0,0.0,0.0,0.0,0.0,0.0,0.0,0.0,0.0,0.0,0.0,0.0,0.0,0.0,-1.9776,-2.0953,-2.0873,-2.1844,-2.2899,-2.3688,-2.4275,-2.4609,-2.4663,-2.5157,-2.5596,-2.5772,-2.6132,-2.6466,-2.6814,-2.6907,-2.6988,-2.7068,-2.7068,-2.7068,-2.7068,-2.6988,-2.6948,-2.6948,-2.6867,-2.6827,-2.6814,-2.6346,-2.6146,-2.6132,-2.5705,-2.5424,-2.5239,-2.5239,-2.493,-2.4329,-2.3661,-2.3388,-2.3268,-2.2813,-2.2385,-2.1977,-2.193,-2.1703,-2.1462,-2.1462,-2.1261,-2.0989,-2.0989,-2.0935,-2.0837,-2.0837,-2.0837,-2.0837,-2.0837,-2.0837,-2.0815,-2.0601,-2.0548,-2.0494,-2.025,-2.0144,-1.9997,-1.9733,-1.9546,-1.9185,-1.8384,-1.8237,-1.821,-1.8023,-1.7796,0.0,-1.7649,-1.7475,-1.7287,-1.7073,-1.7005,-1.679,-1.6337,-1.623,-1.5896,-1.5267,-1.5146,-1.4972,-1.4656,-1.4482,-1.4229,-1.3854,-1.3186,-1.2751,0.0,0.0,0.0,0.0,0.0,0.0,0.0,0.0,0.0,0.0,0.0,0.0,0.0,0.0,0.0,0.0,0.0,0.0,0.0,0.0,0.0,0.0,-2.1764,-2.3,-2.3388,-2.3674,-2.4212,-2.5213,-2.5518,-2.5798,-2.6213,-2.6439,-2.6613,-2.6787,-2.6907,-2.7134,-2.7428,-2.7483,-2.755,-2.767,-2.767,-2.767,-2.767,-2.755,-2.7483,-2.7483,-2.7362,-2.7309,-2.7296,-2.6948,-2.68,-2.6774,-2.6266,-2.5999,-2.5865,-2.5745,-2.5424,-2.4906,0.0,0.0,0.0,0.0,-2.2752,-2.2372,-2.2205,-2.1977,-2.177,-2.177,-2.1569,-2.1296,-2.1296,-2.1203,-2.1109,-2.1109,-2.1109,-2.1109,-2.1109,-2.1109,-2.1069,-2.0895,-2.0855,-2.0802,-2.061,-2.0508,-2.0361,-2.0201,-2.0067,0.0,-1.9145,-1.8838,-1.8637,-1.8504,-1.8343,-1.8209,-1.8209,-1.7942,-1.7716,-1.7542,-1.7327,-1.7058,-1.6723,-1.6444,0.0,0.0,0.0,-1.4986,-1.4514,-1.4501,0.0,0.0,0.0,0.0,0.0,0.0,0.0,0.0,-1.3373,-1.328,0.0,0.0,0.0,0.0,0.0,0.0,0.0,0.0,0.0,0.0,0.0,0.0,0.0,0.0,0.0,0.0,-2.3825,-2.509,-2.6024,-2.5424,-2.5317,-2.636,-2.6493,-2.6694,-2.7255,-2.7336,-2.7362,-2.7362,-2.758,-2.788,-2.8096,-2.8109,0.0,0.0,0.0,-2.8431,-2.8179,-2.812,-2.7985,-2.7749,-2.7523,-2.7403,-2.7403,-2.7376,-2.7362,-2.7336,-2.7001,-2.672,-2.6466,-2.6212,-2.5904,-2.5504,-2.4879,-2.4356,-2.387,-2.3541,-2.3233,-2.296,-2.2619,0.0,0.0,-2.2044,-2.1877,-2.1636,-2.1636,-2.1422,-2.1162,-2.1162,-2.1136,-2.1109,-2.1109,-2.1109,-2.1109,-2.1109,-2.1109,-2.1109,-2.1109,-2.0909,-2.0753,-2.0712,-2.0468,-2.0157,-1.9893,-1.9386,-1.889,-1.8637,-1.8557,-1.8544,-1.8544,-1.8249,-1.8076,-1.8076,-1.7582,0.0,-1.7246,-1.6737,-1.6364,-1.6297,-1.5802,-1.5257,-1.4736,-1.4727,-1.4727,-1.4701,-1.4727,-1.5003,-1.5498,-1.5768,-1.6035,-1.6297,-1.4456,-1.4162,0.0,0.0,0.0,0.0,0.0,0.0,0.0,0.0,0.0,0.0,0.0,0.0,0.0,0.0,0.0,-2.3919,-2.505,-2.6051,-2.6921,-2.6907,-2.6841,-2.7108,-2.7135,-2.7188,-2.7296,-2.7523,-2.7615,-2.7615,-2.9489,-3.0624,-3.0698,-3.0698,-3.0727,-3.0786,-3.0786,-2.9941,-2.8221,-2.9828,-2.9799,-2.8098,-2.8045,0.0,-2.8005,-2.7764,-2.7615,-2.7602,-2.7349,-2.7188,-2.7108,-2.6774,-2.6346,-2.585,-2.5224,-2.4783,-2.4399,-2.4142,-2.3848,-2.3589,-2.326,-2.2953,-2.2693,-2.2418,-2.2138,-2.193,-2.193,-2.1729,0.0,-2.1502,-2.1296,-2.1109,-2.1109,-2.1109,-2.1109,-2.1109,-2.1109,-2.1109,-2.1109,-2.1069,-2.0962,-2.0753,-2.0659,-2.0494,-2.017,-1.9867,-1.9533,-1.9267,-1.8998,-1.881,-1.881,-1.8584,-1.841,-1.841,-1.8063,-1.7769,-1.7541,-1.7233,-1.6831,-1.6324,-1.619,-1.6083,-1.5963,-1.6152,-1.6166,-1.5963,-1.6166,-1.6219,-1.6123,-1.6393,-1.6567,-1.6607,-1.6219,-1.6152,0.0,0.0,0.0,0.0,0.0,0.0,0.0,0.0,0.0,0.0,0.0,-2.0997,-2.2185,0.0,-2.4356,-2.5493,-2.6226,-2.6854,-2.7443,-2.7657,-2.7697,-2.7495,-2.7482,-2.7975,-2.921,-2.8482,-2.8855,-3.103,-3.1343,-3.1887,-3.2981,-3.3063,-3.3063,-3.3063,-3.197,-3.1407,-3.1448,-3.1407,-3.1407,-3.1448,-3.1448,-3.0868,-2.9815,-2.9645,-2.8966,-2.7951,-2.7615,-2.7482,-2.7455,-2.7001,-2.6653,-2.6333,-2.5784,-2.5251,-2.4823,-2.4492,-2.4235,-2.3941,-2.3647,-2.3447,-2.3308,-2.2966,-2.2672,-2.2425,-2.2245,-2.2004,-2.1796,-2.1796,-2.1596,-2.1368,-2.1368,-2.1216,-2.1109,-2.1109,-2.1109,-2.1109,-2.1109,-2.1109,-2.1069,-2.0922,-2.0895,-2.0802,-2.0508,-2.0334,-2.0094,-1.9682,-1.9452,-1.9305,-1.9158,-1.8891,-1.8704,-1.8704,-1.8423,-1.821,-1.805,-1.7648,-1.714,-1.6551,-1.6486,-1.6486,-1.6486,-1.6633,-1.6633,-1.6486,-1.6633,-1.6633,-1.6486,-1.6927,-1.7141,-1.7154,-1.7462,-1.7435,0.0,0.0,0.0,0.0,0.0,0.0,0.0,-1.9158,-1.984,-2.1603,-2.2579,-2.3487,-2.4706,-2.5373,-2.6039,-2.6854,-2.7188,-2.7496,-2.7749,-2.8031,-2.8253,-2.8413,-2.8067,-2.8883,-3.1775,-3.0107,-3.0468,-3.4408,-3.3495,-3.3567,-3.5335,-3.5524,-3.5558,-3.5558,-3.3843,-3.3318,-3.418,-3.2844,-3.2608,-3.3431,-3.3431,-3.2505,-3.0786,-3.0786,-2.9857,-2.8165,-2.7924,-2.7749,-2.7655,-2.7121,-2.6867,-2.6734,-2.6279,-2.5757,-2.5248,-2.485,-2.4569,-2.4329,-2.3981,-2.3884,-2.3808,-2.3514,-2.3207,-2.2947,-2.2672,-2.2352,-2.2071,-2.2071,-2.189,-2.1662,-2.1662,-2.1448,-2.1189,-2.1189,-2.1149,-2.1109,-2.1109,-2.1109,-2.1109,-2.1109,-2.1109,-2.1029,-2.0802,-2.0793,-2.0561,-1.9973,-1.988,-1.9773,-1.9522,-1.9239,-1.905,-1.8983,-1.8744,-1.8557,-1.849,-1.8036,-1.7582,-1.7088,-1.7048,-1.7048,-1.7048,-1.7048,-1.7048,-1.7048,-1.7048,-1.7048,-1.7048,-1.7528,-1.7756,-1.7796,-1.8317,-1.8277,-1.5922,-1.6458,-1.734,-1.8705,-1.8878,-1.9626,0.0,-2.3086,-2.2907,-2.4649,-2.5304,-2.573,-2.6119,-2.6453,-2.6881,-2.7495,-2.7629,-2.7749,-2.8098,-2.8165,-2.8909,-3.0783,-2.9314,-2.9787,-3.392,-3.234,-3.2052,-3.453,-3.6575,-3.7796,-3.8038,-3.8459,-3.8697,-3.8697,-3.8434,-3.6394,-3.2328,-3.4017,-3.2882,-2.8922,-2.8922,-2.8796,-2.8558,-2.8558,-2.8431,-2.8179,-2.8152,-2.7991,-2.7669,-2.7389,-2.7054,-2.6787,-2.6466,-2.6185,-2.5837,-2.5275,-2.5048,-2.4903,-2.4342,-2.4155,-2.4102,-2.3821,-2.3514,-2.3238,-2.3198,-2.2785,-2.2378,-2.2378,-2.2164,-2.197,-2.197,-2.1756,-2.1542,-2.1542,-2.1328,-2.1109,-2.1109,-2.1109,-2.1109,-2.1109,-2.1109,-2.1096,-2.1069,-2.1069,-2.0855,-2.0237,-2.0157,-2.005,-1.9786,-1.972,-1.9599,-1.9374,-1.9052,-1.8771,-1.8517,-1.8424,-1.8357,-1.829,-1.829,-1.829,-1.829,-1.829,-1.829,-1.829,-1.829,-1.829,-1.829,-1.8357,-1.8384,-1.8397,-1.8703,-1.8704,-1.8317,-1.892,-1.9508,-2.0632,-2.1443,-2.2425,-2.4199,-2.4516,-2.481,-2.6239,-2.6667,-2.6894,-2.7362,-2.755,-2.771,0.0,-2.8005,-2.8045,-2.8165,-2.9286,-3.0754,-3.2673,-3.234,-3.3186,-3.6281,-3.4611,-3.4773,-3.8231,-3.8497,-3.9054,-4.0351,-4.0828,-4.1036,-4.1036,-3.9862,-3.8815,-3.8064,-3.7468,-3.6789,-3.6106,-3.5901,-3.5097,-3.3839,-3.3839,-3.3145,-3.197,-3.197,-3.1894,-3.1741,-3.1447,-3.0389,-2.8933,-2.8658,-2.7625,-2.6198,-2.5784,-2.5409,-2.5037,-2.4796,-2.4596,-2.4372,-2.4115,-2.3941,-2.3768,-2.3399,-2.3118,-2.2878,-2.2726,-2.2458,-2.2231,-2.2231,-2.2017,-2.1796,-2.1622,-2.1489,-2.1355,-2.1149,-2.1109,-2.1109,-2.1109,-2.1109,-2.1109,-2.1109,-2.1109,-2.1029,-2.0744,-2.0601,-2.0388,-2.0064,-1.9907,-1.9693,-1.9428,-1.9252,-1.9065,-1.8771,-1.8744,-1.8677,-1.8504,-1.849,-1.849,-1.849,-1.849,-1.849,-1.849,-1.849,-1.849,-1.849,-1.8664,-1.8744,-1.8758,-1.9212,-1.9372,-1.9703,-2.0508,-2.1301,-2.2265,-2.3474,-2.4609,-2.5224,-2.5692,-2.6279,-2.7336,-2.755,-2.7684,-2.8112,-2.8179,-2.8179,-2.8179,-2.8179,-2.8431,-2.9006,-3.0312,-3.2181,-3.4752,-3.5286,-3.632,-3.8587,-3.6842,-3.7139,-4.0919,-4.0179,-4.0261,-4.1893,-4.248,-4.2733,-4.2733,-4.1254,-4.083,-4.1671,-3.9815,-3.9234,-4.0013,-3.9713,-3.8658,-3.7002,-3.7002,-3.6161,-3.4692,-3.4692,-3.4692,-3.4675,-3.4335,-3.3162,-3.1456,-3.1079,-2.9832,-2.82,-2.7901,-2.6714,-2.5184,-2.5141,-2.489,-2.4559,-2.4359,-2.4262,-2.4102,-2.3607,-2.3359,-2.3225,-2.2987,-2.2746,-2.2539,-2.2539,-2.2325,-2.2044,-2.1877,-2.1756,-2.1622,-2.1296,-2.1229,-2.1203,-2.1122,-2.1109,-2.1109,-2.1109,-2.1109,-2.1109,-2.1109,-2.0922,-2.0695,-2.0388,-2.0107,-1.9813,-1.9548,-1.9522,-1.9372,-1.9065,-1.9052,-1.8958,-1.8744,-1.8759,-1.8759,-1.8759,-1.8759,-1.8759,-1.8759,-1.8759,-1.8759,-1.8759,-1.9025,-1.913,-1.9156,-1.9679,-1.992,-1.9481,-2.0672,-2.2265,-2.3455,-2.4419,-2.5462,-2.6907,-2.7242,-2.7429,-2.8031,-2.8165,-2.8165,-2.8179,-2.8179,-2.8179,-2.8179,-2.8179,-2.8922,-3.0993,-3.1,-3.2539,-3.7228,-3.7435,-3.8243,-4.0841,-3.908,-3.8764,-4.1055,-4.1854,-4.2322,-4.2362,-4.3203,-4.3672,-4.3672,-4.3611,-4.2388,-3.9894,-3.9793,-3.8306,-3.5508,-3.5467,-3.5243,-3.4813,-3.4813,-3.4773,-3.4692,-3.4692,-3.4692,-3.4675,-3.4335,-3.4186,-3.4024,-3.3314,-3.294,-3.2852,-3.2468,-2.9397,-2.5464,-2.5184,-2.489,-2.4599,-2.4586,-2.4399,-2.4155,-2.3884,-2.3554,-2.3225,-2.2987,-2.2893,-2.288,-2.288,-2.2632,-2.2405,-2.2392,-2.2178,-2.193,-2.1636,-2.1569,-2.1489,-2.1162,-2.1109,-2.1109,-2.1109,-2.1109,-2.1109,-2.1109,-2.1096,-2.0989,-2.0726,-2.0401,-2.0077,-1.9813,-1.9786,-1.9666,-1.9401,-1.9388,-1.9374,-1.9374,-1.9374,-1.9374,-1.9374,-1.9374,-1.9374,-1.9374,-1.9374,-1.9374,-1.9374,-1.9626,-1.9773,-1.9786,-2.005,-2.0184,-2.1149,-2.2539,-2.3941,-2.473,-2.5732,-2.6747,-2.7402,-2.775,-2.7884,-2.7884,-2.7737,-2.7536,-2.7308,-2.7268,-2.7812,-2.9435,-3.0151,-3.12,-3.3267,-3.521,-3.665,-3.7392,-3.916,-4.0391,-4.0704,-4.0356,0.0,-4.1133,-4.1953,-4.2382,-4.2382,-4.3242,-4.3711,-4.3711,-4.3711,-4.3283,-4.2408,-4.2141,-4.1487,-4.0492,-3.9894,-3.939,-3.9001,-3.9001,-3.9001,-3.9001,-3.9001,-3.9001,-3.9001,-3.8892,-3.7023,-3.4137,-3.3735,-3.1645,-2.8885,-2.8567,-2.7353,-2.599,-2.7055,-2.6308,-2.4903,-2.4666,-2.4532,-2.4436,-2.4142,-2.3848,-2.3554,-2.326,-2.302,-2.2893,-2.2893,-2.2827,-2.2659,-2.2472,-2.2338,-2.2191,-2.193,-2.1729,-2.1555,-2.1462,-2.1243,-2.1109,-2.1109,-2.1109,-2.1109,-2.1109,-2.1109,-2.1002,-2.0739,-2.0588,-2.0414,-2.009,-2.0064,-2.0024,-1.9947,-1.9947,-1.9947,-1.9947,-1.976,-1.9653,-1.9653,-1.9495,-1.9481,-1.9653,-1.9653,-1.9746,-1.9947,-2.001,-2.0064,-2.0064,-2.0388,-2.0535,-2.2686,-2.3945,-2.5106,-2.5945,-2.6787,-2.7536,-2.7789,-2.7965,-2.8078,-2.8317,-2.754,-2.7066,-2.787,-2.7389,-2.7827,-3.0626,-3.1591,-3.2927,-3.5659,-3.7594,-3.8799,-3.8908,-4.0467,-4.1426,-4.1016,-4.123,0.0,-4.123,-4.1953,-4.2382,-4.2382,-4.3242,-4.3711,-4.3711,-4.3711,-4.3711,-4.3711,-4.3437,-4.3144,-4.2832,-4.2129,-4.1582,-4.1211,-4.1211,-4.1211,-4.1211,-4.1211,-4.1211,-4.1211,-4.1211,-3.942,-3.6658,-3.6185,-3.4132,-3.141,-3.0941,-3.0184,-2.9243,-2.8054,-2.6522,-2.52,-2.5616,-2.5723,-2.573,-2.6114,-2.5634,-2.4889,-2.4582,-2.3803,-2.3033,-2.3033,-2.2974,-2.2853,-2.2619,-2.3038,-2.3445,-2.3172,-2.2948,-2.3008,-2.3525,-2.2804,-2.2321,-2.2969,-2.2962,-2.2844,-2.2844,-2.2844,-2.235,-2.1011,-2.0828,-2.0722,-2.0414,-2.0388,-2.0317,-2.021,-2.0197,-2.0197,-2.0197,-2.0024,-1.996,-1.996,-1.9773,-1.976,-1.9947,-1.996,-2.001,-2.0197,-2.0304,-2.0388,-2.0401,-2.0695,-2.0828,-2.3955,-2.493,-2.5892,-2.7163,-2.7701,-2.7984,-2.8365,-2.8176,-2.8222,-2.93,-2.7685,-2.6898,0.0,0.0,-2.8304,-3.1631,-3.261,-3.4317,-3.8136,-3.8421,-3.9083,0.0,-4.1504,-4.1465,-4.1797,-4.1836,0.0,-4.1308,0.0,-4.2401,-4.2421,-4.3242,-4.3711,-4.3711,-4.3711,-4.3711,-4.3711,-4.3711,-4.3281,-4.2382,-4.2031,-4.1601,-4.1211,-4.1211,-4.1211,-4.1211,-4.1211,-4.1211,-4.1211,-4.1211,-4.1133,-4.0958,-4.0102,-3.9714,-3.9484,-3.8612,-3.707,-3.4454,-2.8414,-2.5853,-2.5541,-2.7223,-2.7591,-2.7662,-2.9177,-2.8326,-2.6801,-2.6538,-2.4967,-2.3305,-2.3292,-2.3169,-2.3044,-2.303,-2.4351,-2.5561,-2.5312,-2.5236,-2.5622,-2.6935,-2.5454,-2.4526,-2.6172,-2.6201,-2.6015,-2.6015,-2.6015,-2.4855,-2.1744,-2.1348,-2.1222,-2.0877,-2.085,-2.0667,-2.0264,-2.025,-2.025,-2.025,-2.0237,-2.0224,-2.0224,-2.021,-2.021,-2.0224,-2.0224,-2.0237,-2.025,-2.0561,-2.0726,-2.0739,-2.0975,-2.1109,-2.4917,-2.6132,-2.7608,-2.9557,-3.027,-3.073,-3.1854,-3.1495,-3.0716,-2.985,-2.8484,-2.7447,-2.7335,-2.8184,0.0,-3.2471,-3.5069,0.0,-4.0574,-4.1675,0.0,-4.2244,-4.2461,-4.25,-4.2285,-4.2266,-4.2187,0.0,-4.2265,-4.2558,-4.2891,-4.3418,-4.3711,-4.3711,-4.3711,-4.3711,-4.3711,-4.3711,-4.3281,-4.2382,-4.2324,-4.1894,-4.1211,-4.1211,-4.1211,-4.1211,-4.1211,-4.1211,-4.1211,-4.1211,-4.0236,-3.8709,-3.8289,-3.6898,-3.5128,-3.4682,-3.3995,-3.302,-3.1417,-2.9465,-2.7505,-2.6243,-2.5607,-2.5405,-2.5819,-2.5469,-2.4914,-2.4845,-2.4254,-2.3607,-2.3345,-2.424,-2.5149,-2.4916,-2.6206,-2.7487,-2.7423,-2.7197,-2.676,-2.5835,-2.4762,-2.4147,-2.459,-2.5401,-2.6015,-2.6015,-2.6015,-2.5711,-2.4855,-2.4763,-2.4286,-2.299,-2.2866,-2.231,-2.0989,-2.0851,-2.0851,-2.0851,-2.0681,-2.0561,-2.0561,-2.0317,-2.0304,-2.0561,-2.0561,-2.0668,-2.0851,-2.0962,-2.1002,-2.1002,-2.1069,-2.1109,-2.6039,-2.7068,-2.8425,-3.0645,-3.0469,-3.0249,-3.209,-3.1191,-2.9829,-2.9224,-2.7884,-2.6868,-2.6895,-2.8051,-2.9998,0.0,0.0,0.0,-4.1697,-4.2695,-4.3027,0.0,-4.3086,-4.3183,-4.2754,-4.2891,-4.2988,-4.2988,-4.2812,-4.2812,-4.3107,-4.3476,-4.3711,-4.3711,-4.3711,-4.3711,-4.3711,-4.3711,-4.3281,-4.2382,-4.2382,-4.1992,-4.1211,-4.1211,-4.1211,-4.1211,-4.1211,-4.1211,-4.1211,-4.1211,-4.047,-3.9318,-3.8964,-3.78,-3.6323,-3.5912,-3.5519,-3.5048,-3.4114,-3.2783,-3.1174,-2.9618,-2.8321,-2.767,-2.9162,-2.7752,-2.5809,-2.6647,-2.5475,-2.3915,-2.3754,-2.437,-2.4964,-2.4616,-2.5911,-2.7195,-2.7037,-2.688,-2.6377,-2.5252,-2.531,-2.5738,-2.6291,-2.6896,-2.7544,-2.8318,-2.8265,-2.8158,-2.8158,-2.6893,-2.565,-2.4748,-2.4655,-2.4255,-2.3342,-2.2608,-2.2184,-2.2184,-2.1356,-2.0869,-2.0869,-2.0708,-2.0664,-2.0869,-2.0869,-2.0949,-2.1109,-2.1109,-2.1109,-2.1109,-2.1109,-2.1109,-2.7135,-2.7971,-2.9076,-3.0951,-2.9916,-2.9015,-3.1183,-2.954,-2.7737,-2.8261,-2.6876,-2.5925,-2.7209,-2.8089,-2.9821,-3.3442,0.0,-3.9006,-4.1972,-4.244,-4.2695,-4.3183,-4.3574,-4.3672,-4.3359,-4.3672,-4.3887,-4.3887,-4.3535,-4.3281,-4.3205,-4.3496,-4.3711,-4.3711,-4.3711,-4.3711,-4.3711,-4.3711,-4.3281,-4.2382,-4.2382,-4.1992,-4.1211,-4.1211,-4.1211,-4.1211,-4.1211,-4.1211,-4.1211,-4.1211,-4.1211,-4.1172,-4.0762,-4.0351,-3.9922,-3.9453,-3.9023,-3.8414,-3.6553,-3.5778,-3.5376,-3.4269,-3.2581,-3.1559,-3.4447,-3.1825,-2.8197,-2.9848,-2.7732,-2.4983,-2.4991,-2.4949,-2.4826,-2.4239,-2.5609,-2.6941,-2.6362,-2.6236,-2.608,-2.5738,-2.6873,-2.8226,-2.9382,-2.9457,-2.9841,-3.1392,-3.125,-3.0976,-3.0976,-2.8462,-2.656,-2.6349,-2.6318,-2.6167,-2.5711,-2.4594,-2.3822,-2.3605,-2.2435,-2.1664,-2.1443,-2.1411,-2.133,-2.1109,-2.1109,-2.1109,-2.1109,-2.1109,-2.1109,-2.1109,-2.1109,-2.1109,-2.7455,-2.9215,-3.091,-3.1309,-3.1864,-3.2451,-3.2952,-3.1006,0.0,-2.8833,-2.7443,-2.6199,-2.6087,-2.8137,-3.0673,-3.3121,-3.6309,-3.9394,-4.2011,-4.2734,-4.3262,0.0,-4.4238,-4.4394,-4.4648,-4.4704,0.0,0.0,-4.4726,-4.4375,-4.3633,-4.3672,-4.3711,-4.3711,-4.3711,-4.3711,-4.3711,-4.3711,-4.3281,-4.2382,-4.2382,-4.1992,-4.1211,-4.1211,-4.1211,-4.1211,-4.1211,-4.1211,-4.1211,-4.1211,-4.1211,-4.1211,-4.1094,-4.0801,-4.0371,-3.9941,-3.9492,-3.9006,-3.8306,-3.8022,-3.7358,-3.3613,-3.1766,-3.109,-3.1686,-3.0914,-2.9884,-3.0203,-2.9799,-2.9205,-2.8988,-2.994,-3.0531,-2.862,-3.0503,-3.2236,-3.0571,-3.006,-2.9862,-2.9792,-2.9771,-2.9828,-3.0041,-3.0946,-3.1728,-3.202,-3.168,-3.1406,-3.1406,-3.0603,-2.953,-2.811,-2.7991,-2.691,-2.424,-2.4993,-2.5024,-2.3698,-2.4594,-2.4563,-2.3232,-2.317,-2.2497,-2.1141,-2.1109,-2.1109,-2.1109,-2.1109,-2.1109,-2.1109,-2.1109,-2.1109,-2.7764,-2.884,-2.9981,-3.0951,-3.0326,-2.9928,-3.1479,0.0,0.0,-2.6127,-2.5852,-2.5261,-2.3697,-2.5829,-2.8595,-3.1044,-3.3347,-3.624,-4.0179,-4.1133,-4.207,-4.3828,-4.4433,-4.4805,-4.4957,-4.5234,-4.5273,-4.4996,-4.4977,-4.4746,-4.4101,-4.3828,-4.3711,-4.3711,-4.3711,-4.3711,-4.3711,-4.3711,-4.3281,-4.2382,-4.2382,-4.1992,-4.1211,-4.1211,-4.1211,-4.1211,-4.1211,-4.1211,-4.1211,-4.1211,-4.1211,-4.1211,-4.1211,-4.0898,-4.0469,-4.0293,-3.9785,-3.918,-3.8965,-3.8787,-3.8243,-3.6128,-3.4391,-3.3261,-3.3803,-3.2418,-3.0807,-3.1578,-3.1087,-3.0277,-3.013,-3.0728,-3.1045,-2.9842,-3.0631,-3.1354,-3.0196,-2.9856,-2.9699,-2.9476,-2.9304,-2.9456,-3.0373,-3.0888,-3.1456,-3.2377,-3.2129,-3.1777,-3.1513,-3.1348,-3.0819,-2.9804,-2.9707,-2.9087,-2.7529,-2.653,-2.568,-2.4901,-2.3977,-2.3093,-2.2341,-2.231,-2.1915,-2.1109,-2.1109,-2.1109,-2.1109,-2.1109,-2.1109,-2.1109,-2.1109,-2.1109,-2.7844,-2.8825,-2.9703,-3.02,-2.8748,-2.7635,-2.9294,-2.6651,-2.3723,-2.3384,-2.3814,-2.3689,-2.1794,-2.3456,-2.6019,-2.8781,-3.0309,-3.2935,-3.7991,-3.9443,-4.0976,-4.3555,-4.4551,0.0,-4.5273,-4.5605,0.0,-4.5332,-4.5215,-4.4941,-4.4433,-4.3965,-4.3711,-4.3711,-4.3711,-4.3711,-4.3711,-4.3711,-4.332,-4.2558,-4.244,-4.2031,-4.1348,-4.125,-4.1211,-4.1211,-4.1211,-4.1211,-4.1211,-4.1211,-4.1211,-4.1211,-4.1211,-4.0957,-4.0644,-4.0566,-4.0019,-3.9336,-3.9238,-3.8926,-3.8611,-3.8611,-3.728,-3.5847,-3.6591,-3.465,-3.2435,-3.3487,-3.242,-3.0911,-3.0911,-3.0593,-3.0316,-3.0422,-3.0257,-3.0072,-3.0067,-2.9996,-2.9859,-2.9533,-2.938,-2.9735,-3.1111,-3.1079,-3.1351,-3.2723,-3.2609,-3.2218,-3.1836,-3.1719,-3.1484,-3.1074,-3.0937,-3.0762,-3.0392,-2.8337,-2.6742,-2.6045,-2.3915,-2.2358,-2.1664,-2.1632,-2.1475,-2.1109,-2.1109,-2.1109,-2.1109,-2.1109,-2.1109,-2.1109,-2.1109,-2.1109,-2.7495,-3.0854,-3.3107,-2.902,-2.9556,-3.0456,-2.7956,0.0,-2.1483,-2.298,-2.2426,-2.1712,-2.1893,-2.2791,-2.4492,-2.748,-2.933,-3.1939,-3.6405,-3.8994,-4.1426,-4.4023,0.0,0.0,-4.6113,-4.623,-4.623,-4.6191,-4.584,-4.5254,-4.4433,-4.3965,-4.3711,-4.3711,-4.3711,-4.3711,-4.3711,-4.3711,-4.3476,-4.3008,-4.2617,-4.2187,-4.1738,-4.1348,-4.1211,-4.1211,-4.1211,-4.1211,-4.1211,-4.1211,-4.1211,-4.1211,-4.1211,-4.1191,-4.1074,-4.0664,-4.0234,-3.9766,-3.9355,-3.8926,-3.8611,-3.8611,-3.8173,-3.7581,-3.7347,-3.6743,-3.6112,-3.5825,-3.4383,-3.2909,-3.2909,-3.1632,-3.0634,-3.1961,-3.2232,-3.2582,-3.3884,-3.3861,-3.3592,-3.3553,-3.3194,-3.2956,-3.3114,-3.3126,-3.317,-3.3328,-3.3008,-3.2715,-3.2676,-3.2374,-3.1983,-3.1474,-3.1113,-3.0274,-2.8753,-2.9756,-2.9187,-2.6197,-2.7073,-2.6409,-2.3481,-2.3356,-2.2654,-2.1141,-2.1109,-2.1109,-2.1109,-2.1109,-2.1109,-2.1109,-2.1109,-2.1109,-2.7108,-2.9075,-3.0269,-2.8043,-2.7403,-2.6991,-2.5553,-2.2766,-2.0488,-2.0529,-2.0933,-2.1136,-2.0588,-2.0897,-2.2188,-2.5085,-2.5783,-2.7286,-3.1055,-3.4698,-3.7996,-4.0638,-4.2669,0.0,0.0,0.0,-4.6308,-4.6308,-4.5918,-4.541,-4.4805,-4.4355,-4.3984,-4.3711,-4.3711,-4.3711,-4.3711,-4.3711,-4.3496,-4.3066,-4.2637,-4.2207,-4.1777,-4.1367,-4.1211,-4.1211,-4.1211,-4.1211,-4.1211,-4.1211,-4.1211,-4.1211,-4.1211,-4.1211,-4.1191,-4.0976,-4.0488,-3.9863,-3.9687,-3.916,-3.8611,-3.8611,-3.8457,-3.8242,-3.7812,-3.7383,-3.6953,-3.6523,-3.5677,-3.4883,-3.4883,-3.4296,-3.3861,-3.4451,-3.4584,-3.4369,-3.3565,-3.4179,-3.4437,-3.3063,-3.353,-3.4101,-3.3848,-3.3809,-3.373,-3.3425,-3.325,-3.3086,-3.2832,-3.2656,-3.2413,-3.1953,-3.1523,-3.0887,-2.9981,-2.9589,-2.8842,-2.7542,-2.6227,-2.5361,-2.5054,-2.317,-2.2247,-2.2591,-2.1601,-2.1109,-2.1109,-2.1109,-2.1109,-2.1109,-2.1296,-2.1408,-2.6279,-2.7621,-2.8345,-2.7203,-2.6096,-2.5079,-2.409,-2.1741,-1.956,-1.885,-1.9523,-1.998,-1.9108,-1.919,-2.0111,-2.2359,-2.3144,-2.4423,-2.713,-3.1873,-3.5843,-3.7953,0.0,-4.332,-4.5332,-4.5996,-4.6308,-4.6308,-4.6035,-4.5625,-4.5016,-4.4746,-4.4316,-4.373,-4.3711,-4.3711,-4.3711,-4.3711,-4.3555,-4.3262,-4.2695,-4.2226,-4.1973,-4.1426,-4.1211,-4.1211,-4.1211,-4.1211,-4.1211,-4.1211,-4.1211,-4.1211,-4.1211,-4.1211,-4.1211,-4.1211,-4.0703,-4.0059,-3.9941,-3.9394,-3.8787,-3.865,-3.8611,-3.8552,-3.8203,-3.7812,-3.7363,-3.6851,-3.595,-3.5055,-3.4452,-3.4727,-3.5158,-3.5158,-3.5587,-3.5544,-3.3907,-3.4522,-3.4926,-3.326,-3.3875,-3.4609,-3.4349,-3.429,-3.416,-3.3848,-3.3691,-3.3516,-3.3203,-3.3066,-3.2812,-3.2433,-3.207,-3.1719,-3.1338,-3.0203,-2.9299,-2.8829,-2.6653,-2.5697,-2.6376,-2.4157,-2.3228,-2.3889,-2.2737,-2.1892,-2.1363,-2.1363,-2.1363,-2.1376,-2.1609,-2.1716,-2.4783,-2.7302,-2.9001,-2.661,-2.6512,-2.6379,-2.4119,-2.0959,-1.855,-1.8675,-1.818,-1.7731,-1.7707,-1.793,-1.8418,-1.9298,-2.222,-2.4783,-2.5938,-3.1805,-3.6234,0.0,-3.9488,-4.1855,-4.3574,-4.5293,-4.6308,-4.6308,-4.6289,0.0,-4.5035,-4.5019,-4.4609,-4.373,-4.3711,-4.3711,-4.3711,-4.3711,-4.3711,-4.3691,-4.2791,-4.2382,-4.2362,-4.1562,-4.1211,-4.1211,-4.1211,-4.1211,-4.1211,-4.1211,-4.1211,-4.1211,-4.1211,-4.1211,-4.1211,-4.1211,-4.0898,-4.0449,-4.0039,-3.959,-3.9121,-3.8747,-3.8611,-3.8611,-3.8611,-3.8262,-3.7734,-3.6949,-3.5013,-3.2769,-3.084,-3.1808,-3.324,-3.324,-3.4659,-3.5982,-3.5982,-3.5684,-3.5391,-3.5391,-3.5019,-3.4707,-3.4687,-3.4687,-3.4687,-3.4687,-3.4336,-3.4095,-3.4095,-3.3691,-3.323,-3.2832,-3.2793,-3.2617,-3.2218,-3.2179,-3.144,-2.9797,-2.9643,-2.8928,-2.7359,-2.7232,-2.6407,-2.4612,-2.458,-2.3703,-2.1977,-2.1977,-2.1977,-2.1977,-2.1977,-2.201,-2.2546,-2.4124,-2.5266,-2.3671,-2.3304,-2.2874,-2.1105,-1.9392,-1.7956,-1.7219,-1.7404,-1.7684,-1.7684,-1.7774,-1.8439,-2.033,-2.1666,-2.2823,-2.3775,-2.9928,0.0,-3.5285,-4.0893,-4.4883,0.0,0.0,-4.6308,-4.6308,-4.6308,-4.5937,-4.5035,-4.4977,-4.4609,-4.373,-4.3711,-4.3711,-4.3711,-4.3711,-4.3555,-4.3262,-4.2695,-4.2285,-4.1973,-4.1426,-4.1211,-4.1211,-4.1211,-4.1211,-4.1211,-4.1211,-4.1211,-4.1211,-4.1211,-4.1211,-4.1211,-4.1211,-4.0898,-4.0469,-4.0371,-3.9824,-3.918,-3.9043,-3.8809,-3.8611,-3.8611,-3.8262,-3.7754,-3.6949,-3.6162,-3.5382,-3.4439,-3.4659,-3.5123,-3.5123,-3.5553,-3.5655,-3.4349,-3.4994,-3.5428,-3.4144,-3.4818,-3.5508,-3.5234,-3.5176,-3.5059,-3.4746,-3.459,-3.4394,-3.4134,-3.3977,-3.3711,-3.3262,-3.3223,-3.293,-3.2257,-3.2198,-3.1966,-3.1459,-3.0328,-2.9989,-3.0612,-2.8477,-2.7565,-2.8083,-2.5801,-2.4351,-2.3768,-2.2588,-2.2084,-2.2285,-2.2285,-2.2392,-2.0686,-2.1756,-2.2479,-2.1817,-2.1301,-2.0619,-1.9466,-1.8424,-1.7435,-1.6498,-1.6665,-1.6998,-1.6998,-1.7098,-1.7681,-1.9249,-2.0643,-2.2009,-2.3346,-2.8432,0.0,-3.5474,-4.063,0.0,0.0,-4.6016,-4.6308,-4.6308,-4.6308,-4.5937,-4.5035,-4.4977,-4.4609,-4.373,-4.3711,-4.3711,-4.3711,-4.3711,-4.3496,-4.3066,-4.2637,-4.2207,-4.1777,-4.1367,-4.1211,-4.1211,-4.1211,-4.1211,0.0,-4.1211,-4.1211,-4.1211,-4.1211,-4.1211,-4.1211,-4.1211,-4.0996,-4.0742,-4.0547,-4.0059,-3.9434,-3.9258,-3.8926,-3.8611,-3.8611,-3.8262,-3.7812,-3.7285,-3.7031,-3.6816,-3.6387,-3.6269,-3.623,-3.6021,-3.5982,-3.5655,-3.4521,-3.5158,-3.5655,-3.4487,-3.5192,-3.5937,-3.5664,-3.5625,-3.5527,-3.5234,-3.5059,-3.4863,-3.4609,-3.4446,-3.4199,-3.3926,-3.3769,-3.3457,-3.2961,-3.2734,-3.2637,-3.2637,-3.165,-3.1557,-3.2606,-3.0696,-2.9766,-3.0095,-2.8015,-2.6276,-2.4937,-2.3184,-2.2439,-2.2579,-2.2579,-2.2686,0.0,-2.003,-2.0539,-2.0708,-2.0187,-1.9452,-1.8836,-1.7916,0.0,-1.6391,-1.6019,-1.5835,-1.5915,-1.6152,-1.6498,-1.6967,-1.9497,-2.2207,-2.4512,-2.7747,-3.1901,0.0,-3.9299,0.0,-4.4262,-4.5605,-4.6308,-4.6308,-4.6269,-4.5898,-4.5035,-4.4957,-4.459,-4.373,-4.3526,-4.3526,-4.3711,-4.3711,-4.3394,-4.2804,-4.2537,-4.2108,-4.1541,-4.1308,-4.1211,-4.1211,-4.1211,-4.1211,-4.1211,-4.1211,-4.1211,-4.1211,-4.1211,-4.1211,-4.1211,-4.1211,-4.1211,-4.1152,-4.0703,-4.0293,-3.9863,-3.9355,-3.8926,-3.8611,-3.8611,-3.8301,-3.7933,-3.7894,-3.7637,-3.7246,-3.6851,-3.6753,-3.6621,-3.6211,-3.6079,-3.6079,-3.6079,-3.606,-3.604,-3.604,-3.6001,-3.5982,-3.5982,-3.5982,-3.5982,-3.5982,-3.5684,-3.543,-3.5391,-3.5019,-3.4726,-3.4707,-3.4388,-3.4153,-3.4153,-3.3691,-3.3386,-3.3386,-3.3386,-3.3386,-3.3386,-3.3386,-3.2619,-3.0997,-3.0868,-2.9065,-2.5517,-2.3856,-2.303,-2.2893,-2.2893,-2.2893,-1.6953,0.0,-1.8197,-1.7582,-1.7622,-1.7648,0.0,-1.6847,-1.6647,-1.6035,-1.5848,-1.6075,-1.7007,-1.686,-1.7435,-2.003,-2.1067,-2.2829,-2.6473,-3.0825,-3.5383,-4.0144,-4.1301,-4.2814,-4.5584,-4.6133,-4.6308,-4.6308,-4.5996,-4.5586,-4.5016,-4.4726,-4.4277,-4.373,-4.2015,-4.1932,-4.367,-4.3711,-4.2502,-4.0132,-4.1677,-4.1156,-3.8893,-4.047,-4.1211,-4.1211,-4.1211,-4.1211,-4.1211,-4.1211,-4.1211,-4.1211,-4.1211,-4.1211,-4.1211,-4.1211,-4.1211,-4.1191,-4.1055,-4.0742,-4.0254,-3.9453,-3.8926,-3.8611,-3.8611,-3.8496,-3.8359,-3.7991,-3.7816,-3.7676,-3.7266,-3.7148,-3.7129,-3.7012,-3.6992,-3.6992,-3.6992,-3.6738,-3.6558,-3.6558,-3.625,-3.5982,-3.5982,-3.5982,-3.5982,-3.5982,-3.5937,-3.5762,-3.543,-3.5293,-3.5098,-3.4746,-3.4609,-3.4551,-3.4551,-3.3867,-3.3386,-3.3386,-3.3386,-3.3386,-3.3386,-3.3386,-3.3228,-3.2797,-3.1465,-2.9065,-2.5517,-2.508,-2.4196,-2.2893,-2.2893,-2.2893,-1.6019,-1.6807,-1.7528,-1.7168,-1.7221,-1.7287,-1.6966,-1.658,-1.6182,-1.5875,-1.5915,-1.6273,-1.7034,-1.7261,-1.8036,-2.0231,-2.1154,-2.2936,-2.6767,-3.0961,-3.521,-3.9504,-4.0279,-4.1569,0.0,-4.5612,-4.5754,-4.4429,-4.5174,-4.5391,-4.4766,-4.4531,-4.418,-4.3711,-4.1495,-4.089,-4.2141,-4.1076,-3.9569,-3.7594,-3.9781,-3.982,-3.7975,-4.0197,-4.1211,-4.1211,-4.1211,-4.1211,-4.1211,-4.1211,-4.1211,-4.1211,-4.1211,-4.1211,-4.1211,-4.1211,-4.1211,-4.1211,-4.1211,-4.0879,-4.0333,-3.9492,-3.9043,-3.8828,-3.8669,-3.8611,-3.8571,-3.8281,-3.8223,-3.8125,-3.7695,-3.7578,-3.7307,-3.6188,-3.5882,-3.5882,-3.5882,-3.5713,-3.5809,-3.6778,-3.6758,-3.6601,-3.6601,-3.6445,-3.6309,-3.6309,-3.6152,-3.5903,-3.5703,-3.5684,-3.5586,-3.5332,-3.5137,-3.5019,-3.5019,-3.4394,-3.4004,-3.4004,-3.4004,-3.4004,-3.4004,-3.3828,-3.3711,-3.3711,-3.2171,-3.0026,-2.721,-2.6394,-2.5089,-2.3308,-2.3308,-2.3308,-1.5968,-1.6887,-1.7782,-1.7756,-1.7716,-1.7622,-1.7568,-1.674,-1.6008,-1.6008,-1.6233,-1.6578,-1.7021,-1.7782,-1.8703,-1.98,-2.1515,-2.3724,-2.6613,-2.9926,-3.3515,-3.7524,-3.7911,0.0,-4.2228,-4.4423,-4.4642,-4.2169,-4.3827,-4.4795,-4.4433,-4.3981,-4.3581,-4.3195,-4.1328,-4.0114,-3.9776,-3.8161,-3.6791,-3.5724,-3.8312,-3.8793,-3.7498,-4.0021,-4.1016,-4.0724,-4.1055,-4.1211,-4.1211,-4.1211,-4.1211,-4.1211,-4.1211,-4.0997,-4.0724,-4.1094,-4.0763,-4.0236,-4.0588,-4.0608,-4.0391,-3.9648,-3.9316,-3.9141,-3.8769,-3.8669,-3.8611,-3.8611,-3.8611,-3.8496,-3.8125,-3.8027,-3.748,-3.5463,-3.492,-3.4884,-3.4884,-3.4829,-3.5314,-3.7064,-3.7344,-3.7305,-3.7305,-3.7047,-3.6792,-3.6792,-3.6445,-3.6191,-3.6133,-3.6113,-3.6094,-3.6035,-3.5703,-3.5488,-3.5488,-3.5137,-3.4902,-3.4902,-3.4766,-3.4707,-3.4707,-3.4355,-3.4192,-3.4192,-3.3063,-3.1577,-2.9646,-2.8172,-2.6329,-2.4216,-2.4216,-2.4074,-1.6765,-1.7809,-1.837,-1.6914,-1.7261,-1.7809,-1.7354,-1.7125,-1.7005,-1.7005,-1.7032,-1.746,-1.8746,-1.9466,-2.049,-2.2371,-2.559,-2.7894,-2.7972,-3.0112,-3.3163,-3.7102,0.0,-3.6881,-4.1639,-4.2461,-4.2469,-4.2018,-4.1778,-4.2465,-4.4311,-4.219,-4.0879,-4.0806,-4.0469,-3.9353,-3.7347,-3.897,-3.84,-3.5766,-3.9903,-3.9538,-3.5339,-3.9374,-4.0178,-3.8508,-4.0392,-4.1211,-4.1211,-4.1211,-4.1211,-4.1211,-4.1211,-4.006,-3.8627,-4.0509,-3.8882,-3.596,-3.7777,-3.9346,-4.0469,-4.0313,-3.9805,-3.9199,-3.9121,-3.8867,-3.8611,-3.8611,-3.8611,-3.8591,-3.8496,-3.8476,-3.8384,-3.8016,-3.7924,-3.7924,-3.7924,-3.7598,-3.7419,-3.776,-3.7539,-3.7305,-3.7305,-3.7246,-3.7207,-3.7207,-3.7148,-3.6973,-3.6656,-3.6597,-3.6426,-3.6021,-3.5923,-3.5918,-3.5918,-3.5825,-3.5786,-3.5786,-3.5117,-3.4707,-3.4707,-3.4629,-3.4609,-3.4609,-3.4386,-3.3449,-3.1644,-3.1409,-2.951,-2.6189,-2.6189,-2.5306,-1.6326,-1.7301,-1.8036,-1.7395,-1.8357,-1.9345,-1.8918,-1.8598,-1.8331,-1.817,-1.8264,-1.8625,-1.9468,-2.0468,-2.1964,-2.4356,-2.6746,-2.8313,-2.8413,-2.9625,-3.2235,0.0,0.0,-3.5683,-3.9423,-4.1019,-4.0623,-3.7798,-4.0812,-4.2622,-4.2209,-4.1,-4.0301,-4.0301,-3.9055,-3.7904,-3.683,-3.8888,-3.8485,-3.575,-3.877,-3.8857,-3.6522,-3.9746,-4.0646,-3.9728,-4.0763,-4.0509,-3.9492,-4.0724,-4.0509,-3.9531,-4.0724,-4.0588,-3.9825,-4.0802,-3.9177,-3.6722,-3.8922,-3.8674,-3.7725,-3.9836,-3.8536,-3.6551,-3.8569,-3.813,-3.7143,-3.8263,-3.8611,-3.8611,-3.8611,-3.8611,-3.8299,-3.7198,-3.6922,-3.6922,-3.6922,-3.6772,-3.6933,-3.8045,-3.8125,-3.7988,-3.7988,-3.7793,-3.7637,-3.7637,-3.7441,-3.7226,-3.7031,-3.7012,-3.6836,-3.6406,-3.6367,-3.6269,-3.6001,-3.5982,-3.5982,-3.5982,-3.5644,-3.5312,-3.5078,-3.5293,-3.4806,-3.3535,-3.4772,-3.3974,-3.115,-3.2166,-3.077,-2.7113,-2.7113,-2.6056,-1.6061,-1.6901,-1.7782,-1.8129,-1.9236,-2.0307,-2.0494,-2.0094,-1.9722,-1.9733,-1.992,-2.0177,-2.0374,-2.1724,-2.3541,-2.5837,-2.7148,-2.8096,-2.8631,-2.9152,-3.127,-3.5999,-3.4525,-3.4142,-3.6692,-3.867,-3.8112,-3.4111,-3.8786,-4.1383,-4.0361,-3.9268,-3.8928,-3.9437,-3.8289,-3.7296,-3.6655,-3.905,-3.8985,-3.6516,-3.8248,-3.8693,-3.7975,-4.0197,-4.0919,-4.047,-4.0977,-4.0236,-3.8803,-4.0509,-4.0178,-3.8843,-4.0548,-4.1211,-4.1094,-4.006,-3.8922,-3.8054,-3.9256,-3.7834,-3.5869,-3.8356,-3.7348,-3.556,-3.7349,-3.6848,-3.5883,-3.6961,-3.7568,-3.8007,-3.8465,-3.8611,-3.819,-3.6608,-3.6238,-3.6238,-3.6238,-3.6238,-3.6682,-3.8299,-3.8611,-3.8611,-3.8611,-3.8301,-3.8086,-3.8086,-3.7812,-3.7559,-3.7461,-3.7441,-3.7285,-3.6855,-3.6851,-3.6641,-3.6211,-3.6172,-3.6133,-3.6035,-3.5982,-3.5879,-3.5547,-3.5859,-3.4937,-3.2719,-3.4439,-3.369,-3.031,-3.2246,-3.1474,-2.8177,-2.8177,-2.7106,-1.6859,-1.7528,-1.8116,-1.8689,-1.893,-1.9466,-2.1114,-2.1034,-2.0913,-2.1951,-2.2191,-2.2205,-2.2231,-2.3888,-2.5585,-2.66,-2.7762,-2.8644,-2.8921,-2.9285,-3.0539,-3.338,-3.1909,-3.1551,-3.3859,-3.426,-3.42,-3.3829,-3.4031,-3.5999,-4.009,-3.6226,-3.4853,-3.7003,-3.9013,-3.8838,-3.626,-4.0202,-4.1033,-3.8781,-4.0678,-4.0262,-3.7975,-4.0197,-4.006,-3.8271,-4.0314,-4.1094,-4.0958,-4.1133,-4.1094,-4.0977,-4.1133,-4.1211,-4.0724,-3.6642,-3.6322,-3.7657,-3.5799,-3.6281,-3.7401,-3.5685,-3.7313,-3.9241,-3.5228,-3.5002,-3.5751,-3.3847,-3.4467,-3.6146,-3.8117,-3.8611,-3.8574,-3.8409,-3.8372,-3.8372,-3.8372,-3.8372,-3.8428,-3.8574,-3.8611,-3.8611,-3.8611,-3.8591,-3.8571,-3.8571,-3.8496,-3.834,-3.7894,-3.7835,-3.7679,-3.7305,-3.7246,-3.709,-3.6695,-3.6656,-3.6445,-3.6035,-3.5982,-3.5982,-3.5976,-3.5962,-3.5104,-3.3203,-3.3326,-3.2386,-3.031,-3.2246,-3.2123,-3.0097,-3.0097,-2.9079,-1.6233,-1.7301,-1.8424,-1.8796,-1.9466,-2.0374,-2.1777,-2.2352,-2.292,-2.3875,-2.4075,-2.4075,-2.4075,-2.5157,-2.6226,-2.6734,-2.7934,-2.8868,-2.8988,-2.9446,-3.0657,-3.3116,-3.1458,-3.1004,-3.3309,-3.3574,-3.2955,-3.1483,-3.3968,-3.6269,-3.8032,-3.5114,-3.4417,-3.6744,-3.7411,-3.7251,-3.6227,-4.0069,-4.1574,-4.0737,-4.1208,-4.0918,-3.9982,-4.0802,-4.0724,-3.9982,-4.0841,-4.0431,-3.9237,-4.0646,-4.0392,-3.9276,-4.0685,-4.1211,-4.0841,-3.7777,-3.7201,-3.7578,-3.542,-3.5218,-3.5799,-3.4935,-3.4645,-3.4488,-3.3981,-3.3227,-3.2637,-3.309,-3.3692,-3.4619,-3.6511,-3.7794,-3.8611,-3.8611,-3.8611,-3.8611,-3.8611,-3.8611,-3.8611,-3.8611,-3.8611,-3.8611,-3.8611,-3.8611,-3.8611,-3.8611,-3.8611,-3.8552,-3.8359,-3.832,-3.8164,-3.7734,-3.7461,-3.7226,-3.707,-3.7051,-3.6992,-3.6836,-3.6309,-3.5982,-3.5982,-3.5982,-3.4555,-3.1456,-3.2595,-3.1685,-2.8557,-3.0468,-3.0432,-2.8557,-2.8557,-2.7527,-1.6246,-1.7341,-1.8611,-1.9078,-2.0013,-2.1216,-2.2732,-2.3527,-2.4235,-2.5398,-2.5478,-2.5422,-2.5478,-2.5985,-2.652,-2.6907,-2.8056,-2.8895,-2.8988,-2.9472,-3.0417,-3.2071,-3.087,-3.0526,-3.213,-3.2307,-3.1612,-3.0003,-3.2823,-3.494,-3.5663,-3.3556,-3.3291,-3.5504,-3.5307,-3.5067,-3.4826,-3.8762,-4.0355,-3.9568,-3.9957,-4.0138,-4.0178,-4.088,-4.0802,-4.0197,-4.088,-4.0353,-3.904,-4.0588,-4.0314,-3.908,-4.0607,-4.1211,-4.1016,-3.9492,-3.8508,-3.7578,-3.542,-3.4692,-3.4449,-3.312,-3.2431,-3.2133,-3.2025,-3.1315,-3.065,-3.1413,-3.2014,-3.2719,-3.3998,-3.6034,-3.7794,-3.7794,-3.8177,-3.8611,-3.8611,-3.8611,-3.8611,-3.8611,-3.8611,-3.8611,-3.8611,-3.8611,-3.8611,-3.8611,-3.8611,-3.8611,-3.8611,-3.8611,-3.8457,-3.8164,-3.7871,-3.7637,-3.75,-3.75,-3.7441,-3.7305,-3.6738,-3.6367,-3.623,-3.623,-3.4652,-3.128,-3.1913,-3.0716,-2.7505,-2.8808,-2.8772,-2.7505,-2.7574,-2.6903,-1.7192,-1.7836,-1.8704,-1.9586,-2.0481,-2.175,-2.4079,-2.4422,-2.4716,-2.6427,-2.6373,-2.6105,-2.6346,-2.64,-2.6587,-2.7215,-2.8016,-2.8711,-2.8961,-2.9299,-2.9593,-2.9887,-2.9913,-2.9913,-2.9913,-2.9913,-2.9913,-2.9913,-2.9913,-3.0914,-3.3248,-3.1168,-3.082,-3.2815,-3.2887,-3.2558,-3.1801,-3.6246,-3.7211,-3.4732,-3.6842,-3.7856,-3.7935,-4.0138,-3.9943,-3.7975,-4.0236,-4.1172,-4.1172,-4.1172,-4.1211,-4.1211,-4.1211,-4.1211,-4.1172,-4.1133,-3.9767,-3.7578,-3.5379,-3.4651,-3.3961,-2.9621,-3.1117,-3.3815,-2.9158,-2.9238,-3.0521,-2.8345,-2.8972,-3.0349,-3.0676,-3.3359,-3.5957,-3.5995,-3.7333,-3.863,-3.8611,-3.8611,-3.8611,-3.8611,-3.8611,-3.8611,-3.8611,-3.8611,-3.8611,-3.8611,-3.8611,-3.8611,-3.8611,-3.8611,-3.8611,-3.8611,-3.8611,-3.8398,-3.7969,-3.7894,-3.7754,-3.7344,-3.7305,-3.7129,-3.6734,-3.6714,-3.5597,-3.3258,-3.128,-2.9401,-2.7505,-2.7469,-2.7484,-2.7484,-2.7761,-2.7873,-1.6926,-1.7983,-1.9348,-2.0231,-2.1871,-2.3634,-2.4919,-2.5344,-2.5917,-2.7469,-2.7483,-2.7148,-2.7068,-2.7175,-2.7295,-2.7309,-2.8016,-2.8711,-2.8961,-2.9299,-2.9593,-2.9887,-2.9913,-2.9913,-2.9913,-2.9913,-2.9913,-2.9913,-2.9913,-3.0818,-3.2921,-3.0861,-3.0546,-3.2558,-3.2304,-3.2037,-3.1801,-3.4482,-3.5457,-3.4692,-3.5339,-3.5638,-3.5661,-3.6322,-3.6281,-3.5759,-3.7935,-3.8882,-3.9001,-4.0548,-4.1211,-4.1211,-4.1211,-4.1211,-4.0841,-3.7755,-3.7179,-3.7162,-3.1928,-3.2134,-3.3961,-2.9621,-3.0107,-3.2119,-3.071,-2.9715,-2.9188,-3.0074,-2.9575,-2.8841,-2.8966,-3.0673,-3.3031,-3.5751,-3.8028,-3.9414,-3.9082,-3.9004,-3.8926,-3.8669,-3.8611,-3.8611,-3.8611,-3.8611,-3.8611,-3.8611,-3.8611,-3.8611,-3.8611,-3.8611,-3.8611,-3.8611,-3.8611,-3.8552,-3.8398,-3.8379,-3.832,-3.8203,-3.8203,-3.7907,-3.7148,-3.7109,-3.6169,-3.4142,-3.2119,-3.0137,-2.8267,-2.6791,-2.6091,-2.6105,-2.615,-2.6192,-1.7996,-1.9145,-2.0565,-2.1796,-2.3233,-2.473,-2.6079,-2.652,-2.6974,-2.7978,-2.7857,-2.7549,-2.7643,-2.7603,-2.759,-2.7643,-2.8112,-2.8524,-2.8788,-2.9018,-2.9245,-2.9495,-2.9522,-2.9522,-2.9522,-2.9522,-2.9522,-2.9522,-2.9522,-3.009,-3.131,-3.0074,-2.9806,-3.0923,-3.068,-3.0466,-3.0379,-3.2391,-3.2956,-3.2134,-3.2997,-3.2956,-3.2176,-3.392,-3.4205,-3.3553,-3.6602,-3.7896,-3.8054,-4.0314,-4.1211,-4.1211,-4.1211,-4.1211,-4.0763,-3.7259,-3.6802,-3.7201,-3.2422,-3.1928,-3.2956,-3.0343,-2.9774,-3.0135,-3.0135,-2.9244,-2.8473,-2.9774,-2.9202,-2.8179,-2.8179,-2.9591,-3.1589,-3.3796,-3.6484,-3.8501,-3.8236,-3.8855,-3.9414,-3.9141,-3.9138,-3.908,-3.8848,-3.8828,-3.8769,-3.863,-3.8611,-3.8611,-3.8611,-3.8611,-3.8611,-3.8611,-3.8611,-3.8263,-3.7456,-3.7382,-3.7051,-3.622,-3.6183,-3.6293,-3.6571,-3.719,-3.691,-3.5633,-3.2824,-3.0847,-2.9716,-2.6885,-2.5518,-2.5518,-2.5638,-2.5692,-1.9663,-2.0775,-2.1984,-2.3754,-2.4519,-2.5373,-2.7308,-2.7736,-2.7816,-2.8125,-2.7764,-2.755,-2.8085,-2.775,-2.7563,-2.8098,-2.8179,-2.8286,-2.8564,-2.8604,-2.8711,-2.8961,-2.9001,-2.9001,-2.9001,-2.9001,-2.9001,-2.9001,-2.9001,-2.8988,-2.8961,-2.8961,-2.8828,-2.8577,-2.8564,-2.843,-2.8192,-3.0135,-3.0135,-2.8221,-3.0176,-3.0107,-2.8347,-3.2299,-3.3104,-3.1598,-3.5581,-3.7401,-3.7777,-3.9786,-4.0607,-4.0646,-4.0802,-4.088,-4.0646,-3.8627,-3.7777,-3.7281,-3.5137,-3.294,-3.1117,-3.1117,-2.9774,-2.8221,-2.8431,-2.8347,-2.8221,-2.8431,-2.8347,-2.8179,-2.8179,-2.9648,-3.1002,-3.0639,-3.3551,-3.6427,-3.6392,-3.808,-3.9657,-3.9619,-3.977,-3.9766,-3.9336,-3.9258,-3.9047,-3.8472,-3.8338,-3.8319,-3.8358,-3.8338,-3.8319,-3.8358,-3.8521,-3.7695,-3.5422,-3.5385,-3.4639,-3.2619,-3.2505,-3.3322,-3.5162,-3.6821,-3.7507,-3.7155,-3.3619,-3.1592,-3.1224,-2.7624,-2.5738,-2.5598,-2.5904,-2.6038,-1.8718,-2.0013,-2.1683,-2.3701,-2.5638,-2.7215,-2.7938,-2.8085,-2.8112,-2.8165,-2.8085,-2.8031,-2.8165,-2.8085,-2.8045,-2.8165,-2.8179,-2.8286,-2.8564,-2.8604,-2.8711,-2.8961,-2.9001,-2.9001,-2.9001,-2.9001,-2.9001,-2.9001,-2.9001,-2.8895,-2.8711,-2.8698,-2.8564,-2.8299,-2.8286,-2.8259,-2.8179,-2.867,-2.867,-2.8234,-2.867,-2.8628,-2.8221,-2.916,-3.026,-3.1433,-3.2366,-3.3798,-3.542,-3.592,-3.6121,-3.6281,-3.7935,-3.8587,-3.8548,-3.8054,-3.6842,-3.5056,-3.2858,-3.0717,-2.888,-2.888,-2.8586,-2.8516,-3.0218,-2.9523,-2.8558,-3.026,-2.9495,-2.8179,-2.8179,-2.8558,-2.8867,-2.8798,-3.2007,-3.4996,-3.4653,-3.6315,-3.7741,-3.7373,-3.8709,-3.9863,-3.9766,-3.9746,-3.9046,-3.7034,-3.6403,-3.6312,-3.6661,-3.6403,-3.633,-3.6661,-3.7868,-3.7125,-3.3436,-3.4601,-3.4639,-3.2619,-3.2505,-3.2695,-3.3133,-3.4979,-3.5981,-3.5889,-3.506,-3.3031,-2.9839,-2.897,-2.776,-2.6199,-2.6266,-2.6293,-1.8798,-2.0294,-2.2124,-2.4623,-2.648,-2.7776,-2.8112,-2.8179,-2.8179,-2.8179,-2.8179,-2.8179,-2.8179,-2.8179,-2.8179,-2.8179,-2.8179,-2.8245,-2.8406,-2.8433,-2.8444,-2.8591,-2.8604,-2.8604,-2.8604,-2.8604,-2.8604,-2.8604,-2.8604,-2.8551,-2.8433,-2.8433,-2.8353,-2.8192,-2.8179,-2.8179,-2.8179,-2.8179,-2.8179,-2.8179,-2.8179,-2.8179,-2.8179,-2.8179,-2.8796,-2.9941,-3.0951,-3.2052,-3.3186,-3.4246,-3.4692,-3.4813,-3.5903,-3.6362,-3.6241,-3.5177,-3.4083,-3.294,-3.1805,-3.0024,-2.8389,-2.9411,-2.9048,-2.8431,-2.9537,-2.9076,-2.8431,-2.9523,-2.9048,-2.8179,-2.8179,-2.8179,-2.8179,-2.8179,-3.0717,-3.3057,-3.2802,-3.4491,-3.5976,-3.5729,-3.7457,-3.8875,-3.8687,-3.9356,-3.9466,-3.8179,-3.7746,-3.7296,-3.6513,-3.6056,-3.5499,-3.4724,-3.5279,-3.4431,-3.1284,-3.1994,-3.1711,-2.972,-2.9565,-3.0029,-3.0977,-3.2032,-3.3041,-3.4038,-3.3079,-3.152,-2.941,-2.8413,-2.7423,-2.6386,-2.6386,-2.6386,-1.8784,-2.0628,-2.2726,-2.5531,-2.6934,-2.7696,-2.8045,-2.8152,-2.8179,-2.8179,-2.8179,-2.8179,-2.8179,-2.8179,-2.8179,-2.8179,-2.8179,-2.8179,-2.8179,-2.8179,-2.8179,-2.8179,-2.8179,-2.8179,-2.8179,-2.8179,-2.8179,-2.8179,-2.8179,-2.8179,-2.8179,-2.8179,-2.8179,-2.8179,-2.8179,-2.8179,-2.8179,-2.8179,-2.8179,-2.8179,-2.8179,-2.8179,-2.8179,-2.8179,-2.8179,-2.8305,-3.0093,-3.0827,-3.0993,-3.2833,-3.3553,-3.3594,-3.4002,-3.4124,-3.3961,-3.2505,-3.1722,-3.1392,-3.1392,-3.0024,-2.8516,-3.026,-2.9648,-2.8179,-2.8179,-2.8179,-2.8179,-2.8179,-2.8179,-2.8179,-2.8179,-2.8179,-2.8179,-2.8179,-2.9565,-3.0827,-3.0827,-3.2587,-3.4124,-3.4124,-3.5863,-3.7232,-3.6912,-3.7973,-3.8766,-3.8423,-3.8271,-3.7623,-3.5867,-3.5379,-3.4517,-3.2748,-3.2632,-3.169,-2.9223,-2.9295,-2.8617,-2.6625,-2.6413,-2.7148,-2.8788,-2.8866,-2.9681,-3.1399,-3.0438,-2.9604,-2.8866,-2.758,-2.6728,-2.6386,-2.6386,-2.6386,-1.6981,-1.965,-2.2852,-2.5077,-2.648,-2.7443,-2.7696,-2.8005,-2.8179,-2.8179,-2.8179,-2.8179,-2.8179,-2.8179,-2.8179,-2.8179,-2.8179,-2.8179,-2.8179,-2.8179,-2.8179,-2.8179,-2.8179,-2.8179,-2.8179,-2.8179,-2.8179,-2.8179,-2.8179,-2.8179,-2.8179,-2.8179,-2.8179,-2.8179,-2.8179,-2.8179,-2.8179,-2.8179,-2.8179,-2.8179,-2.8179,-2.8179,-2.8179,-2.8179,-2.8179,-2.8221,-2.8516,-2.8628,-2.8628,-2.8964,-2.909,-2.9244,-3.1117,-3.1846,-3.2052,-3.3676,-3.3063,-3.1392,-3.1392,-3.0024,-2.8263,-2.8516,-2.8431,-2.8179,-2.8179,-2.8179,-2.8179,-2.8179,-2.8179,-2.8179,-2.8179,-2.8179,-2.8179,-2.8179,-2.8431,-2.8628,-2.8628,-3.0301,-3.1846,-3.1846,-3.3635,-3.512,-3.5087,-3.4889,-3.42,-3.244,-3.1829,-3.1631,-3.1724,-3.1358,-3.1146,-3.1234,-3.2475,-3.1715,-2.7892,-2.895,-2.8935,-2.6881,-2.6533,-2.6505,-2.6768,-2.6807,-2.6925,-2.7201,-3.04,-3.0323,-2.6807,-2.8296,-2.81,-2.6386,-2.6386,-2.6386,-1.7742,-1.9907,-2.2218,-2.4426,-2.5665,-2.6453,-2.7068,-2.7483,-2.7737,-2.7898,-2.7938,-2.7991,-2.8152,-2.8179,-2.8179,-2.8179,-2.8179,-2.8179,-2.8179,-2.8179,-2.8179,-2.8179,-2.8179,-2.8179,-2.8179,-2.8179,-2.8179,-2.8179,-2.8179,-2.8179,-2.8179,-2.8179,-2.8179,-2.8179,-2.8179,-2.8179,-2.8179,-2.8179,-2.8179,-2.8179,-2.8179,-2.8179,-2.8179,-2.8179,-2.8179,-2.8179,-2.8179,-2.8179,-2.8179,-2.8179,-2.8179,-2.8305,-2.9244,-2.9607,-2.9732,-3.0717,-3.0426,-2.9607,-2.9607,-2.9006,-2.8179,-2.8179,-2.8179,-2.8179,-2.8179,-2.8179,-2.8179,-2.8179,-2.8179,-2.8179,-2.8179,-2.8179,-2.8179,-2.8179,-2.8179,-2.8179,-2.8179,-2.8964,-2.9982,-3.1159,-3.2176,-3.3227,-3.4489,-3.4519,-3.4098,-3.3208,-3.2919,-3.2386,-3.1373,-3.0899,-3.0318,-2.9251,-2.9633,-2.9243,-2.7459,-2.8013,-2.8051,-2.7149,-2.6947,-2.6921,-2.6921,-2.672,-2.6627,-2.6627,-2.8239,-2.8193,-2.6386,-2.7305,-2.7266,-2.6386,-2.6386,-2.6386,-1.7889,-1.9386,-2.0775,-2.3118,-2.4319,-2.5224,-2.6253,-2.6774,-2.7188,-2.7509,-2.7589,-2.7724,-2.8018,-2.8138,-2.8179,-2.8179,-2.8179,-2.8179,-2.8179,-2.8179,-2.8179,-2.8179,-2.8179,-2.8179,-2.8179,-2.8179,-2.8179,-2.8179,-2.8179,-2.8179,-2.8179,-2.8179,-2.8179,-2.8179,-2.8179,-2.8179,-2.8179,-2.8179,-2.8179,-2.8179,-2.8179,-2.8179,-2.8179,-2.8179,-2.8179,-2.8179,-2.8179,-2.8179,-2.8179,-2.8179,-2.8179,-2.8179,-2.8179,-2.8179,-2.8179,-2.8179,-2.8179,-2.8179,-2.8179,-2.8179,-2.8179,-2.8179,-2.8179,-2.8179,-2.8179,-2.8179,-2.8179,-2.8179,-2.8179,-2.8179,-2.8179,-2.8179,-2.8179,-2.8179,-2.8179,-2.8179,-2.8179,-2.8179,-2.867,-3.026,-3.0592,-3.1117,-3.2751,-3.3038,-3.3038,-3.3038,-3.3038,-3.2463,-3.0786,-3.0415,-2.9667,-2.8011,-2.7657,-2.7536,-2.7536,-2.7456,-2.7416,-2.7416,-2.7349,-2.7309,-2.7309,-2.7054,-2.6934,-2.6934,-2.672,-2.6533,-2.6386,-2.6386,-2.6386,-2.6386,-2.6386,-2.6386,-1.5963,-1.7113,-1.8358,-2.0708,-2.2378,-2.3785,-2.5251,-2.6026,-2.66,-2.7215,-2.7322,-2.7416,-2.7669,-2.7991,-2.8179,-2.8179,-2.8179,-2.8179,-2.8179,-2.8179,-2.8179,-2.8179,-2.8179,-2.8179,-2.8179,-2.8179,-2.8179,-2.8179,-2.8179,-2.8179,-2.8179,-2.8179,-2.8179,-2.8179,-2.8179,-2.8179,-2.8179,-2.8179,-2.8179,-2.8179,-2.8179,-2.8179,-2.8179,-2.8179,-2.8179,-2.8179,-2.8179,-2.8179,-2.8179,-2.8179,-2.8179,-2.8179,-2.8179,-2.8179,-2.8179,-2.8179,-2.8179,-2.8179,-2.8179,-2.8179,-2.8179,-2.8179,-2.8179,-2.8179,-2.8179,-2.8179,-2.8179,-2.8179,-2.8179,-2.8179,-2.8179,-2.8179,-2.8179,-2.8179,-2.8179,-2.8179,-2.8179,-2.8179,-2.8221,-2.8347,-2.8389,-2.8389,-2.8516,-2.8558,-2.8558,-2.8558,-2.8558,-2.8516,-2.8389,-2.8334,-2.8278,-2.8207,-2.8152,-2.8138,-2.8138,-2.7843,-2.7682,-2.7682,-2.7456,-2.7309,-2.7309,-2.7296,-2.7282,-2.7282,-2.7269,-2.6988,-2.6386,-2.6386,-2.6386,-2.6386,-2.6386,-2.6386,-1.5431,-1.6511,-1.7715,-1.9305,-2.0962,-2.2452,-2.3327,-2.4569,-2.5757,-2.6346,-2.6613,-2.6894,-2.7335,-2.7655,-2.7965,-2.8152,-2.8179,-2.8179,-2.8179,-2.8179,-2.8179,-2.8179,-2.8179,-2.8179,-2.8179,-2.8179,-2.8179,-2.8179,-2.8179,-2.8179,-2.8179,-2.8179,-2.8179,-2.8179,-2.8179,-2.8179,-2.8179,-2.8179,-2.8179,-2.8179,-2.8179,-2.8179,-2.8179,-2.8179,-2.8179,-2.8179,-2.8179,-2.8179,-2.8179,-2.8179,-2.8179,-2.8179,-2.8179,-2.8179,-2.8179,-2.8179,-2.8179,-2.8179,-2.8179,-2.8179,-2.8179,-2.8179,-2.8179,-2.8179,-2.8179,-2.8179,-2.8179,-2.8179,-2.8179,-2.8179,-2.8179,-2.8179,-2.8179,-2.8179,-2.8179,-2.8179,-2.8179,-2.8179,-2.8179,-2.8179,-2.8179,-2.8179,-2.8179,-2.8179,-2.8179,-2.8179,-2.8179,-2.8179,-2.8179,-2.8179,-2.8179,-2.8179,-2.8179,-2.8179,-2.8179,-2.8085,-2.8031,-2.8031,-2.7924,-2.7871,-2.7871,-2.7684,-2.7549,-2.7549,-2.7403,-2.7202,-2.6988,-2.676,-2.6667,-2.6667,-2.648,-2.6386,-1.483,-1.5762,-1.6939,-1.841,-1.9506,-2.0659,-2.2205,-2.3327,-2.4329,-2.5342,-2.5745,-2.6159,-2.6881,-2.7134,-2.7415,-2.7951,-2.8031,-2.8072,-2.8165,-2.8179,-2.8179,-2.8179,-2.8179,-2.8179,-2.8179,-2.8179,-2.8179,-2.8179,-2.8179,-2.8179,-2.8179,-2.8179,-2.8179,-2.8179,-2.8179,-2.8179,-2.8179,-2.8179,-2.8179,-2.8179,-2.8179,-2.8179,-2.8179,-2.8179,-2.8179,-2.8179,-2.8179,-2.8179,-2.8179,-2.8179,-2.8179,-2.8179,-2.8179,-2.8179,-2.8179,-2.8179,-2.8179,-2.8179,-2.8179,-2.8179,-2.8179,-2.8179,-2.8179,-2.8179,-2.8179,-2.8179,-2.8179,-2.8179,-2.8179,-2.8179,-2.8179,-2.8179,-2.8179,-2.8179,-2.8179,-2.8179,-2.8179,-2.8179,-2.8179,-2.8179,-2.8179,-2.8179,-2.8179,-2.8179,-2.8179,-2.8179,-2.8179,-2.8179,-2.8179,-2.8179,-2.8179,-2.8179,-2.8179,-2.8179,-2.8179,-2.8179,-2.8179,-2.8179,-2.8179,-2.8179,-2.8179,-2.7991,-2.7884,-2.7884,-2.7697,-2.7603,-2.7603,-2.7161,-2.6974,-2.6961,-2.6774,-2.668,0.0,0.0,0.0,-1.7889,-1.7996,-1.8505,-2.1943,0.0,-2.2418,-2.4159,-2.4796,-2.5315,-2.6186,-2.6346,-2.664,-2.7522,-2.7669,-2.7789,-2.8125,-2.8165,-2.8165,-2.8165,-2.8179,-2.8179,-2.8179,-2.8179,-2.8179,-2.8179,-2.8179,-2.8179,-2.8179,-2.8179,-2.8179,-2.8179,-2.8179,-2.8179,-2.8179,-2.8179,-2.8179,-2.8179,-2.8179,-2.8179,-2.8179,-2.8179,-2.8179,-2.8179,-2.8179,-2.8179,-2.8179,-2.8179,-2.8179,-2.8179,-2.8179,-2.8179,-2.8179,-2.8179,-2.8179,-2.8179,-2.8179,-2.8179,-2.8179,-2.8179,-2.8179,-2.8179,-2.8179,-2.8179,-2.8179,-2.8179,-2.8179,-2.8179,-2.8179,-2.8179,-2.8179,-2.8179,-2.8179,-2.8179,-2.8179,-2.8179,-2.8179,-2.8179,-2.8179,-2.8179,-2.8179,-2.8179,-2.8179,-2.8179,-2.8179,-2.8179,-2.8179,-2.8179,-2.8179,-2.8179,-2.8179,-2.8179,-2.8179,-2.8179,-2.8179,-2.8179,-2.8179,-2.8179,-2.8179,-2.8179,-2.8179,-2.8179,-2.8179,-2.8179,-2.8179,-2.7603,-2.7322,-2.7322,-2.7309,-2.7309,-1.4474,0.0,0.0,0.0,0.0,0.0,0.0,0.0,-2.0619,-2.2352,-2.2953,-2.3621,-2.5157,-2.5438,-2.5732,-2.6613,-2.7148,-2.7456,-2.7536,-2.7724,-2.7816,-2.7816,-2.8058,-2.8179,-2.8179,-2.8179,-2.8179,0.0,-2.8179,-2.8179,-2.8179,-2.8179,-2.8179,-2.8179,-2.8179,-2.8179,-2.8179,-2.8179,-2.8179,-2.8179,-2.8179,-2.8179,-2.8179,-2.8179,-2.8179,-2.8179,-2.8179,-2.8179,-2.8179,-2.8179,-2.8179,-2.8179,-2.8179,-2.8179,-2.8179,-2.8179,-2.8179,-2.8179,-2.8179,-2.8179,-2.8179,-2.8179,-2.8179,-2.8179,-2.8179,-2.8179,-2.8179,-2.8179,-2.8179,-2.8179,-2.8179,-2.8179,-2.8179,-2.8179,-2.8179,-2.8179,-2.8179,-2.8179,-2.8179,-2.8179,-2.8179,-2.8179,-2.8179,-2.8179,-2.8179,-2.8179,-2.8179,-2.8179,-2.8179,-2.8179,-2.8179,-2.8179,-2.8179,-2.8179,-2.8179,-2.8179,-2.8179,-2.8179,-2.8179,-2.8179,-2.8179,-2.8179,-2.8179,-2.8179,-2.8179,-2.8179,-2.8179,-2.7804,-2.7575,-2.7575,-2.7403,-2.7309,-1.5378,-1.5845,-1.642,-1.6286,0.0,0.0,-1.8063,-1.8665,-1.9562,0.0,-2.2031,-2.2672,-2.4088,-2.4449,-2.4783,-2.5531,-2.6052,-2.6613,-2.7215,-2.7415,-2.7522,-2.7522,-2.771,-2.7871,-2.7991,-2.8005,-2.8045,-2.8179,-2.8179,-2.8179,-2.8179,-2.8179,-2.8179,-2.8179,-2.8179,-2.8179,-2.8179,-2.8179,-2.8179,-2.8179,-2.8179,-2.8179,-2.8179,-2.8179,-2.8179,-2.8179,-2.8179,-2.8179,-2.8179,-2.8179,-2.8179,-2.8179,-2.8179,-2.8179,-2.8179,-2.8179,-2.8179,-2.8179,-2.8179,-2.8179,-2.8179,-2.8179,-2.8179,-2.8179,-2.8179,-2.8179,-2.8179,-2.8179,-2.8179,-2.8179,-2.8179,-2.8179,-2.8179,-2.8179,-2.8179,-2.8179,-2.8179,-2.8179,-2.8179,-2.8179,-2.8179,-2.8179,-2.8179,-2.8179,-2.8179,-2.8179,-2.8179,-2.8179,-2.8179,-2.8179,-2.8179,-2.8179,-2.8179,-2.8179,-2.8179,-2.8179,-2.8179,-2.8179,-2.8179,-2.8179,-2.8179,-2.8179,-2.8179,-2.8179,-2.8179,-2.8179,-2.8179,-2.8005,-2.7924,-2.7883,-2.775,-2.767,-1.6645,-1.6779,-1.7154,-1.7756,-1.7275,0.0,-1.8945,-1.8851,-1.8905,0.0,-2.1355,-2.1804,-2.2772,-2.322,-2.3621,-2.4195,-2.4649,-2.5476,-2.6907,-2.7162,-2.7202,-2.7202,-2.7269,-2.7403,-2.7629,-2.7655,-2.7776,-2.8112,-2.8165,-2.8179,-2.8179,-2.8179,-2.8179,-2.8179,-2.8179,-2.8179,-2.8179,-2.8179,-2.8179,-2.8179,-2.8179,-2.8179,-2.8179,-2.8179,-2.8179,-2.8179,-2.8179,-2.8179,-2.8179,-2.8179,-2.8179,-2.8179,-2.8179,-2.8179,-2.8179,-2.8179,-2.8179,-2.8179,-2.8179,-2.8179,-2.8179,-2.8179,-2.8179,-2.8179,-2.8179,-2.8179,-2.8179,-2.8179,-2.8179,-2.8179,-2.8179,-2.8179,-2.8179,-2.8179,-2.8179,-2.8179,-2.8179,-2.8179,-2.8179,-2.8179,-2.8179,-2.8179,-2.8179,-2.8179,-2.8179,-2.8179,-2.8179,-2.8179,-2.8179,-2.8179,-2.8179,-2.8179,-2.8179,-2.8179,-2.8179,-2.8179,-2.8179,-2.8179,-2.8179,-2.8179,-2.8179,-2.8179,-2.8179,-2.8179,-2.8179,-2.8179,-2.8179,-2.8179,-2.8179,-2.8179,-2.8179,-2.8179,-1.8291,-1.8478,-1.8625,-1.7608,-1.8077,0.0,-1.6902,-1.7208,-1.7903,0.0,-1.8424,-1.8931,-2.0504,-2.1082,-2.1502,-2.2091,-2.3241,-2.4449,-2.5678,-2.6266,-2.656,-2.656,-2.7015,-2.7322,-2.7389,-2.7389,-2.7468,-2.7762,-2.8045,-2.8179,-2.8179,-2.8179,-2.8179,-2.8179,-2.8179,-2.8179,-2.8179,-2.8179,-2.8179,-2.8179,-2.8179,-2.8179,-2.8179,-2.8179,-2.8179,-2.8179,-2.8179,-2.8179,-2.8179,-2.8179,-2.8179,-2.8179,-2.8179,-2.8179,-2.8179,-2.8179,-2.8179,-2.8179,-2.8179,-2.8179,-2.8179,-2.8179,-2.8179,-2.8179,-2.8179,-2.8179,-2.8179,-2.8179,-2.8179,-2.8179,-2.8179,-2.8179,-2.8179,-2.8179,-2.8179,-2.8179,-2.8179,-2.8179,-2.8179,-2.8179,-2.8179,-2.8179,-2.8179,-2.8179,-2.8179,-2.8179,-2.8179,-2.8179,-2.8179,-2.8179,-2.8179,-2.8179,-2.8179,-2.8179,-2.8179,-2.8179,-2.8179,-2.8179,-2.8179,-2.8179,-2.8179,-2.8179,-2.8179,-2.8179,-2.8179,-2.8179,-2.8179,-2.8179,-2.8179,-2.8179,-2.8179,-2.8179,-1.9426,-1.9359,-1.9439,-1.8838,0.0,0.0,0.0,-1.7582,-1.7689,-1.8691,-1.8317,-1.825,-1.9746,-2.0134,-2.0458,-2.1047,-2.2144,-2.314,-2.3861,-2.4983,-2.5678,-2.5531,-2.5905,-2.6332,-2.6626,-2.6787,-2.7055,-2.7455,-2.7804,-2.7965,-2.7965,-2.8098,-2.8179,-2.8179,-2.8179,-2.8179,-2.8179,-2.8179,-2.8179,-2.8179,-2.8179,-2.8179,-2.8179,-2.8179,-2.8179,-2.8179,-2.8179,-2.8179,-2.8179,-2.8179,-2.8179,-2.8179,-2.8179,-2.8179,-2.8179,-2.8179,-2.8179,-2.8179,-2.8179,-2.8179,-2.8179,-2.8179,-2.8179,-2.8179,-2.8179,-2.8179,-2.8179,-2.8179,-2.8179,-2.8179,-2.8179,-2.8179,-2.8179,-2.8179,-2.8179,-2.8179,-2.8179,-2.8179,-2.8179,-2.8179,-2.8179,-2.8179,-2.8179,-2.8179,-2.8179,-2.8179,-2.8179,-2.8179,-2.8179,-2.8179,-2.8179,-2.8179,-2.8179,-2.8179,-2.8179,-2.8179,-2.8179,-2.8179,-2.8179,-2.8179,-2.8179,-2.8179,-2.8179,-2.8179,-2.8179,-2.8179,-2.8179,-2.8179,-2.8179,-2.8179,-2.8179,-2.8179,-2.0726,-2.0468,-2.0508,-2.0264,0.0,-1.9348,0.0,0.0,0.0,-1.925,-1.8623,0.0,0.0,0.0,0.0,-1.995,0.0,0.0,0.0,-2.314,0.0,-2.4252,-2.4609,-2.5101,-2.569,-2.5865,-2.6253,-2.7001,-2.7121,-2.7321,-2.7602,-2.7938,-2.8125,-2.8179,-2.8179,-2.8179,-2.8179,-2.8179,-2.8179,-2.8179,-2.8179,-2.8179,-2.8179,-2.8179,-2.8179,-2.8179,-2.8179,-2.8179,-2.8179,-2.8179,-2.8179,-2.8179,-2.8179,-2.8179,-2.8179,-2.8179,-2.8179,-2.8179,-2.8179,-2.8179,-2.8179,-2.8179,-2.8179,-2.8179,-2.8179,-2.8179,-2.8179,-2.8179,-2.8179,-2.8179,-2.8179,-2.8179,-2.8179,-2.8179,-2.8179,-2.8179,-2.8179,-2.8179,-2.8179,-2.8179,-2.8179,-2.8179,-2.8179,-2.8179,-2.8179,-2.8179,-2.8179,-2.8179,-2.8179,-2.8179,-2.8179,-2.8179,-2.8179,-2.8179,-2.8179,-2.8179,-2.8179,-2.8179,-2.8179,-2.8179,-2.8179,-2.8179,-2.8179,-2.8179,-2.8179,-2.8179,-2.8179,-2.8179,-2.8179,-2.8179,-2.8179,-2.8179,0.0,0.0,0.0,0.0,-2.1309,-2.1542,0.0,0.0,-1.8759,-1.7382,0.0,0.0,0.0,0.0,0.0,0.0,0.0,0.0,-1.9038,-2.0258,-2.1676,-2.2947,-2.3603,-2.4142,-2.4693,-2.4583,-2.4917,-2.6065,-2.569,-2.5984,-2.7282,-2.7589,-2.7911,-2.8179,-2.8179,-2.8179,-2.8179,-2.8179,-2.8179,-2.8179,-2.8179,-2.8179,-2.8179,-2.8179,-2.8179,-2.8179,-2.8179,-2.8179,-2.8179,-2.8179,-2.8179,-2.8179,-2.8179,-2.8179,-2.8179,-2.8179,-2.8179,-2.8179,-2.8179,-2.8179,-2.8179,-2.8179,-2.8179,-2.8179,-2.8179,-2.8179,-2.8179,-2.8179,-2.8179,-2.8179,-2.8179,-2.8179,-2.8179,-2.8179,-2.8179,-2.8179,-2.8179,-2.8179,-2.8179,-2.8179,-2.8179,-2.8179,-2.8179,-2.8179,-2.8179,-2.8179,-2.8179,-2.8179,-2.8179,-2.8179,-2.8179,-2.8179,-2.8179,-2.8179,-2.8179,-2.8179,-2.8179,-2.8179,-2.8179,-2.8179,-2.8179,-2.8179,-2.8179,-2.8179,-2.8179,-2.8179,-2.8179,-2.8179,-2.8179,-2.8179,-2.8179,-2.8179,0.0,0.0,0.0,0.0,0.0,0.0,-1.9201,0.0,-1.809,0.0,0.0,0.0,0.0,0.0,0.0,0.0,-1.817,0.0,0.0,0.0,-1.9893,-2.1189,0.0,0.0,-2.3212,-2.3394,-2.3817,-2.466,-2.4623,-2.5064,-2.6186,-2.7014,-2.7575,-2.7924,-2.8098,-2.8179,-2.8179,-2.8179,-2.8179,-2.8179,-2.8179,-2.8179,-2.8179,-2.8179,-2.8179,-2.8179,-2.8179,-2.8179,-2.8179,-2.8179,-2.8179,-2.8179,-2.8179,-2.8179,-2.8179,-2.8179,-2.8179,-2.8179,-2.8179,-2.8179,-2.8179,-2.8179,-2.8179,-2.8179,-2.8179,-2.8179,-2.8179,-2.8179,-2.8179,-2.8179,-2.8179,-2.8179,-2.8179,-2.8179,-2.8179,-2.8179,-2.8179,-2.8179,-2.8179,-2.8179,-2.8179,-2.8179,-2.8179,-2.8179,-2.8179,-2.8179,-2.8179,-2.8179,-2.8179,-2.8179,-2.8179,-2.8179,-2.8179,-2.8179,-2.8179,-2.8179,-2.8179,-2.8179,-2.8179,-2.8179,-2.8179,-2.8179,-2.8179,-2.8179,-2.8179,-2.8179,-2.8179,-2.8179,-2.8179,-2.8179,-2.8179,-2.8179,-2.3763,0.0,0.0,0.0,0.0,0.0,0.0,0.0,0.0,0.0,0.0,0.0,0.0,0.0,0.0,0.0,0.0,-1.7889,0.0,-1.7809,0.0,0.0,0.0,0.0,0.0,-2.2031,-2.2439,-2.3362,-2.33,-2.3875,-2.5317,-2.6399,-2.7188,-2.7682,-2.8031,-2.8179,-2.8179,-2.8179,-2.8179,-2.8179,-2.8179,-2.8179,-2.8179,-2.8179,-2.8179,-2.8179,-2.8179,-2.8179,-2.8179,-2.8179,-2.8179,-2.8179,-2.8179,-2.8179,-2.8179,-2.8179,-2.8179,-2.8179,-2.8179,-2.8179,-2.8179,-2.8179,-2.8179,-2.8179,-2.8179,-2.8179,-2.8179,-2.8179,-2.8179,-2.8179,-2.8179,-2.8179,-2.8179,-2.8179,-2.8179,-2.8179,-2.8179,-2.8179,-2.8179,-2.8179,-2.8179,-2.8179,-2.8179,-2.8179,-2.8179,-2.8179,-2.8179,-2.8179,-2.8179,-2.8179,-2.8179,-2.8179,-2.8179,-2.8179,-2.8179,-2.8179,-2.8179,-2.8179,-2.8179,-2.8179,-2.8179,-2.8179,-2.8179,-2.8179,-2.8179,-2.8179,-2.8179,-2.8179,-2.8179,-2.8179,-2.8179,-2.8179,-2.5317,-2.5476,-2.5155,-2.1937,-2.1368,-2.0886,0.0,0.0,-1.9797,0.0,0.0,0.0,0.0,0.0,0.0,0.0,0.0,0.0,0.0,0.0,0.0,0.0,0.0,0.0,0.0,-2.0388,-2.0615,-2.2338,-2.143,-2.2077,-2.4981,-2.5703,-2.656,-2.7655,-2.8031,-2.8179,-2.8179,-2.8179,-2.8179,-2.8179,-2.8179,-2.8179,-2.8179,-2.8179,-2.8179,-2.8179,-2.8179,-2.8179,-2.8179,-2.8179,-2.8179,-2.8179,-2.8179,-2.8179,-2.8179,-2.8179,-2.8179,-2.8179,-2.8179,-2.8179,-2.8179,-2.8179,-2.8179,-2.8179,-2.8179,-2.8179,-2.8179,-2.8179,-2.8179,-2.8179,-2.8179,-2.8179,-2.8179,-2.8179,-2.8179,-2.8179,-2.8179,-2.8179,-2.8179,-2.8179,-2.8179,-2.8179,-2.8179,-2.8179,-2.8179,-2.8179,-2.8179,-2.8179,-2.8179,-2.8179,-2.8179,-2.8179,-2.8179,-2.8179,-2.8179,-2.8179,-2.8179,-2.8179,-2.8179,-2.8179,-2.8179,-2.8179,-2.8179,-2.8179,-2.8179,-2.8179,-2.8179,-2.8179,-2.8179,-2.8179,-2.8179,-2.8179,-2.6052,-2.6412,-2.6225,-2.3527,-2.2679,-2.181,-1.9348,-1.9372,0.0,0.0,0.0,0.0,0.0,0.0,0.0,0.0,0.0,0.0,0.0,0.0,0.0,0.0,0.0,0.0,0.0,0.0,-1.984,-2.0628,-2.0855,-2.183,-2.3808,-2.5024,-2.6106,-2.7094,-2.7589,-2.7991,-2.8179,-2.8179,-2.8179,-2.8179,-2.8179,-2.8179,-2.8179,-2.8179,-2.8179,-2.8179,-2.8179,-2.8179,-2.8179,-2.8179,-2.8179,-2.8179,-2.8179,-2.8179,-2.8179,-2.8179,-2.8179,-2.8179,-2.8179,-2.8179,-2.8179,-2.8179,-2.8179,-2.8179,-2.8179,-2.8179,-2.8179,-2.8179,-2.8179,-2.8179,-2.8179,-2.8179,-2.8179,-2.8179,-2.8179,-2.8179,-2.8179,-2.8179,-2.8179,-2.8179,-2.8179,-2.8179,-2.8179,-2.8179,-2.8179,-2.8179,-2.8179,-2.8179,-2.8179,-2.8179,-2.8179,-2.8179,-2.8179,-2.8179,-2.8179,-2.8179,-2.8179,-2.8179,-2.8179,-2.8179,-2.8179,-2.8179,-2.8179,-2.8179,-2.8179,-2.8179,-2.8179,-2.8179,-2.8179,-2.8179,-2.8179,-2.8179,-2.6627,-2.6894,-2.6787,-2.4609,-2.3781,-2.2873,-2.0552,-2.0535,-2.0775,0.0,0.0,0.0,0.0,0.0,0.0,0.0,0.0,0.0,0.0,-1.623,0.0,0.0,0.0,0.0,0.0,0.0,-1.9093,-1.9893,-2.0187,0.0,0.0,-2.4356,-2.5545,-2.664,-2.7335,-2.7843,-2.8179,-2.8179,-2.8179,-2.8179,-2.8179,-2.8179,-2.8179,-2.8179,-2.8179,-2.8179,-2.8179,-2.8179,-2.8179,-2.8179,-2.8179,-2.8179,-2.8179,-2.8179,-2.8179,-2.8179,-2.8179,-2.8179,-2.8179,-2.8179,-2.8179,-2.8179,-2.8179,-2.8179,-2.8179,-2.8179,-2.8179,-2.8179,-2.8179,-2.8179,-2.8179,-2.8179,-2.8179,-2.8179,-2.8179,-2.8179,-2.8179,-2.8179,-2.8179,-2.8179,-2.8179,-2.8179,-2.8179,-2.8179,-2.8179,-2.8179,-2.8179,-2.8179,-2.8179,-2.8179,-2.8179,-2.8179,-2.8179,-2.8179,-2.8179,-2.8179,-2.8179,-2.8179,-2.8179,-2.8179,-2.8179,-2.8179,-2.8179,-2.8179,-2.8179,-2.8179,-2.8179,-2.8179,-2.8179,-2.8179,-2.8179,-2.8179]},{"header":{"parameterUnit":"m.s-1","parameterCategory":1,"la1":30.6,"la2":29.2853,"lo1":-89.7004,"lo2":-87.6739,"dy":0.0162,"dx":0.0183,"nx":112,"ny":82,"refTime":"2024-06-14T18:00:00:Z","depth":0,"parameterNumber":3,"parameterNumberName":"V-component_of_WINDS"},"data":[0.0,0.0,0.0,0.0,0.0,0.0,0.0,0.0,0.0,0.0,0.0,0.0,0.0,0.0,0.0,0.0,0.0,0.0,0.0,0.0,0.0,0.0,0.0,0.0,0.0,0.0,0.0,0.0,0.0,0.0,0.0,0.0,0.0,0.0,0.0,0.0,0.0,0.0,0.0,0.0,0.0,0.0,0.0,0.0,0.0,0.0,0.0,0.0,0.0,0.0,0.0,0.0,0.0,0.0,0.0,0.0,0.0,0.0,0.0,0.0,0.0,0.0,0.0,0.0,0.0,0.0,0.0,0.0,0.0,0.0,0.0,0.0,0.0,0.0,0.0,0.0,0.0,0.0,0.0,0.0,0.0,0.0,0.0,0.0,0.0,0.0,0.0,0.0,0.0,0.0,2.7933,3.1236,3.6526,3.9719,3.9603,3.8677,3.6331,3.2251,0.0,0.0,0.0,0.0,0.0,0.0,0.0,0.0,0.0,0.0,0.0,0.0,0.0,0.0,0.0,0.0,0.0,0.0,0.0,0.0,0.0,0.0,0.0,0.0,0.0,0.0,0.0,0.0,0.0,0.0,0.0,0.0,0.0,0.0,0.0,0.0,0.0,0.0,0.0,0.0,0.0,0.0,0.0,0.0,0.0,0.0,0.0,0.0,0.0,0.0,0.0,0.0,0.0,0.0,0.0,0.0,0.0,0.0,0.0,0.0,0.0,0.0,0.0,0.0,0.0,0.0,0.0,0.0,0.0,0.0,0.0,0.0,0.0,0.0,0.0,0.0,0.0,0.0,0.0,0.0,0.0,0.0,0.0,0.0,0.0,0.0,0.0,0.0,0.0,0.0,0.0,0.0,0.0,0.0,0.0,0.0,0.0,0.0,0.0,0.0,0.0,0.0,0.0,0.0,2.8358,3.5286,3.8791,4.0348,3.9642,3.8124,3.57,3.2212,0.0,0.0,0.0,0.0,0.0,0.0,0.0,0.0,0.0,0.0,0.0,0.0,0.0,0.0,0.0,0.0,0.0,0.0,0.0,0.0,0.0,0.0,0.0,0.0,0.0,0.0,0.0,0.0,0.0,0.0,0.0,0.0,0.0,0.0,0.0,0.0,0.0,0.0,0.0,0.0,0.0,0.0,0.0,0.0,0.0,0.0,0.0,0.0,0.0,0.0,0.0,0.0,0.0,0.0,0.0,0.0,0.0,0.0,0.0,0.0,0.0,0.0,0.0,0.0,0.0,0.0,0.0,0.0,0.0,0.0,0.0,0.0,0.0,0.0,0.0,0.0,0.0,0.0,0.0,0.0,0.0,0.0,0.0,0.0,0.0,0.0,0.0,0.0,0.0,0.0,0.0,0.0,0.0,0.0,0.0,0.0,0.0,0.0,0.0,0.0,0.0,0.0,0.0,2.8532,3.1748,3.7613,3.9673,4.0489,4.0132,3.8503,3.6105,3.2749,2.9298,0.0,0.0,0.0,0.0,0.0,0.0,0.0,0.0,0.0,0.0,0.0,0.0,0.0,0.0,0.0,0.0,0.0,0.0,0.0,0.0,0.0,0.0,0.0,0.0,0.0,0.0,0.0,0.0,0.0,0.0,0.0,0.0,0.0,0.0,0.0,0.0,0.0,0.0,0.0,0.0,0.0,0.0,0.0,0.0,0.0,0.0,0.0,0.0,0.0,0.0,0.0,0.0,0.0,0.0,0.0,0.0,0.0,0.0,0.0,0.0,0.0,0.0,0.0,0.0,0.0,0.0,0.0,0.0,0.0,0.0,0.0,0.0,0.0,0.0,0.0,0.0,0.0,0.0,0.0,0.0,0.0,0.0,0.0,0.0,0.0,0.0,0.0,0.0,0.0,0.0,0.0,0.0,0.0,0.0,0.0,0.0,0.0,0.0,0.0,0.0,0.0,0.0,3.2656,3.5007,3.8896,4.0015,4.0516,4.0516,3.8584,3.6135,3.3174,2.8459,0.0,0.0,0.0,0.0,0.0,0.0,0.0,0.0,0.0,0.0,0.0,0.0,0.0,0.0,0.0,0.0,0.0,0.0,0.0,0.0,0.0,0.0,0.0,0.0,0.0,0.0,0.0,0.0,0.0,0.0,0.0,0.0,0.0,0.0,0.0,0.0,0.0,0.0,0.0,0.0,0.0,0.0,0.0,0.0,0.0,0.0,0.0,0.0,0.0,0.0,0.0,0.0,0.0,0.0,0.0,0.0,0.0,0.0,0.0,0.0,0.0,0.0,0.0,0.0,0.0,0.0,0.0,0.0,0.0,0.0,0.0,0.0,0.0,0.0,0.0,0.0,0.0,0.0,0.0,0.0,0.0,0.0,0.0,0.0,0.0,0.0,0.0,0.0,0.0,0.0,0.0,0.0,0.0,0.0,0.0,0.0,0.0,0.0,0.0,0.0,0.0,0.0,3.3314,3.635,3.9011,4.0015,4.0516,4.0516,3.7546,3.4902,3.3097,2.6827,0.0,0.0,0.0,0.0,0.0,0.0,0.0,0.0,0.0,0.0,0.0,0.0,0.0,0.0,0.0,0.0,0.0,0.0,0.0,0.0,0.0,0.0,0.0,0.0,0.0,0.0,0.0,0.0,0.0,0.0,0.0,0.0,0.0,0.0,0.0,0.0,0.0,0.0,0.0,0.0,0.0,0.0,0.0,0.0,0.0,0.0,0.0,0.0,0.0,0.0,0.0,0.0,0.0,0.0,0.0,0.0,0.0,0.0,0.0,0.0,0.0,0.0,0.0,0.0,0.0,0.0,0.0,0.0,0.0,0.0,0.0,0.0,0.0,0.0,0.0,0.0,0.0,0.0,0.0,0.0,0.0,0.0,0.0,0.0,0.0,0.0,0.0,0.0,0.0,0.0,0.0,0.0,0.0,0.0,0.0,0.0,0.0,0.0,0.0,0.0,0.0,0.0,3.3731,3.6657,0.0,4.0323,4.0516,4.0516,3.7892,3.5293,3.3074,0.0,0.0,0.0,0.0,0.0,0.0,0.0,0.0,0.0,0.0,0.0,0.0,0.0,0.0,0.0,0.0,0.0,0.0,0.0,0.0,0.0,0.0,0.0,0.0,0.0,0.0,0.0,0.0,0.0,0.0,0.0,0.0,0.0,0.0,0.0,0.0,0.0,0.0,0.0,0.0,0.0,0.0,0.0,0.0,0.0,0.0,0.0,0.0,0.0,0.0,0.0,0.0,0.0,0.0,0.0,0.0,0.0,0.0,0.0,0.0,0.0,0.0,0.0,0.0,0.0,0.0,0.0,0.0,0.0,0.0,0.0,0.0,0.0,0.0,0.0,0.0,0.0,0.0,0.0,0.0,0.0,0.0,0.0,0.0,0.0,0.0,0.0,0.0,0.0,0.0,0.0,0.0,0.0,0.0,0.0,0.0,0.0,0.0,0.0,0.0,0.0,0.0,3.1314,3.4311,3.7081,0.0,4.0516,4.0516,4.0516,3.7661,3.493,3.266,0.0,0.0,0.0,0.0,0.0,0.0,0.0,0.0,0.0,0.0,0.0,0.0,0.0,0.0,0.0,0.0,0.0,0.0,0.0,0.0,0.0,0.0,0.0,0.0,0.0,0.0,0.0,0.0,0.0,0.0,0.0,0.0,0.0,0.0,0.0,0.0,0.0,0.0,0.0,0.0,0.0,0.0,0.0,0.0,0.0,0.0,0.0,0.0,0.0,0.0,0.0,0.0,0.0,0.0,0.0,0.0,0.0,0.0,0.0,0.0,0.0,0.0,0.0,0.0,0.0,0.0,0.0,0.0,0.0,0.0,0.0,0.0,0.0,0.0,0.0,0.0,0.0,0.0,0.0,0.0,0.0,0.0,0.0,0.0,0.0,0.0,0.0,0.0,0.0,0.0,0.0,0.0,0.0,0.0,0.0,0.0,0.0,0.0,0.0,0.0,0.0,0.0,3.2122,3.5157,3.77,4.0246,4.0516,4.0516,4.0516,3.6668,3.351,0.0,0.0,0.0,0.0,0.0,0.0,0.0,0.0,0.0,0.0,0.0,0.0,0.0,0.0,0.0,0.0,0.0,0.0,0.0,0.0,0.0,0.0,0.0,0.0,0.0,0.0,0.0,0.0,0.0,0.0,0.0,0.0,0.0,0.0,0.0,0.0,0.0,0.0,0.0,0.0,0.0,0.0,0.0,0.0,0.0,0.0,0.0,0.0,0.0,0.0,0.0,0.0,0.0,0.0,0.0,0.0,0.0,0.0,0.0,0.0,0.0,0.0,0.0,0.0,0.0,0.0,0.0,0.0,0.0,0.0,0.0,0.0,0.0,0.0,0.0,0.0,0.0,0.0,0.0,0.0,0.0,0.0,0.0,0.0,0.0,0.0,0.0,0.0,0.0,0.0,0.0,0.0,0.0,0.0,0.0,0.0,0.0,0.0,0.0,0.0,0.0,0.0,0.0,3.2275,3.6199,3.9277,4.12,4.1431,4.1431,4.1431,3.8042,3.5007,3.2699,0.0,0.0,0.0,0.0,0.0,0.0,0.0,0.0,0.0,0.0,0.0,0.0,0.0,0.0,0.0,0.0,0.0,0.0,0.0,0.0,0.0,0.0,0.0,0.0,0.0,0.0,0.0,0.0,0.0,0.0,0.0,0.0,0.0,0.0,0.0,0.0,0.0,0.0,0.0,0.0,0.0,0.0,0.0,0.0,0.0,0.0,0.0,0.0,0.0,0.0,0.0,0.0,0.0,0.0,0.0,0.0,0.0,0.0,0.0,0.0,0.0,0.0,0.0,0.0,0.0,0.0,0.0,0.0,0.0,0.0,0.0,0.0,0.0,0.0,0.0,0.0,0.0,0.0,0.0,0.0,0.0,0.0,0.0,0.0,0.0,0.0,0.0,0.0,0.0,0.0,0.0,0.0,0.0,0.0,0.0,0.0,0.0,0.0,0.0,0.0,0.0,0.0,3.2894,3.7126,4.0435,4.2119,4.2312,4.2196,4.1812,3.8965,3.585,3.2622,0.0,0.0,0.0,0.0,0.0,0.0,0.0,0.0,0.0,0.0,0.0,0.0,0.0,0.0,0.0,0.0,0.0,0.0,0.0,0.0,0.0,0.0,0.0,0.0,0.0,0.0,0.0,0.0,0.0,0.0,0.0,0.0,0.0,0.0,0.0,0.0,0.0,0.0,0.0,0.0,0.0,0.0,0.0,0.0,0.0,0.0,0.0,0.0,0.0,0.0,0.0,0.0,0.0,0.0,0.0,0.0,0.0,0.0,0.0,0.0,0.0,0.0,0.0,0.0,0.0,0.0,0.0,0.0,0.0,0.0,0.0,0.0,0.0,0.0,0.0,0.0,0.0,0.0,0.0,0.0,0.0,0.0,0.0,0.0,0.0,0.0,0.0,0.0,0.0,0.0,0.0,0.0,0.0,0.0,0.0,0.0,0.0,0.0,0.0,0.0,0.0,0.0,3.3614,3.7878,4.1225,4.2975,4.3167,4.2868,4.2119,3.97,3.6507,3.2426,0.0,0.0,0.0,0.0,0.0,0.0,0.0,0.0,0.0,0.0,0.0,0.0,0.0,0.0,0.0,0.0,0.0,0.0,0.0,0.0,0.0,0.0,0.0,0.0,0.0,0.0,0.0,0.0,0.0,0.0,0.0,0.0,0.0,0.0,0.0,0.0,0.0,0.0,0.0,0.0,0.0,0.0,0.0,0.0,0.0,0.0,0.0,0.0,0.0,0.0,0.0,0.0,0.0,0.0,0.0,0.0,0.0,0.0,0.0,0.0,3.4194,3.2314,0.0,0.0,0.0,0.0,0.0,0.0,0.0,0.0,0.0,0.0,0.0,0.0,0.0,0.0,0.0,0.0,0.0,0.0,0.0,0.0,0.0,0.0,0.0,0.0,0.0,0.0,0.0,0.0,0.0,0.0,0.0,0.0,0.0,0.0,0.0,0.0,0.0,0.0,0.0,0.0,3.3126,3.7768,4.1467,4.3446,4.3663,4.3675,4.3761,4.1435,3.8742,3.5811,3.1006,0.0,0.0,0.0,0.0,0.0,0.0,0.0,0.0,0.0,0.0,0.0,0.0,0.0,0.0,0.0,0.0,0.0,0.0,0.0,0.0,0.0,0.0,0.0,0.0,0.0,0.0,0.0,0.0,0.0,0.0,0.0,0.0,0.0,0.0,0.0,0.0,0.0,0.0,0.0,0.0,0.0,0.0,0.0,0.0,0.0,0.0,0.0,0.0,0.0,0.0,0.0,0.0,0.0,0.0,0.0,0.0,0.0,0.0,0.0,3.9213,3.6868,0.0,0.0,0.0,0.0,0.0,0.0,0.0,0.0,0.0,0.0,0.0,0.0,0.0,0.0,0.0,0.0,0.0,0.0,0.0,0.0,0.0,0.0,0.0,0.0,0.0,0.0,0.0,0.0,0.0,0.0,0.0,0.0,0.0,0.0,0.0,0.0,0.0,0.0,0.0,0.0,3.424,3.8942,4.2566,4.4034,4.4166,4.4078,4.3852,4.2212,3.9981,3.7028,3.3236,0.0,0.0,0.0,0.0,0.0,0.0,0.0,0.0,0.0,0.0,0.0,0.0,0.0,0.0,0.0,0.0,0.0,0.0,0.0,0.0,0.0,0.0,0.0,0.0,0.0,0.0,0.0,0.0,0.0,0.0,0.0,0.0,0.0,0.0,0.0,0.0,0.0,0.0,0.0,0.0,0.0,0.0,0.0,0.0,0.0,0.0,0.0,0.0,0.0,0.0,0.0,0.0,0.0,4.8455,4.889,4.9334,4.9334,4.9724,5.0077,4.4416,4.2336,4.2758,3.9665,0.0,0.0,0.0,0.0,0.0,0.0,0.0,0.0,0.0,0.0,0.0,0.0,0.0,0.0,0.0,0.0,0.0,0.0,0.0,0.0,0.0,0.0,3.7991,3.8219,3.8643,3.7896,3.3796,0.0,0.0,0.0,0.0,0.0,0.0,0.0,0.0,0.0,0.0,0.0,3.5859,4.0253,4.3485,4.4393,4.4513,4.4231,4.3598,4.275,4.0979,3.8076,3.541,3.2335,0.0,0.0,0.0,0.0,0.0,0.0,0.0,0.0,0.0,0.0,0.0,0.0,0.0,0.0,0.0,0.0,0.0,0.0,0.0,0.0,0.0,0.0,0.0,0.0,0.0,0.0,0.0,0.0,0.0,0.0,0.0,0.0,3.3821,3.4925,0.0,0.0,0.0,0.0,0.0,0.0,0.0,0.0,0.0,0.0,0.0,0.0,0.0,4.6635,4.9597,5.1216,5.2467,5.3397,5.5495,5.5826,5.4596,5.4596,5.467,5.468,5.3093,0.0,4.7146,4.5223,0.0,0.0,0.0,0.0,0.0,0.0,0.0,0.0,0.0,0.0,0.0,0.0,0.0,0.0,0.0,0.0,0.0,0.0,0.0,0.0,0.0,0.0,4.3622,4.3665,4.3713,4.3439,4.2083,3.7748,3.3397,3.1176,3.0299,0.0,0.0,0.0,0.0,0.0,0.0,0.0,3.6915,4.0285,4.2863,4.3961,4.4073,4.4174,4.439,4.3642,4.2637,4.1437,3.8302,3.5931,3.4626,3.1001,0.0,0.0,0.0,0.0,0.0,0.0,0.0,0.0,0.0,0.0,0.0,0.0,0.0,0.0,0.0,0.0,0.0,0.0,0.0,0.0,0.0,0.0,0.0,0.0,0.0,0.0,0.0,0.0,0.0,3.5516,3.8677,3.8709,3.9293,3.8826,0.0,0.0,0.0,0.0,0.0,0.0,0.0,0.0,0.0,5.0227,5.1424,5.3151,5.5489,5.7116,5.8327,5.9123,6.0187,6.0089,5.8963,5.8963,5.8742,5.829,5.7923,5.647,5.4057,5.0639,4.7285,4.428,0.0,0.0,0.0,0.0,4.1872,4.1724,4.4009,4.3898,4.2641,4.1975,0.0,0.0,0.0,0.0,0.0,0.0,0.0,4.0606,4.2286,4.4406,4.6278,4.7241,4.7095,4.6608,4.6287,4.3733,4.0215,0.0,3.5034,3.3744,2.9466,0.0,0.0,0.0,0.0,3.6808,3.8638,4.1266,4.317,4.3664,4.3718,4.3799,4.3958,4.3616,4.3043,4.2203,4.0384,3.85,3.6794,3.4049,3.1045,0.0,0.0,0.0,0.0,0.0,0.0,0.0,0.0,0.0,0.0,0.0,0.0,0.0,0.0,0.0,0.0,0.0,0.0,0.0,0.0,0.0,0.0,0.0,0.0,0.0,0.0,0.0,0.0,3.972,4.2783,4.2381,4.3824,4.3631,0.0,0.0,0.0,0.0,0.0,0.0,5.1169,5.1987,5.3566,5.6161,5.7593,5.9013,6.0444,6.163,6.2658,6.3453,6.3453,6.3123,6.2548,6.2328,6.1887,6.1337,6.1117,6.0554,5.9453,5.506,5.1903,4.9764,4.8737,4.7489,4.6461,4.826,4.8306,4.7902,5.0959,5.0802,4.904,4.7636,4.581,4.3571,4.0341,0.0,0.0,0.0,0.0,4.4048,4.625,4.7278,4.8113,4.9564,4.9407,4.892,4.892,4.8296,4.6058,0.0,3.9651,3.8395,3.3513,0.0,0.0,0.0,0.0,3.9386,4.0385,4.2258,4.3506,4.3506,4.3506,4.3506,4.3506,4.3506,4.3249,4.2653,4.1837,4.0516,3.8513,3.6846,3.4198,3.0462,0.0,0.0,0.0,0.0,0.0,0.0,0.0,0.0,0.0,0.0,0.0,0.0,0.0,0.0,0.0,0.0,0.0,0.0,0.0,0.0,0.0,0.0,0.0,0.0,0.0,0.0,0.0,0.0,0.0,4.5672,4.8472,0.0,0.0,0.0,0.0,4.9077,5.205,5.462,5.6334,5.8621,6.0272,6.119,6.2059,6.2939,6.3846,6.3919,6.4383,6.5178,6.5178,6.5141,6.5068,6.431,6.3956,6.3882,6.305,6.2205,6.1227,5.7923,5.5563,5.3922,5.2391,5.1242,5.0508,5.0618,5.1096,5.173,5.1914,5.1914,5.206,5.3445,5.1803,4.905,4.8012,4.6131,0.0,0.0,4.6205,4.7223,4.8893,4.9417,4.9674,5.0545,5.0729,5.0655,5.0655,5.0041,4.8462,0.0,4.3754,4.2441,3.9871,0.0,3.8424,3.8358,3.9203,4.0422,4.1992,4.2947,4.3506,4.3506,4.3506,4.3506,4.3506,4.3506,4.3469,4.3433,4.269,4.1846,4.0956,3.9378,3.6964,3.3637,3.1207,0.0,0.0,0.0,0.0,0.0,0.0,0.0,0.0,0.0,0.0,0.0,0.0,0.0,0.0,0.0,0.0,0.0,0.0,0.0,0.0,0.0,0.0,0.0,0.0,0.0,0.0,0.0,0.0,5.1316,5.3775,0.0,5.194,5.3712,5.5427,5.6455,5.8547,6.0737,6.2915,6.387,6.4677,6.5498,6.6329,6.6866,6.7173,6.7687,6.8091,6.8385,6.8385,6.8128,6.76,6.6769,6.6122,6.5595,6.4774,6.4261,6.387,6.2181,6.0236,5.8217,5.7629,5.6932,5.6223,5.6223,5.6051,5.5868,5.5868,5.55,5.5023,5.4546,5.3261,5.1867,5.1563,5.0865,5.0352,5.1132,5.1573,5.205,5.3162,5.3455,5.3382,5.3151,5.3115,5.2821,5.1793,5.1363,5.0665,4.8967,4.7085,4.4883,4.1956,4.2506,4.28,4.1258,4.258,4.3983,4.4525,4.4856,4.4864,4.4342,4.4268,4.4048,4.3543,4.3506,4.3286,4.2772,4.247,4.1699,4.0377,3.979,3.7918,3.4644,3.322,3.0283,0.0,0.0,0.0,0.0,0.0,0.0,0.0,0.0,0.0,0.0,0.0,0.0,0.0,0.0,0.0,0.0,0.0,0.0,0.0,0.0,0.0,0.0,0.0,0.0,0.0,5.1342,5.4792,5.5893,5.84,5.9428,5.7788,5.9587,6.13,6.2365,6.393,6.5692,6.7614,6.7981,6.8495,6.9265,6.9853,7.0096,7.0096,7.0367,7.0513,7.0513,7.022,6.9816,6.9302,6.8765,6.8201,6.7687,6.7136,6.6623,6.6072,6.5534,6.4016,6.1949,6.1117,6.0297,5.96,5.96,5.9281,5.8767,5.851,5.7886,5.7042,5.5978,5.506,5.4425,5.4425,5.4242,5.4106,5.4656,5.4803,5.4913,5.5475,5.5585,5.5475,5.4913,5.4803,5.4509,5.3455,5.3015,5.2564,5.1783,4.9838,4.7489,4.4773,4.5663,4.5993,4.3828,4.4892,4.5883,4.5883,4.5883,4.57,4.5149,4.4847,4.448,4.3938,4.3653,4.3286,4.2727,4.2433,4.1699,4.0377,3.979,3.8212,3.5488,3.4094,3.1818,2.8626,0.0,0.0,0.0,0.0,0.0,0.0,0.0,0.0,0.0,0.0,0.0,0.0,0.0,0.0,0.0,0.0,0.0,0.0,0.0,0.0,0.0,0.0,0.0,5.2317,5.4987,5.7618,5.9269,6.2291,6.3625,6.201,6.4751,6.6659,6.6696,6.8164,6.9412,7.022,7.0991,7.1784,7.2569,7.2569,7.2569,7.2569,7.1784,7.1417,7.1417,7.0624,7.0257,7.0257,7.0183,7.0183,7.0183,7.011,6.9242,6.7774,6.7774,6.6843,6.5141,6.2658,6.1227,6.0566,6.0481,6.0444,6.0309,5.9526,5.8719,5.8033,5.8033,5.7483,5.6847,5.6847,5.6308,5.5658,5.5658,5.5658,5.5658,5.5658,5.5658,5.5658,5.5658,5.5658,5.5622,5.5622,5.4987,5.4216,5.3398,5.1966,5.0352,4.8663,4.837,4.7865,4.6287,4.603,0.0,4.603,4.5993,4.5957,4.5957,4.525,4.4737,4.47,4.3975,4.3506,4.3433,4.269,4.1911,4.1095,3.9562,3.7991,3.642,3.3984,3.2693,3.2656,0.0,0.0,0.0,0.0,0.0,0.0,0.0,0.0,0.0,0.0,0.0,0.0,0.0,0.0,0.0,0.0,0.0,0.0,0.0,0.0,0.0,5.4242,5.7471,5.7251,6.0015,6.2915,6.5081,6.6696,6.7614,6.776,6.9119,7.0206,7.0807,7.1798,7.2716,7.3546,7.3802,7.4023,7.4243,7.4243,7.4243,7.4243,7.4023,7.3913,7.3913,7.3692,7.3582,7.3546,7.2386,7.1835,7.1798,7.0624,6.9853,6.9463,6.9463,6.8495,6.6843,6.5007,6.415,6.382,6.2572,6.1398,6.0382,6.015,5.9526,5.8866,5.8866,5.8315,5.7666,5.7666,5.7519,5.7347,5.7347,5.7347,5.7347,5.7347,5.7347,5.7189,5.6602,5.6455,5.6308,5.5732,5.5438,5.5034,5.4216,5.3702,5.2711,5.0508,5.0105,4.9948,4.9517,4.8976,0.0,4.8573,4.8012,4.7416,4.6828,4.6562,4.5975,4.481,4.4516,4.3599,4.1874,4.1544,4.1067,4.0267,3.979,3.9093,3.8065,3.6229,3.4974,0.0,0.0,0.0,0.0,0.0,0.0,0.0,0.0,0.0,0.0,0.0,0.0,0.0,0.0,0.0,0.0,0.0,0.0,0.0,0.0,0.0,0.0,5.9795,6.3086,6.415,6.5044,6.6636,6.9389,7.011,7.0881,7.2018,7.2518,7.2995,7.3472,7.3927,7.4551,7.5359,7.538,7.5564,7.5894,7.5894,7.5894,7.5894,7.5564,7.538,7.538,7.505,7.4903,7.4867,7.3913,7.3509,7.3435,7.2165,7.1431,7.1064,7.0734,6.9853,6.8545,0.0,0.0,0.0,0.0,6.2511,6.1361,6.1006,6.0382,5.971,5.971,5.9159,5.851,5.851,5.8253,5.7997,5.7997,5.7997,5.7997,5.7997,5.7997,5.7886,5.7409,5.7299,5.7152,5.6723,5.6345,5.5941,5.55,5.5133,0.0,5.2601,5.1756,5.1206,5.0839,5.0398,5.0115,5.0115,4.938,4.8673,4.8196,4.7526,4.6709,4.5792,4.5104,0.0,0.0,0.0,4.1103,3.9945,3.9908,0.0,0.0,0.0,0.0,0.0,0.0,0.0,0.0,3.6743,3.6486,0.0,0.0,0.0,0.0,0.0,0.0,0.0,0.0,0.0,0.0,0.0,0.0,0.0,0.0,0.0,0.0,6.5571,6.8935,7.138,6.9853,6.9559,7.2422,7.2789,7.334,7.4757,7.4977,7.505,7.505,7.5012,7.5318,7.6029,7.6066,0.0,0.0,0.0,7.7196,7.7289,7.6478,7.6112,7.624,7.5491,7.516,7.516,7.5087,7.505,7.4977,7.4184,7.3413,7.2716,7.1894,7.105,7.0073,6.8471,6.6916,6.5472,6.4677,6.3833,6.2976,6.2144,0.0,0.0,6.0566,6.0003,5.9343,5.9343,5.8756,5.8143,5.8143,5.807,5.7997,5.7997,5.7997,5.7997,5.7997,5.7997,5.7997,5.7997,5.7446,5.6921,5.6811,5.6235,5.5475,5.4656,5.3261,5.1987,5.1206,5.0986,5.0949,5.0949,5.0225,4.9747,4.9747,4.8306,0.0,4.7223,4.5828,4.4883,4.47,4.3342,4.1919,4.0487,4.0532,4.0532,4.0459,4.0532,4.1222,4.258,4.3396,4.413,4.47,3.9717,3.8909,0.0,0.0,0.0,0.0,0.0,0.0,0.0,0.0,0.0,0.0,0.0,0.0,0.0,0.0,0.0,6.5828,6.8825,7.1454,7.3839,7.3802,7.3744,7.4353,7.4426,7.4573,7.4867,7.5491,7.5873,7.5873,7.5709,7.5679,7.586,7.586,7.5932,7.6077,7.6077,7.6498,7.7273,7.6332,7.6259,7.7069,7.6922,0.0,7.6812,7.6151,7.5873,7.5836,7.5014,7.4573,7.4353,7.356,7.2386,7.0903,6.9302,6.8091,6.715,6.6329,6.5521,6.4701,6.3906,6.3062,6.2242,6.1594,6.0823,6.015,6.015,5.96,0.0,5.8976,5.851,5.7997,5.7997,5.7997,5.7997,5.7997,5.7997,5.7997,5.7997,5.7886,5.7593,5.6921,5.6664,5.6308,5.5511,5.4583,5.3665,5.2847,5.2197,5.1767,5.1767,5.1059,5.0582,5.0582,4.9711,4.882,4.8113,4.7186,4.6085,4.4773,4.4406,4.4113,4.3782,4.4378,4.4415,4.3782,4.4415,4.4562,4.4223,4.5039,4.5516,4.5626,4.4562,4.4378,0.0,0.0,0.0,0.0,0.0,0.0,0.0,0.0,0.0,0.0,0.0,5.7788,6.1055,0.0,6.6916,7.016,7.2055,7.3656,7.527,7.5858,7.5968,7.5542,7.5506,7.5449,7.5357,7.6178,7.6288,7.526,7.5553,7.558,7.5066,7.503,7.503,7.503,7.5545,7.5823,7.5806,7.5823,7.5823,7.5806,7.5806,7.6044,7.6547,7.611,7.6204,7.6665,7.5873,7.5506,7.5432,7.4184,7.323,7.2349,7.072,6.9376,6.8201,6.7407,6.6586,6.5778,6.4971,6.442,6.393,6.3099,6.2291,6.1508,6.1117,6.0456,5.9783,5.9783,5.9233,5.8609,5.8609,5.829,5.7997,5.7997,5.7997,5.7997,5.7997,5.7997,5.7886,5.7483,5.7409,5.7152,5.6345,5.5868,5.5207,5.3985,5.3445,5.3041,5.2637,5.1903,5.1389,5.1389,5.0702,5.0031,4.9591,4.8406,4.7012,4.5397,4.5296,4.5296,4.5296,4.57,4.57,4.5296,4.57,4.57,4.5296,4.6507,4.7095,4.7131,4.7976,4.7902,0.0,0.0,0.0,0.0,0.0,0.0,0.0,5.2637,5.4509,5.9355,6.2034,6.453,6.7994,6.983,7.1541,7.378,7.4698,7.5417,7.624,7.6885,7.6971,7.612,7.6207,7.611,7.5542,7.6432,7.6247,7.4423,7.501,7.5063,7.429,7.4373,7.4444,7.4444,7.5239,7.5387,7.4786,7.5424,7.5442,7.4867,7.4867,7.5316,7.6077,7.6077,7.653,7.7252,7.6592,7.624,7.5983,7.4515,7.3817,7.3575,7.2078,7.0646,6.9252,6.8274,6.7504,6.6843,6.5888,6.5508,6.5411,6.4604,6.3759,6.2939,6.2291,6.141,6.0639,6.0639,6.004,5.9416,5.9416,5.8829,5.8217,5.8217,5.8107,5.7997,5.7997,5.7997,5.7997,5.7997,5.7997,5.7776,5.7152,5.7031,5.6492,5.4876,5.462,5.4326,5.3544,5.2858,5.2428,5.2244,5.1499,5.0986,5.0802,4.9554,4.8223,4.6948,4.6838,4.6838,4.6838,4.6838,4.6838,4.6838,4.6838,4.6838,4.6838,4.8159,4.8783,4.881,5.0325,5.0215,4.3672,4.514,4.748,5.1306,5.1867,5.3922,0.0,6.3429,6.2829,6.7724,6.9522,7.0573,7.1762,7.2679,7.3854,7.5542,7.5909,7.624,7.7069,7.7252,7.6935,7.5952,7.6615,7.6474,7.4647,7.5387,7.551,7.4367,7.4167,7.4079,7.3955,7.4573,7.4934,7.4934,7.5025,7.5559,7.6623,7.5846,7.5962,7.6972,7.6972,7.7019,7.715,7.715,7.7196,7.7289,7.7215,7.6775,7.6019,7.5124,7.4331,7.3597,7.2716,7.1821,7.0866,6.9325,6.8701,6.8421,6.688,6.6366,6.6219,6.5448,6.4604,6.3956,6.3846,6.2707,6.1484,6.1484,6.0896,6.026,6.026,5.9673,5.9086,5.9086,5.8499,5.7997,5.7997,5.7997,5.7997,5.7997,5.7997,5.796,5.7886,5.7886,5.7299,5.5695,5.5475,5.5181,5.4363,5.4179,5.3849,5.3141,5.2344,5.1573,5.0875,5.0618,5.0435,5.0251,5.0251,5.0251,5.0251,5.0251,5.0251,5.0251,5.0251,5.0251,5.0251,5.0435,5.0508,5.0545,5.1473,5.1389,5.0325,5.1893,5.3508,5.659,5.8914,6.1716,6.6599,6.7357,6.8164,7.2092,7.3142,7.3766,7.505,7.5564,7.6004,0.0,7.6812,7.6922,7.7252,7.6793,7.588,7.4476,7.5047,7.4976,7.3571,7.4329,7.4253,7.2666,7.3364,7.3644,7.3076,7.375,7.4126,7.4126,7.4675,7.4961,7.4907,7.4639,7.4497,7.444,7.4018,7.4101,7.4684,7.4684,7.4994,7.5545,7.5545,7.5365,7.5005,7.4197,7.3707,7.3452,7.2637,7.22,7.1857,7.072,6.9692,6.8788,6.8128,6.7577,6.7076,6.6256,6.5778,6.5301,6.4396,6.3625,6.2964,6.2438,6.1704,6.108,6.108,6.0493,5.9783,5.9306,5.8939,5.8572,5.8107,5.7997,5.7997,5.7997,5.7997,5.7997,5.7997,5.7997,5.7776,5.709,5.6602,5.6014,5.5218,5.4693,5.4106,5.3287,5.2894,5.238,5.1573,5.1499,5.1316,5.0839,5.0802,5.0802,5.0802,5.0802,5.0802,5.0802,5.0802,5.0802,5.0802,5.1279,5.1499,5.1536,5.2784,5.3225,5.4226,5.6345,5.8425,6.1068,6.4494,6.7614,6.9302,7.0587,7.2202,7.4977,7.5564,7.5931,7.7105,7.7289,7.7289,7.7289,7.7289,7.7196,7.694,7.6099,7.4903,7.327,7.3361,7.3247,7.2477,7.3292,7.3186,7.1412,7.2859,7.3482,7.2744,7.3578,7.4109,7.4109,7.4808,7.4907,7.4219,7.439,7.408,7.3217,7.2669,7.2705,7.3212,7.3212,7.3631,7.4291,7.4291,7.4291,7.4256,7.3423,7.3189,7.3216,7.223,7.1909,7.1935,7.1172,7.0164,6.9192,6.8958,6.8385,6.759,6.704,6.6659,6.6219,6.4861,6.4286,6.3919,6.305,6.2389,6.1924,6.1924,6.1337,6.0566,6.0003,5.9673,5.9306,5.851,5.8327,5.8253,5.8033,5.7997,5.7997,5.7997,5.7997,5.7997,5.7997,5.7483,5.6859,5.6014,5.5244,5.4436,5.3618,5.3544,5.3225,5.238,5.2344,5.2087,5.1499,5.1453,5.1453,5.1453,5.1453,5.1453,5.1453,5.1453,5.1453,5.1453,5.227,5.2648,5.2721,5.4069,5.473,5.3434,5.6701,6.1068,6.4334,6.6976,6.9839,7.3802,7.472,7.5234,7.6885,7.7252,7.7252,7.7289,7.7289,7.7289,7.7289,7.7289,7.6972,7.5993,7.5188,7.4279,7.2965,7.22,7.1642,7.1367,7.2257,7.2427,7.1379,7.2677,7.3489,7.3466,7.483,7.5642,7.5642,7.5632,7.5787,7.6028,7.6037,7.5792,7.5289,7.5308,7.4939,7.4234,7.4234,7.4253,7.4291,7.4291,7.4291,7.4256,7.3423,7.3104,7.2965,7.1442,7.0841,7.0753,7.0026,6.9889,6.9963,6.9192,6.8385,6.77,6.7664,6.715,6.6366,6.5508,6.4714,6.3919,6.305,6.2793,6.2756,6.2756,6.2181,6.1557,6.152,6.0933,6.015,5.9343,5.9159,5.8939,5.8143,5.7997,5.7997,5.7997,5.7997,5.7997,5.7997,5.796,5.7666,5.6847,5.6051,5.5254,5.4436,5.4363,5.4032,5.3214,5.3177,5.3141,5.3141,5.3141,5.3141,5.3141,5.3141,5.3141,5.3141,5.3141,5.3141,5.3141,5.3922,5.4326,5.4363,5.5181,5.5548,5.8107,6.1924,6.5778,6.7944,7.0697,7.3362,7.5285,7.6114,7.6481,7.6481,7.6078,7.5527,7.5028,7.4918,7.4885,7.4724,7.5574,7.5908,7.494,7.4868,7.4217,7.231,7.2125,7.1756,7.0679,7.1328,0.0,7.1334,7.2665,7.35,7.35,7.4897,7.5709,7.5709,7.5709,7.573,7.5821,7.5344,7.5037,7.4869,7.386,7.3022,7.23,7.23,7.23,7.23,7.23,7.23,7.23,7.2004,7.2368,7.2998,7.1935,7.2026,7.2631,7.1832,7.1258,7.0686,6.9237,6.8647,6.8421,6.7884,6.7517,6.7136,6.6329,6.5521,6.4714,6.3906,6.3246,6.2793,6.2793,6.2609,6.2254,6.1741,6.1374,6.097,6.015,5.96,5.9123,5.8866,5.8364,5.7997,5.7997,5.7997,5.7997,5.7997,5.7997,5.7703,5.6884,5.6565,5.6088,5.5291,5.5218,5.5108,5.4803,5.4803,5.4803,5.4803,5.4289,5.3995,5.3995,5.3471,5.3434,5.3995,5.3995,5.4252,5.4803,5.5071,5.5218,5.5218,5.6014,5.6418,6.2328,6.5902,6.9096,7.1284,7.3597,7.5527,7.635,7.6702,7.6494,7.5113,7.4152,7.312,7.1436,7.1119,7.1326,7.2041,7.32,7.4065,7.4135,7.4182,7.3647,7.2128,7.1983,7.1751,7.1041,7.1413,0.0,7.1323,7.2665,7.35,7.35,7.4897,7.5709,7.5709,7.5709,7.5709,7.5709,7.5236,7.4728,7.4187,7.2969,7.2022,7.1289,7.1289,7.1289,7.1289,7.1289,7.1289,7.1289,7.1289,7.176,7.2335,7.1305,7.1359,7.1916,7.0842,7.0361,7.0165,6.9766,6.9318,6.877,6.7949,6.7449,6.7028,6.5872,6.5389,6.5049,6.4247,6.3664,6.3282,6.3282,6.3013,6.2683,6.2144,6.1823,6.1377,6.0562,5.9978,5.9453,5.8872,5.8359,5.796,5.7664,5.7372,5.7167,5.7167,5.7167,5.7194,5.7242,5.7226,5.6932,5.6088,5.6014,5.5915,5.5622,5.5585,5.5585,5.5585,5.5108,5.484,5.484,5.4326,5.4289,5.4803,5.484,5.5071,5.5585,5.5879,5.6014,5.6051,5.6859,5.7226,6.5815,6.8495,7.1138,7.4125,7.5467,7.6237,7.6888,7.6374,7.5107,7.2633,7.1423,6.9843,0.0,0.0,6.7086,6.9208,7.0434,7.1746,7.3553,7.3316,7.2832,0.0,7.1887,7.1729,7.2394,7.2462,0.0,7.1458,0.0,7.3534,7.3567,7.4897,7.5709,7.5709,7.5709,7.5709,7.5709,7.5709,7.4965,7.35,7.28,7.2056,7.1289,7.1289,7.1289,7.1289,7.1289,7.1289,7.1289,7.1289,7.1334,7.121,6.9809,6.9221,6.9083,6.7557,6.7569,6.8634,7.0548,7.0195,6.8769,6.7911,6.7129,6.6169,6.4488,6.4567,6.5004,6.4267,6.4098,6.4139,6.4103,6.3441,6.2779,6.2743,6.2116,6.1332,6.0547,6.0367,5.9907,5.8426,5.8107,5.7868,5.71,5.6269,5.5709,5.5709,5.5709,5.6237,5.7678,5.7867,5.7622,5.6875,5.6802,5.6495,5.5768,5.5732,5.5732,5.5732,5.5695,5.5658,5.5658,5.5622,5.5622,5.5658,5.5658,5.5695,5.5732,5.6492,5.6847,5.6884,5.7629,5.7997,6.8458,7.1798,7.4585,7.4676,7.5274,7.5467,7.381,7.2433,7.0642,6.7738,6.5607,6.3502,6.0948,6.275,0.0,6.5215,6.9199,0.0,7.2729,7.4037,0.0,7.3354,7.3544,7.3612,7.324,7.3206,7.3161,0.0,7.3297,7.3713,7.4289,7.5202,7.5709,7.5709,7.5709,7.5709,7.5709,7.5709,7.4965,7.35,7.3308,7.2563,7.1289,7.1289,7.1289,7.1289,7.1289,7.1289,7.1289,7.1289,7.1754,7.2324,7.1352,7.107,7.1135,7.0135,6.9603,6.9422,6.9948,6.9521,6.8724,6.8588,6.8036,6.7277,6.6826,6.6458,6.6085,6.5902,6.5414,6.4861,6.4249,6.3457,6.264,6.206,6.1272,6.0665,6.0436,5.9938,5.9579,5.9773,5.8871,5.8028,5.7842,5.6635,5.5709,5.5709,5.5709,5.5851,5.6237,5.6277,5.6442,5.6814,5.6864,5.7,5.7375,5.7384,5.7384,5.7384,5.6822,5.6492,5.6492,5.5915,5.5879,5.6492,5.6492,5.6785,5.7384,5.7593,5.7703,5.7703,5.7886,5.7997,7.1541,7.4368,7.6407,7.5375,7.5531,7.4988,7.1444,6.9749,6.7491,6.2316,6.0225,5.8199,5.4463,5.7116,6.025,0.0,0.0,0.0,7.2587,7.395,7.4525,0.0,7.4627,7.4796,7.4052,7.4289,7.4458,7.4458,7.4153,7.4153,7.457,7.5303,7.5709,7.5709,7.5709,7.5709,7.5709,7.5709,7.4965,7.35,7.35,7.2732,7.1289,7.1289,7.1289,7.1289,7.1289,7.1289,7.1289,7.1289,7.1622,7.2039,7.1298,7.0905,7.062,6.9821,6.9057,6.8508,6.8891,6.8539,6.7913,6.7712,6.7333,6.6801,6.5693,6.5877,6.6369,6.5953,6.5828,6.5705,6.5264,6.4536,6.368,6.2893,6.2075,6.1352,6.0995,6.0552,6.0304,6.0403,5.9446,5.8408,5.769,5.6547,5.5624,5.5278,5.4954,5.4745,5.4745,5.5291,5.5879,5.6326,5.6367,5.654,5.6966,5.7303,5.751,5.751,5.7406,5.7336,5.7336,5.6895,5.687,5.7336,5.7336,5.7556,5.7997,5.7997,5.7997,5.7997,5.7997,5.7997,7.4426,7.6075,7.6872,7.601,7.5584,7.4133,6.9325,6.7234,6.427,5.6838,5.4952,5.3155,4.8337,5.1199,5.5282,5.8363,0.0,6.7646,7.2789,7.3601,7.395,7.4796,7.5473,7.5642,7.51,7.5642,7.6014,7.6014,7.5405,7.4965,7.4739,7.5337,7.5709,7.5709,7.5709,7.5709,7.5709,7.5709,7.4965,7.35,7.35,7.2732,7.1289,7.1289,7.1289,7.1289,7.1289,7.1289,7.1289,7.1289,7.1289,7.1222,7.0601,6.9891,6.9147,6.8335,6.759,6.704,6.7762,6.7556,6.6885,6.6449,6.625,6.5704,6.3527,6.4445,6.6028,6.5212,6.5631,6.6267,6.6181,6.5528,6.4781,6.4084,6.3086,6.2146,6.1545,6.1343,6.107,6.0452,5.9656,5.8682,5.7278,5.636,5.5537,5.4856,5.4126,5.3653,5.3653,5.4676,5.5451,5.5552,5.5567,5.5638,5.5851,5.6394,5.6809,5.6899,5.7413,5.775,5.7832,5.7844,5.7916,5.7997,5.7997,5.7997,5.7997,5.7997,5.7997,5.7997,5.7997,5.7997,7.5432,7.5983,7.6027,7.5821,7.3721,7.0594,6.6546,6.2104,0.0,5.2217,4.9191,4.7022,4.547,4.9292,5.3872,5.7512,6.2888,6.8233,7.2857,7.4018,7.4931,0.0,7.6623,7.6893,7.7333,7.7527,0.0,0.0,7.7468,7.686,7.5574,7.5642,7.5709,7.5709,7.5709,7.5709,7.5709,7.5709,7.4965,7.35,7.35,7.2732,7.1289,7.1289,7.1289,7.1289,7.1289,7.1289,7.1289,7.1289,7.1289,7.1289,7.1176,7.0669,6.9925,6.918,6.8402,6.7646,6.7191,6.6948,6.6964,6.7788,6.7163,6.6014,6.56,6.5363,6.5196,6.5049,6.5106,6.5118,6.4444,6.3662,6.3034,6.2982,6.1264,5.9838,6.0487,6.0044,5.9488,5.9348,5.8746,5.8147,5.7862,5.6627,5.5654,5.5531,5.4871,5.4397,5.4397,5.4091,5.4106,5.4726,5.4787,5.5326,5.6589,5.6218,5.6204,5.6861,5.6394,5.6407,5.7053,5.7078,5.7388,5.7985,5.7997,5.7997,5.7997,5.7997,5.7997,5.7997,5.7997,5.7997,7.6151,7.6627,7.6356,7.5419,7.31,6.9451,6.3396,0.0,0.0,4.8309,4.5694,4.4142,4.2916,4.6959,5.1322,5.3974,5.9091,6.4546,6.9855,7.1244,7.2868,7.5912,7.6961,7.7604,7.7967,7.8348,7.8416,7.8034,7.8,7.7502,7.6386,7.5912,7.5709,7.5709,7.5709,7.5709,7.5709,7.5709,7.4965,7.35,7.35,7.2732,7.1289,7.1289,7.1289,7.1289,7.1289,7.1289,7.1289,7.1289,7.1289,7.1289,7.1289,7.0838,7.0184,6.9789,6.891,6.7861,6.7489,6.7096,6.6912,6.7414,6.7133,6.6348,6.5107,6.511,6.5413,6.4566,6.4631,6.4928,6.4522,6.4153,6.374,6.3363,6.2029,6.0877,6.098,6.0625,6.0223,5.9854,5.9504,5.908,5.8657,5.7636,5.6748,5.6362,5.5649,5.504,5.4651,5.4296,5.4059,5.4045,5.4009,5.4346,5.5064,5.5466,5.5865,5.6259,5.6659,5.7067,5.7449,5.7462,5.7655,5.7997,5.7997,5.7997,5.7997,5.7997,5.7997,5.7997,5.7997,5.7997,7.6371,7.6841,7.6381,7.5218,7.2517,6.8292,6.1245,5.6749,5.2206,4.5648,4.352,4.2518,4.1368,4.4819,4.8678,5.1262,5.5461,6.0659,6.7235,6.8836,7.0973,7.5439,7.7164,0.0,7.8416,7.8991,0.0,7.8517,7.8314,7.7841,7.6961,7.6149,7.5709,7.5709,7.5709,7.5709,7.5709,7.5709,7.5033,7.3713,7.3601,7.28,7.1526,7.1357,7.1289,7.1289,7.1289,7.1289,7.1289,7.1289,7.1289,7.1289,7.1289,7.0939,7.0398,7.0263,6.9316,6.8132,6.7963,6.7421,6.6791,6.6791,6.6739,6.6367,6.4347,6.4572,6.5233,6.3818,6.406,6.4715,6.4715,6.4866,6.4737,6.378,6.308,6.2345,6.1392,6.1078,6.0798,6.0218,5.9988,5.9639,5.8977,5.8375,5.7741,5.7109,5.6409,5.5733,5.5141,5.4938,5.4532,5.3822,5.3585,5.3551,5.3717,5.4653,5.5364,5.5695,5.6685,5.7401,5.775,5.7762,5.7821,5.7997,5.7997,5.7997,5.7997,5.7997,5.7997,5.7997,5.7997,5.7997,7.5542,7.5417,7.4797,7.5723,7.1135,6.5405,6.161,0.0,5.0079,4.5284,4.2624,4.1323,4.1889,4.3492,4.6613,5.2369,5.5235,5.9598,6.7841,6.9629,7.1751,7.6251,0.0,0.0,7.987,8.0073,8.0073,8.0006,7.9397,7.8382,7.6961,7.6149,7.5709,7.5709,7.5709,7.5709,7.5709,7.5709,7.5303,7.4492,7.3815,7.3071,7.2293,7.1616,7.1289,7.1289,7.1289,7.1289,7.1289,7.1289,7.1289,7.1289,7.1289,7.1255,7.1142,7.0432,6.9688,6.8876,6.8166,6.7421,6.6791,6.6791,6.6367,6.5671,6.4769,6.4125,6.3586,6.276,6.3162,6.3811,6.3811,6.4409,6.4588,6.3067,6.2665,6.2175,6.0582,5.9698,5.9222,5.9154,5.8595,5.8101,5.8011,5.7959,5.7889,5.7798,5.7171,5.6664,5.6596,5.6003,5.5327,5.4583,5.389,5.3783,5.4435,5.4027,5.4248,5.5624,5.5203,5.5524,5.6951,5.7002,5.7327,5.7985,5.7997,5.7997,5.7997,5.7997,5.7997,5.7997,5.7997,5.7997,7.4478,7.5744,7.599,7.5507,7.1155,6.5771,6.1124,5.5048,4.9311,4.5506,4.2682,4.1094,4.1807,4.2787,4.4807,4.8771,5.0739,5.4356,6.1948,6.3657,6.6648,7.3408,7.5225,0.0,0.0,0.0,8.0209,8.0209,7.9532,7.8653,7.7604,7.6826,7.6183,7.5709,7.5709,7.5709,7.5709,7.5709,7.5337,7.4593,7.3849,7.3105,7.236,7.165,7.1289,7.1289,7.1289,7.1289,7.1289,7.1289,7.1289,7.1289,7.1289,7.1289,7.1255,7.0973,7.0128,6.9045,6.8741,6.7827,6.6791,6.6791,6.6609,6.6237,6.5493,6.4749,6.4005,6.326,6.2979,6.2931,6.2931,6.3165,6.3266,6.2635,6.2472,6.2323,6.1739,6.0954,6.0404,6.05,5.9795,5.9066,5.8626,5.8558,5.8423,5.7967,5.7663,5.7306,5.6867,5.6562,5.6071,5.5344,5.46,5.411,5.3948,5.4074,5.4388,5.5014,5.561,5.6053,5.6191,5.7078,5.7486,5.7351,5.7774,5.7997,5.7997,5.7997,5.7997,5.7997,5.851,5.8719,7.2078,7.4247,7.5186,7.411,7.0147,6.5227,6.0287,5.4495,4.9183,4.572,4.3088,4.1538,4.1989,4.2724,4.4065,4.6549,4.8252,5.171,5.868,6.0341,6.3514,7.0912,0.0,7.5033,7.8517,7.9667,8.0209,8.0209,7.9735,7.9025,7.8068,7.7502,7.6758,7.5743,7.5709,7.5709,7.5709,7.5709,7.5439,7.4931,7.395,7.3229,7.2699,7.1751,7.1289,7.1289,7.1289,7.1289,7.1289,7.1289,7.1289,7.1289,7.1289,7.1289,7.1289,7.1289,7.05,6.9383,6.918,6.8233,6.7096,6.6859,6.6791,6.669,6.617,6.5493,6.4715,6.3748,6.3139,6.2836,6.3124,6.2973,6.2779,6.2779,6.2581,6.2426,6.2531,6.1881,6.134,6.1416,6.0721,5.9945,5.9419,5.9317,5.9167,5.8626,5.8355,5.8051,5.7509,5.7273,5.6833,5.6105,5.5547,5.4938,5.4211,5.4628,5.503,5.5233,5.6273,5.6715,5.6403,5.7431,5.7855,5.7585,5.8092,5.8457,5.8694,5.8694,5.8694,5.8731,5.9269,5.9563,6.8091,6.998,7.111,7.1289,6.752,6.281,5.9138,5.4424,4.9698,4.5791,4.3756,4.2674,4.2684,4.3353,4.4672,4.7098,4.9328,5.3224,6.0281,6.1919,6.437,0.0,7.0964,7.2496,7.5473,7.845,8.0209,8.0209,8.0175,0.0,7.8102,7.7976,7.7266,7.5743,7.5709,7.5709,7.5709,7.5709,7.5709,7.5676,7.421,7.35,7.3466,7.1988,7.1289,7.1289,7.1289,7.1289,7.1289,7.1289,7.1289,7.1289,7.1289,7.1289,7.1289,7.1289,7.0838,7.006,6.935,6.8571,6.776,6.7028,6.6791,6.6791,6.6791,6.6271,6.5358,6.3917,6.3574,6.3882,6.4749,6.4323,6.3683,6.3683,6.3011,6.24,6.24,6.1806,6.1298,6.1298,6.0655,6.0114,6.008,6.008,6.008,6.008,5.9471,5.8979,5.8979,5.8355,5.7629,5.6867,5.6799,5.6494,5.5733,5.5665,5.5996,5.6711,5.6792,5.7159,5.7927,5.7986,5.8366,5.9146,5.9159,5.96,6.0382,6.0382,6.0382,6.0382,6.0382,6.037,6.1838,6.4629,6.6578,6.438,6.2225,5.9589,5.5706,5.2302,4.9001,4.5524,4.3692,4.2693,4.2693,4.291,4.4791,4.9926,5.1274,5.4178,6.1334,6.3366,0.0,7.0577,7.4828,7.7739,0.0,0.0,8.0209,8.0209,8.0209,7.9566,7.8102,7.8,7.7266,7.5743,7.5709,7.5709,7.5709,7.5709,7.5439,7.4931,7.395,7.324,7.2699,7.1751,7.1289,7.1289,7.1289,7.1289,7.1289,7.1289,7.1289,7.1289,7.1289,7.1289,7.1289,7.1289,7.0838,7.0184,6.9925,6.8977,6.7861,6.7624,6.7218,6.6791,6.6791,6.6271,6.5392,6.3917,6.3512,6.3504,6.3265,6.3011,6.2798,6.2798,6.2601,6.2542,6.318,6.2646,6.2222,6.2803,6.2252,6.1501,6.1028,6.0926,6.0723,6.0182,5.9911,5.9573,5.9047,5.8776,5.8389,5.7611,5.7543,5.7036,5.58,5.5699,5.5788,5.603,5.6517,5.6698,5.6453,5.7429,5.7872,5.7579,5.8637,5.9338,5.9574,6.0115,6.0676,6.1227,6.1227,6.152,5.6737,5.9673,6.1655,5.9942,5.8425,5.6554,5.3482,5.0618,4.7902,4.525,4.3771,4.3013,4.3013,4.3267,4.4885,4.918,5.0853,5.3797,6.0034,6.3024,0.0,7.1443,7.6213,0.0,0.0,7.9701,8.0209,8.0209,8.0209,7.9566,7.8102,7.8,7.7266,7.5743,7.5709,7.5709,7.5709,7.5709,7.5337,7.4593,7.3849,7.3105,7.236,7.165,7.1289,7.1289,7.1289,7.1289,0.0,7.1289,7.1289,7.1289,7.1289,7.1289,7.1289,7.1289,7.1007,7.0567,7.0319,6.9383,6.8301,6.7996,6.7421,6.6791,6.6791,6.6271,6.5493,6.458,6.414,6.3768,6.3024,6.2821,6.2753,6.2468,6.24,6.2542,6.3087,6.2779,6.2542,6.3105,6.2759,6.2245,6.1772,6.1704,6.1535,6.1028,6.0723,6.0385,5.9945,5.9588,5.9235,5.8761,5.849,5.7949,5.7018,5.6697,5.6528,5.6528,5.6952,5.7004,5.6546,5.7428,5.7872,5.7657,5.8653,5.9452,6.0111,6.0892,6.1545,6.2034,6.2034,6.2328,0.0,5.4939,5.6334,5.6895,5.5464,5.3445,5.184,4.914,0.0,4.4957,4.4011,4.3579,4.38,4.4378,4.525,4.6617,4.9418,5.3039,5.7747,6.2047,6.6883,0.0,7.5897,0.0,7.715,7.8991,8.0209,8.0209,8.0141,7.9498,7.8102,7.7967,7.7232,7.5743,7.5771,7.5771,7.5709,7.5709,7.5351,7.4609,7.3861,7.3117,7.2406,7.1639,7.1289,7.1289,7.1289,7.1289,7.1289,7.1289,7.1289,7.1289,7.1289,7.1289,7.1289,7.1289,7.1289,7.1188,7.05,6.9789,6.9045,6.8166,6.7421,6.6791,6.6791,6.6339,6.5784,6.5717,6.5189,6.4512,6.3748,6.3579,6.3429,6.2719,6.257,6.257,6.257,6.2536,6.2502,6.2502,6.2434,6.24,6.24,6.24,6.24,6.24,6.1806,6.1366,6.1298,6.0655,6.0148,6.0114,5.9487,5.9081,5.9081,5.8355,5.79,5.79,5.79,5.79,5.79,5.79,5.8246,5.8993,5.906,5.9925,6.1604,6.235,6.2743,6.2793,6.2793,6.2793,4.6498,0.0,4.9911,4.8223,4.8333,4.8406,0.0,4.6287,4.5736,4.413,4.3616,4.424,4.6728,4.6324,4.7902,5.4939,5.6722,5.8894,6.3618,6.8629,7.3357,7.7528,7.9127,7.9785,7.9454,7.9904,8.0209,8.0209,7.9667,7.8957,7.8068,7.7468,7.669,7.5743,7.6485,7.6531,7.5733,7.5709,7.541,7.4885,7.3946,7.3209,7.2668,7.1712,7.1289,7.1289,7.1289,7.1289,7.1289,7.1289,7.1289,7.1289,7.1289,7.1289,7.1289,7.1289,7.1289,7.1255,7.1109,7.0567,6.9722,6.8335,6.7421,6.6791,6.6791,6.6677,6.644,6.5886,6.5581,6.5256,6.4546,6.4343,6.4309,6.4106,6.4072,6.4072,6.4072,6.3632,6.324,6.324,6.2787,6.24,6.24,6.24,6.24,6.24,6.2245,6.1941,6.1366,6.1129,6.0791,6.0182,5.9945,5.9844,5.9844,5.866,5.79,5.79,5.79,5.79,5.79,5.79,5.7991,5.8191,5.8789,5.9925,6.1604,6.1783,6.2219,6.2793,6.2793,6.2793,4.4011,4.6177,4.8076,4.7168,4.7315,4.7416,4.6535,4.5553,4.4534,4.369,4.38,4.4709,4.6801,4.7425,4.9554,5.5489,5.8022,6.1653,6.8721,7.3384,7.715,7.9996,8.1007,8.1363,0.0,8.0517,8.0256,8.0462,7.9643,7.8619,7.7536,7.713,7.6521,7.5709,7.6724,7.7004,7.6416,7.6949,7.6725,7.5711,7.4718,7.3722,7.2756,7.1776,7.1289,7.1289,7.1289,7.1289,7.1289,7.1289,7.1289,7.1289,7.1289,7.1289,7.1289,7.1289,7.1289,7.1289,7.1289,7.0804,6.9947,6.8402,6.7624,6.7252,6.6893,6.6791,6.6724,6.6305,6.6203,6.6034,6.529,6.5087,6.5108,6.5201,6.5236,6.5236,6.5236,6.4928,6.4518,6.4105,6.3666,6.3396,6.3396,6.3125,6.2888,6.2888,6.2618,6.2265,6.1839,6.1806,6.1637,6.1197,6.0858,6.0655,6.0655,5.9573,5.8896,5.8896,5.8896,5.8896,5.8896,5.8592,5.8389,5.8389,5.9562,6.0803,6.2114,6.2465,6.3085,6.393,6.393,6.393,4.3947,4.6397,4.8857,4.8866,4.8673,4.8416,4.8186,4.5993,4.4057,4.4057,4.4599,4.5471,4.6764,4.894,5.1473,5.4399,5.8222,6.3985,7.2995,7.6461,7.8836,8.0815,8.1884,0.0,8.1771,8.0867,8.0434,8.079,7.9679,7.8375,7.6961,7.6951,7.6639,7.596,7.6814,7.7367,7.7541,7.8349,7.8009,7.6611,7.5394,7.4224,7.3003,7.183,7.1401,7.1523,7.1379,7.1289,7.1289,7.1289,7.1289,7.1289,7.1289,7.1367,7.1523,7.1356,7.1501,7.1754,7.1556,7.096,6.9958,6.8673,6.8098,6.7793,6.7151,6.6893,6.6791,6.6791,6.6791,6.6677,6.6034,6.5865,6.5909,6.6086,6.6109,6.6128,6.6128,6.6025,6.5723,6.4932,6.4681,6.4613,6.4613,6.4086,6.3646,6.3646,6.3125,6.2685,6.2584,6.255,6.2516,6.2415,6.1839,6.1467,6.1467,6.0858,6.0452,6.0452,6.0216,6.0114,6.0114,5.9505,5.9148,5.9148,6.05,6.164,6.2505,6.3183,6.4058,6.5094,6.5094,6.5147,4.5984,4.893,5.0472,4.6471,4.7425,4.9013,4.7599,4.6892,4.6562,4.6562,4.6636,4.781,5.1416,5.3482,5.6393,6.1569,6.57,7.0251,7.595,7.706,7.8009,8.002,0.0,8.2353,8.1064,8.0813,8.072,8.0824,7.9407,7.8109,7.6942,7.7102,7.7187,7.7049,7.7226,7.7757,7.874,7.7949,7.723,7.6592,7.4653,7.3874,7.3986,7.2142,7.1742,7.2519,7.1666,7.1289,7.1289,7.1289,7.1289,7.1289,7.1289,7.1808,7.2456,7.16,7.2364,7.3729,7.2859,7.1533,7.0184,6.9913,6.8944,6.7895,6.776,6.732,6.6791,6.6791,6.6791,6.6757,6.6677,6.6643,6.6651,6.6682,6.669,6.669,6.669,6.6201,6.5719,6.5568,6.5019,6.4613,6.4613,6.4512,6.4444,6.4444,6.4343,6.4038,6.3409,6.3308,6.3091,6.2468,6.2299,6.2212,6.2212,6.213,6.2062,6.2062,6.0825,6.0114,6.0114,5.9979,5.9945,5.9945,6.0163,6.0734,6.1606,6.1726,6.257,6.4115,6.4115,6.4553,4.4856,4.7535,4.9554,4.7792,5.0435,5.3151,5.1977,5.1012,5.0278,4.9838,5.0095,5.1086,5.3398,5.6235,6.0346,6.6916,7.0946,7.4363,7.7536,7.8711,7.941,0.0,0.0,8.1943,8.1167,8.0504,8.0485,8.129,7.9029,7.7489,7.7136,7.7211,7.7314,7.7314,7.7907,7.8474,7.8983,7.7467,7.6664,7.6556,7.4676,7.366,7.3452,7.1982,7.1568,7.1948,7.1501,7.16,7.2077,7.1523,7.16,7.2056,7.1523,7.1556,7.1939,7.1479,7.2249,7.3352,7.2342,7.2165,7.2181,7.068,7.0151,6.9842,6.8344,6.774,6.744,6.6946,6.6791,6.6791,6.6791,6.6791,6.6925,6.7454,6.7561,6.7561,6.7561,6.7287,6.6887,6.6396,6.6034,6.5797,6.5797,6.5459,6.5189,6.5189,6.485,6.4478,6.414,6.4106,6.3802,6.3057,6.299,6.2821,6.2434,6.24,6.24,6.24,6.1738,6.1163,6.0757,6.1129,6.1363,6.1444,6.1382,6.2006,6.334,6.2875,6.3526,6.5255,6.5255,6.5727,4.4204,4.6434,4.8857,4.9894,5.2941,5.5794,5.6308,5.5207,5.4095,5.4216,5.473,5.5343,5.5978,5.9685,6.4677,7.0866,7.4588,7.7194,7.8662,8.0094,8.0801,8.0265,8.1335,8.192,8.1453,8.0619,8.0582,8.1721,7.9304,7.7627,7.7327,7.78,7.7971,7.7714,7.8287,7.8634,7.872,7.664,7.5796,7.6237,7.4462,7.3349,7.2756,7.1776,7.1412,7.1622,7.1424,7.1754,7.2406,7.16,7.1742,7.2385,7.1578,7.1289,7.1356,7.1808,7.2342,7.2714,7.2206,7.2873,7.3643,7.1759,7.1364,7.1226,6.9418,6.8667,6.8384,6.7896,6.7428,6.7092,6.6875,6.6791,6.6988,6.7688,6.7886,6.7886,6.7886,6.7886,6.7648,6.6925,6.6791,6.6791,6.6791,6.6339,6.5967,6.5967,6.5493,6.5053,6.4884,6.485,6.458,6.3835,6.3748,6.3463,6.2719,6.2651,6.2584,6.2415,6.24,6.2144,6.1569,6.211,6.2544,6.2853,6.2775,6.3446,6.4999,6.4148,6.453,6.6079,6.6079,6.6568,4.6241,4.8159,4.9858,5.1436,5.2097,5.3482,5.7912,5.7691,5.7361,6.0309,6.097,6.1006,6.108,6.5632,7.0293,7.3083,7.6276,7.8699,7.9596,8.0461,8.0871,8.0587,8.2187,8.2868,8.1868,8.1701,8.1684,8.1796,8.0907,7.9451,7.7424,7.9262,7.9918,7.8903,7.7928,7.7579,7.787,7.5113,7.4216,7.5198,7.3386,7.2634,7.2756,7.1776,7.1808,7.2645,7.171,7.1356,7.139,7.1334,7.1356,7.1424,7.1334,7.1289,7.1523,7.3392,7.3552,7.2921,7.3807,7.3571,7.3009,7.3776,7.2351,7.052,7.1434,7.0587,6.9509,7.0369,6.9414,6.7891,6.7029,6.6791,6.6812,6.6862,6.6883,6.6883,6.6883,6.6883,6.6896,6.6812,6.6791,6.6791,6.6791,6.6757,6.6724,6.6724,6.6677,6.6406,6.5717,6.5615,6.5344,6.4613,6.4512,6.4241,6.3477,6.3409,6.3125,6.2415,6.24,6.24,6.2313,6.2367,6.2764,6.3614,6.3594,6.4078,6.4999,6.4148,6.4166,6.5098,6.5098,6.5602,4.4599,4.7535,5.0618,5.173,5.3482,5.5978,5.9832,6.141,6.2866,6.5595,6.6145,6.6145,6.6145,6.9119,7.2055,7.345,7.6879,7.9449,7.9779,8.0901,8.1453,8.0695,8.1817,8.224,8.1165,8.1056,8.131,8.2016,8.051,7.9242,7.8411,7.9804,8.0107,7.9023,7.8104,7.7661,7.7799,7.4475,7.3017,7.3398,7.2282,7.1773,7.1851,7.1479,7.1523,7.1851,7.1457,7.1644,7.2172,7.1568,7.1666,7.215,7.1546,7.1289,7.1457,7.2859,7.3111,7.2962,7.3947,7.4043,7.3807,7.4177,7.3666,7.2919,7.2769,7.2386,7.1926,7.1675,7.1135,7.0297,6.8848,6.766,6.6791,6.6791,6.6791,6.6791,6.6791,6.6791,6.6791,6.6791,6.6791,6.6791,6.6791,6.6791,6.6791,6.6791,6.6791,6.669,6.644,6.6373,6.6102,6.5358,6.4884,6.4478,6.4208,6.4174,6.4072,6.3802,6.2888,6.24,6.24,6.24,6.3068,6.4495,6.3971,6.4427,6.5873,6.4968,6.4985,6.5873,6.5873,6.6353,4.4635,4.7645,5.1132,5.2417,5.4987,5.829,6.2561,6.464,6.6586,6.9779,7.0,6.9729,7.0,7.1394,7.2863,7.3927,7.7084,7.9522,7.9779,8.0975,8.1626,8.1158,8.1748,8.1919,8.1177,8.1107,8.1422,8.2154,8.0857,7.988,7.9517,8.0514,8.0497,7.916,7.8607,7.8072,7.7538,7.446,7.2895,7.297,7.2178,7.1764,7.1742,7.1434,7.1479,7.1776,7.1434,7.1688,7.2279,7.1556,7.171,7.2257,7.159,7.1289,7.1401,7.2077,7.2519,7.2962,7.3947,7.4291,7.4404,7.5048,7.4922,7.4456,7.4205,7.3998,7.3769,7.3447,7.2974,7.2318,7.1379,6.9406,6.766,6.766,6.722,6.6791,6.6791,6.6791,6.6791,6.6791,6.6791,6.6791,6.6791,6.6791,6.6791,6.6791,6.6791,6.6791,6.6791,6.6791,6.6609,6.6102,6.5595,6.5189,6.4952,6.4952,6.485,6.4613,6.3632,6.299,6.2753,6.2753,6.3326,6.4581,6.4271,6.4851,6.6404,6.5764,6.5779,6.6404,6.6671,6.7113,4.7076,4.892,5.1389,5.3812,5.6271,5.9758,6.6269,6.71,6.7907,7.273,7.2459,7.16,7.2386,7.2532,7.3046,7.4647,7.6974,7.8883,7.9706,8.0498,8.1305,8.2113,8.2186,8.2186,8.2186,8.2186,8.2186,8.2186,8.2186,8.1731,8.0641,8.1593,8.1349,7.9468,7.9396,7.8602,7.7012,7.4936,7.4025,7.4272,7.3292,7.2818,7.2776,7.1764,7.1873,7.2756,7.1754,7.1312,7.1312,7.1312,7.1289,7.1289,7.1289,7.1289,7.1312,7.1334,7.1926,7.2962,7.3966,7.431,7.4628,7.6664,7.5942,7.4523,7.5712,7.543,7.4836,7.5812,7.4863,7.3724,7.4519,7.2154,6.9534,6.9515,6.8138,6.6825,6.6791,6.6791,6.6791,6.6791,6.6791,6.6791,6.6791,6.6791,6.6791,6.6791,6.6791,6.6791,6.6791,6.6791,6.6791,6.6791,6.6791,6.6508,6.5764,6.5717,6.5392,6.4681,6.4613,6.4309,6.3545,6.3511,6.3563,6.3718,6.4581,6.5458,6.6404,6.6419,6.6455,6.6455,6.7228,6.7604,4.6425,4.9324,5.3067,5.5489,6.0089,6.4934,6.8582,6.9633,7.1087,7.5344,7.538,7.4588,7.4243,7.4661,7.4992,7.4903,7.6974,7.8883,7.9706,8.0498,8.1305,8.2113,8.2186,8.2186,8.2186,8.2186,8.2186,8.2186,8.2186,8.1476,7.9847,8.0791,8.0492,7.8602,7.7988,7.7464,7.7012,7.512,7.4232,7.4291,7.3986,7.3885,7.3831,7.3552,7.3571,7.3827,7.2776,7.2364,7.23,7.1578,7.1289,7.1289,7.1289,7.1289,7.1457,7.2914,7.3166,7.3131,7.5562,7.5475,7.4628,7.6664,7.6432,7.5439,7.5771,7.6166,7.6412,7.5983,7.6053,7.6251,7.6454,7.4858,7.2691,7.0736,6.9316,6.8267,6.7692,6.7557,6.7421,6.6893,6.6791,6.6791,6.6791,6.6791,6.6791,6.6791,6.6791,6.6791,6.6791,6.6791,6.6791,6.6791,6.6791,6.669,6.6508,6.6474,6.6373,6.617,6.617,6.5574,6.4343,6.4275,6.4585,6.5239,6.6128,6.7097,6.8033,6.867,6.898,6.9017,6.925,6.936,4.9444,5.2601,5.6407,5.9783,6.3833,6.7944,7.1651,7.2863,7.3986,7.6738,7.6408,7.5689,7.5821,7.5711,7.5674,7.5821,7.7105,7.8369,7.9229,7.9727,8.0351,8.1175,8.1248,8.1248,8.1248,8.1248,8.1248,8.1248,8.1248,8.0747,7.9611,8.017,7.9853,7.8378,7.7886,7.7466,7.7123,7.562,7.512,7.5475,7.5102,7.512,7.5457,7.4647,7.4517,7.4812,7.3412,7.2797,7.2714,7.171,7.1289,7.1289,7.1289,7.1289,7.1501,7.3125,7.3312,7.3111,7.5352,7.5562,7.512,7.6297,7.6563,7.6379,7.6379,7.6808,7.7181,7.6563,7.6824,7.7289,7.7289,7.6215,7.4646,7.2683,7.0933,6.9546,6.9068,6.8676,6.8267,6.7793,6.7704,6.7603,6.7286,6.7252,6.7151,6.6825,6.6791,6.6791,6.6791,6.6791,6.6791,6.6791,6.6791,6.6946,6.7312,6.7353,6.7535,6.794,6.796,6.7369,6.606,6.54,6.5154,6.5372,6.6653,6.759,6.8138,6.9471,7.011,7.011,7.044,7.0587,5.4116,5.7079,6.0297,6.5264,6.748,6.983,7.5028,7.6203,7.6423,7.7142,7.6151,7.5564,7.7032,7.6114,7.5601,7.7069,7.7289,7.7582,7.8479,7.8589,7.8883,7.9706,7.9816,7.9816,7.9816,7.9816,7.9816,7.9816,7.9816,7.9779,7.9706,7.9706,7.9339,7.8516,7.8479,7.8112,7.7326,7.6379,7.6379,7.7273,7.6363,7.6432,7.7227,7.5405,7.5012,7.5701,7.3869,7.3009,7.2859,7.196,7.159,7.1568,7.1479,7.1434,7.1568,7.2456,7.2859,7.307,7.4082,7.5084,7.5942,7.5942,7.6563,7.7273,7.7196,7.7227,7.7273,7.7196,7.7227,7.7289,7.7289,7.6611,7.5778,7.5125,7.2882,7.0918,7.0848,7.0044,6.9298,6.9231,6.9144,6.8876,6.8132,6.7996,6.7802,6.7142,6.6993,6.6959,6.7027,6.6993,6.6959,6.7027,6.6888,6.7223,6.8227,6.8247,6.8629,6.9654,6.9708,6.9277,6.8362,6.677,6.5623,6.4925,6.6518,6.7461,6.7632,6.9349,7.0237,7.033,7.105,7.1417,5.1426,5.4987,5.9575,6.5118,7.044,7.4771,7.6628,7.7032,7.7105,7.7252,7.7032,7.6885,7.7252,7.7032,7.6922,7.7252,7.7289,7.7582,7.8479,7.8589,7.8883,7.9706,7.9816,7.9816,7.9816,7.9816,7.9816,7.9816,7.9816,7.9522,7.8883,7.8846,7.8479,7.7619,7.7582,7.7509,7.7289,7.7066,7.7066,7.731,7.7066,7.7082,7.7273,7.684,7.633,7.577,7.5334,7.4702,7.3947,7.3749,7.365,7.3571,7.2776,7.2477,7.2498,7.2714,7.3292,7.412,7.512,7.6147,7.6988,7.6988,7.7097,7.7165,7.6346,7.666,7.715,7.633,7.6712,7.7289,7.7289,7.715,7.6951,7.6768,7.5062,7.337,7.2754,7.1852,7.0981,7.038,6.9654,6.9045,6.8876,6.8842,6.8838,6.8834,6.8285,6.8113,6.8768,6.8285,6.8147,6.8768,6.7618,6.7495,6.9223,6.8648,6.8629,6.9654,6.9708,6.9619,6.9368,6.8281,6.7581,6.7409,6.78,6.8767,7.0296,7.0701,7.1269,7.1982,7.2165,7.2239,5.1646,5.5757,6.0786,6.765,7.2753,7.6313,7.7105,7.7289,7.7289,7.7289,7.7289,7.7289,7.7289,7.7289,7.7289,7.7289,7.7289,7.7472,7.7913,7.7986,7.8148,7.8552,7.8589,7.8589,7.8589,7.8589,7.8589,7.8589,7.8589,7.8442,7.7986,7.7986,7.7766,7.7326,7.7289,7.7289,7.7289,7.7289,7.7289,7.7289,7.7289,7.7289,7.7289,7.7289,7.7019,7.6498,7.601,7.551,7.4976,7.4498,7.4291,7.4234,7.3714,7.3532,7.3591,7.4062,7.4572,7.5084,7.5614,7.6465,7.7212,7.6745,7.6925,7.7196,7.6696,7.6872,7.7196,7.666,7.6925,7.7289,7.7289,7.7289,7.7289,7.7289,7.6147,7.4905,7.4548,7.3652,7.2851,7.245,7.1572,7.0767,7.0425,6.965,6.9138,6.9233,6.8891,6.8959,6.9862,6.9263,6.9111,7.0027,6.896,6.8777,7.0264,6.9901,6.9987,7.0982,7.1047,7.0852,7.04,6.9883,6.9369,6.8928,6.9351,7.0073,7.1111,7.1557,7.2026,7.2496,7.2496,7.2496,5.161,5.6675,6.2438,7.0146,7.4001,7.6093,7.6922,7.7215,7.7289,7.7289,7.7289,7.7289,7.7289,7.7289,7.7289,7.7289,7.7289,7.7289,7.7289,7.7289,7.7289,7.7289,7.7289,7.7289,7.7289,7.7289,7.7289,7.7289,7.7289,7.7289,7.7289,7.7289,7.7289,7.7289,7.7289,7.7289,7.7289,7.7289,7.7289,7.7289,7.7289,7.7289,7.7289,7.7289,7.7289,7.7243,7.6396,7.6061,7.5993,7.5174,7.4812,7.4794,7.461,7.4554,7.4628,7.5316,7.5649,7.5787,7.5787,7.6465,7.7165,7.633,7.6611,7.7289,7.7289,7.7289,7.7289,7.7289,7.7289,7.7289,7.7289,7.7289,7.7289,7.7289,7.6644,7.6061,7.6061,7.5281,7.4554,7.4554,7.3733,7.2876,7.2249,7.0857,6.9846,7.0035,6.994,7.0202,7.1159,7.0574,7.0478,7.1446,7.0682,7.0554,7.1653,7.1496,7.1729,7.2658,7.2569,7.213,7.1365,7.1334,7.0998,7.0213,7.0635,7.1031,7.1334,7.1966,7.2329,7.2496,7.2496,7.2496,4.6654,5.408,6.2891,6.8898,7.2753,7.527,7.6093,7.6812,7.7289,7.7289,7.7289,7.7289,7.7289,7.7289,7.7289,7.7289,7.7289,7.7289,7.7289,7.7289,7.7289,7.7289,7.7289,7.7289,7.7289,7.7289,7.7289,7.7289,7.7289,7.7289,7.7289,7.7289,7.7289,7.7289,7.7289,7.7289,7.7289,7.7289,7.7289,7.7289,7.7289,7.7289,7.7289,7.7289,7.7289,7.7273,7.7165,7.7082,7.7082,7.6956,7.6909,7.6808,7.5942,7.5597,7.551,7.4757,7.503,7.5787,7.5787,7.6465,7.7258,7.7165,7.7196,7.7289,7.7289,7.7289,7.7289,7.7289,7.7289,7.7289,7.7289,7.7289,7.7289,7.7289,7.7196,7.7082,7.7082,7.6313,7.5597,7.5597,7.4776,7.4046,7.3976,7.3248,7.2926,7.3725,7.331,7.3183,7.3951,7.3428,7.3264,7.4032,7.2727,7.2508,7.4229,7.3026,7.2527,7.348,7.2899,7.2452,7.2314,7.2299,7.2255,7.2152,7.0651,7.0684,7.2299,7.1604,7.1681,7.2496,7.2496,7.2496,4.8663,5.4693,6.1043,6.7223,7.0513,7.2679,7.4368,7.538,7.6078,7.6518,7.6628,7.6775,7.7215,7.7289,7.7289,7.7289,7.7289,7.7289,7.7289,7.7289,7.7289,7.7289,7.7289,7.7289,7.7289,7.7289,7.7289,7.7289,7.7289,7.7289,7.7289,7.7289,7.7289,7.7289,7.7289,7.7289,7.7289,7.7289,7.7289,7.7289,7.7289,7.7289,7.7289,7.7289,7.7289,7.7289,7.7289,7.7289,7.7289,7.7289,7.7289,7.7243,7.6808,7.6628,7.6579,7.6147,7.6264,7.6628,7.6628,7.694,7.7289,7.7289,7.7289,7.7289,7.7289,7.7289,7.7289,7.7289,7.7289,7.7289,7.7289,7.7289,7.7289,7.7289,7.7289,7.7289,7.7289,7.6956,7.6481,7.5925,7.5457,7.4958,7.4385,7.4027,7.3964,7.4368,7.4154,7.4261,7.516,7.4596,7.4454,7.5341,7.4393,7.4002,7.4807,7.4184,7.3919,7.4338,7.4037,7.3839,7.3839,7.3413,7.3156,7.3156,7.192,7.1686,7.2496,7.2071,7.2086,7.2496,7.2496,7.2496,4.9067,5.3261,5.7079,6.3625,6.693,6.9302,7.2129,7.356,7.4573,7.5579,7.5799,7.6041,7.6848,7.7179,7.7289,7.7289,7.7289,7.7289,7.7289,7.7289,7.7289,7.7289,7.7289,7.7289,7.7289,7.7289,7.7289,7.7289,7.7289,7.7289,7.7289,7.7289,7.7289,7.7289,7.7289,7.7289,7.7289,7.7289,7.7289,7.7289,7.7289,7.7289,7.7289,7.7289,7.7289,7.7289,7.7289,7.7289,7.7289,7.7289,7.7289,7.7289,7.7289,7.7289,7.7289,7.7289,7.7289,7.7289,7.7289,7.7289,7.7289,7.7289,7.7289,7.7289,7.7289,7.7289,7.7289,7.7289,7.7289,7.7289,7.7289,7.7289,7.7289,7.7289,7.7289,7.7289,7.7289,7.7289,7.7066,7.633,7.6197,7.5942,7.521,7.5084,7.5084,7.5084,7.5084,7.5334,7.6077,7.5637,7.5556,7.631,7.5858,7.5527,7.5527,7.5307,7.5197,7.5197,7.5014,7.4903,7.4903,7.4331,7.4001,7.4001,7.3413,7.2899,7.2496,7.2496,7.2496,7.2496,7.2496,7.2496,4.3782,4.6938,5.0352,5.6895,6.1484,6.5461,6.9376,7.1505,7.3083,7.4647,7.494,7.5197,7.6019,7.6775,7.7289,7.7289,7.7289,7.7289,7.7289,7.7289,7.7289,7.7289,7.7289,7.7289,7.7289,7.7289,7.7289,7.7289,7.7289,7.7289,7.7289,7.7289,7.7289,7.7289,7.7289,7.7289,7.7289,7.7289,7.7289,7.7289,7.7289,7.7289,7.7289,7.7289,7.7289,7.7289,7.7289,7.7289,7.7289,7.7289,7.7289,7.7289,7.7289,7.7289,7.7289,7.7289,7.7289,7.7289,7.7289,7.7289,7.7289,7.7289,7.7289,7.7289,7.7289,7.7289,7.7289,7.7289,7.7289,7.7289,7.7289,7.7289,7.7289,7.7289,7.7289,7.7289,7.7289,7.7289,7.7273,7.7227,7.7212,7.7212,7.7165,7.715,7.715,7.715,7.715,7.7165,7.7212,7.7191,7.7169,7.7237,7.7215,7.7179,7.7179,7.6497,7.6056,7.6056,7.5307,7.4903,7.4903,7.4867,7.483,7.483,7.4793,7.4023,7.2496,7.2496,7.2496,7.2496,7.2496,7.2496,4.2396,4.5287,4.859,5.3041,5.7593,6.1582,6.409,6.7504,7.0646,7.2261,7.2995,7.3766,7.5102,7.5983,7.6702,7.7215,7.7289,7.7289,7.7289,7.7289,7.7289,7.7289,7.7289,7.7289,7.7289,7.7289,7.7289,7.7289,7.7289,7.7289,7.7289,7.7289,7.7289,7.7289,7.7289,7.7289,7.7289,7.7289,7.7289,7.7289,7.7289,7.7289,7.7289,7.7289,7.7289,7.7289,7.7289,7.7289,7.7289,7.7289,7.7289,7.7289,7.7289,7.7289,7.7289,7.7289,7.7289,7.7289,7.7289,7.7289,7.7289,7.7289,7.7289,7.7289,7.7289,7.7289,7.7289,7.7289,7.7289,7.7289,7.7289,7.7289,7.7289,7.7289,7.7289,7.7289,7.7289,7.7289,7.7289,7.7289,7.7289,7.7289,7.7289,7.7289,7.7289,7.7289,7.7289,7.7289,7.7289,7.7289,7.7289,7.7289,7.7289,7.7289,7.7289,7.7032,7.6885,7.6885,7.6592,7.6445,7.6445,7.5931,7.5689,7.5689,7.516,7.461,7.4023,7.3523,7.3266,7.3266,7.2753,7.2496,4.0744,4.3232,4.6461,5.0582,5.3592,5.6664,6.1006,6.409,6.6843,6.9509,7.0734,7.1872,7.3729,7.4551,7.5322,7.6665,7.6885,7.6995,7.7252,7.7289,7.7289,7.7289,7.7289,7.7289,7.7289,7.7289,7.7289,7.7289,7.7289,7.7289,7.7289,7.7289,7.7289,7.7289,7.7289,7.7289,7.7289,7.7289,7.7289,7.7289,7.7289,7.7289,7.7289,7.7289,7.7289,7.7289,7.7289,7.7289,7.7289,7.7289,7.7289,7.7289,7.7289,7.7289,7.7289,7.7289,7.7289,7.7289,7.7289,7.7289,7.7289,7.7289,7.7289,7.7289,7.7289,7.7289,7.7289,7.7289,7.7289,7.7289,7.7289,7.7289,7.7289,7.7289,7.7289,7.7289,7.7289,7.7289,7.7289,7.7289,7.7289,7.7289,7.7289,7.7289,7.7289,7.7289,7.7289,7.7289,7.7289,7.7289,7.7289,7.7289,7.7289,7.7289,7.7289,7.7289,7.7289,7.7289,7.7289,7.7289,7.7289,7.6775,7.6481,7.6481,7.5968,7.5711,7.5711,7.4625,7.4111,7.4074,7.356,7.3303,0.0,0.0,0.0,4.915,4.9361,5.0755,6.0187,0.0,6.1594,6.6489,6.8128,6.9435,7.1945,7.2386,7.3193,7.5616,7.6019,7.635,7.7142,7.7252,7.7252,7.7252,7.7289,7.7289,7.7289,7.7289,7.7289,7.7289,7.7289,7.7289,7.7289,7.7289,7.7289,7.7289,7.7289,7.7289,7.7289,7.7289,7.7289,7.7289,7.7289,7.7289,7.7289,7.7289,7.7289,7.7289,7.7289,7.7289,7.7289,7.7289,7.7289,7.7289,7.7289,7.7289,7.7289,7.7289,7.7289,7.7289,7.7289,7.7289,7.7289,7.7289,7.7289,7.7289,7.7289,7.7289,7.7289,7.7289,7.7289,7.7289,7.7289,7.7289,7.7289,7.7289,7.7289,7.7289,7.7289,7.7289,7.7289,7.7289,7.7289,7.7289,7.7289,7.7289,7.7289,7.7289,7.7289,7.7289,7.7289,7.7289,7.7289,7.7289,7.7289,7.7289,7.7289,7.7289,7.7289,7.7289,7.7289,7.7289,7.7289,7.7289,7.7289,7.7289,7.7289,7.7289,7.7289,7.5711,7.494,7.494,7.4903,7.4903,3.9835,0.0,0.0,0.0,0.0,0.0,0.0,0.0,5.6554,6.141,6.3062,6.4897,6.9119,6.9889,7.0697,7.312,7.4463,7.5307,7.5527,7.6041,7.6423,7.6423,7.6959,7.7289,7.7289,7.7289,7.7289,0.0,7.7289,7.7289,7.7289,7.7289,7.7289,7.7289,7.7289,7.7289,7.7289,7.7289,7.7289,7.7289,7.7289,7.7289,7.7289,7.7289,7.7289,7.7289,7.7289,7.7289,7.7289,7.7289,7.7289,7.7289,7.7289,7.7289,7.7289,7.7289,7.7289,7.7289,7.7289,7.7289,7.7289,7.7289,7.7289,7.7289,7.7289,7.7289,7.7289,7.7289,7.7289,7.7289,7.7289,7.7289,7.7289,7.7289,7.7289,7.7289,7.7289,7.7289,7.7289,7.7289,7.7289,7.7289,7.7289,7.7289,7.7289,7.7289,7.7289,7.7289,7.7289,7.7289,7.7289,7.7289,7.7289,7.7289,7.7289,7.7289,7.7289,7.7289,7.7289,7.7289,7.7289,7.7289,7.7289,7.7289,7.7289,7.7289,7.7289,7.6261,7.5763,7.5763,7.516,7.4903,4.2249,4.3534,4.5112,4.4745,0.0,0.0,4.9544,5.1196,5.3654,0.0,6.0529,6.2291,6.6182,6.7173,6.8091,7.0146,7.1578,7.2995,7.4647,7.5322,7.5616,7.5616,7.6004,7.6445,7.6775,7.6812,7.6922,7.7289,7.7289,7.7289,7.7289,7.7289,7.7289,7.7289,7.7289,7.7289,7.7289,7.7289,7.7289,7.7289,7.7289,7.7289,7.7289,7.7289,7.7289,7.7289,7.7289,7.7289,7.7289,7.7289,7.7289,7.7289,7.7289,7.7289,7.7289,7.7289,7.7289,7.7289,7.7289,7.7289,7.7289,7.7289,7.7289,7.7289,7.7289,7.7289,7.7289,7.7289,7.7289,7.7289,7.7289,7.7289,7.7289,7.7289,7.7289,7.7289,7.7289,7.7289,7.7289,7.7289,7.7289,7.7289,7.7289,7.7289,7.7289,7.7289,7.7289,7.7289,7.7289,7.7289,7.7289,7.7289,7.7289,7.7289,7.7289,7.7289,7.7289,7.7289,7.7289,7.7289,7.7289,7.7289,7.7289,7.7289,7.7289,7.7289,7.7289,7.6812,7.6592,7.6607,7.6114,7.5894,4.5654,4.6021,4.7131,4.8866,4.7462,0.0,5.205,5.1793,5.194,0.0,5.8572,5.9905,6.2671,6.3796,6.4897,6.6476,6.7724,6.9876,7.3802,7.45,7.461,7.461,7.4793,7.516,7.5909,7.5983,7.6313,7.7105,7.7252,7.7289,7.7289,7.7289,7.7289,7.7289,7.7289,7.7289,7.7289,7.7289,7.7289,7.7289,7.7289,7.7289,7.7289,7.7289,7.7289,7.7289,7.7289,7.7289,7.7289,7.7289,7.7289,7.7289,7.7289,7.7289,7.7289,7.7289,7.7289,7.7289,7.7289,7.7289,7.7289,7.7289,7.7289,7.7289,7.7289,7.7289,7.7289,7.7289,7.7289,7.7289,7.7289,7.7289,7.7289,7.7289,7.7289,7.7289,7.7289,7.7289,7.7289,7.7289,7.7289,7.7289,7.7289,7.7289,7.7289,7.7289,7.7289,7.7289,7.7289,7.7289,7.7289,7.7289,7.7289,7.7289,7.7289,7.7289,7.7289,7.7289,7.7289,7.7289,7.7289,7.7289,7.7289,7.7289,7.7289,7.7289,7.7289,7.7289,7.7289,7.7289,7.7289,7.7289,5.0168,5.0682,5.1086,4.8296,4.9581,0.0,4.6517,4.7278,4.9104,0.0,5.0535,5.2013,5.6429,5.7923,5.8976,6.0591,6.3747,6.7173,7.055,7.2165,7.2973,7.2973,7.4096,7.494,7.5124,7.5124,7.5469,7.6276,7.6922,7.7289,7.7289,7.7289,7.7289,7.7289,7.7289,7.7289,7.7289,7.7289,7.7289,7.7289,7.7289,7.7289,7.7289,7.7289,7.7289,7.7289,7.7289,7.7289,7.7289,7.7289,7.7289,7.7289,7.7289,7.7289,7.7289,7.7289,7.7289,7.7289,7.7289,7.7289,7.7289,7.7289,7.7289,7.7289,7.7289,7.7289,7.7289,7.7289,7.7289,7.7289,7.7289,7.7289,7.7289,7.7289,7.7289,7.7289,7.7289,7.7289,7.7289,7.7289,7.7289,7.7289,7.7289,7.7289,7.7289,7.7289,7.7289,7.7289,7.7289,7.7289,7.7289,7.7289,7.7289,7.7289,7.7289,7.7289,7.7289,7.7289,7.7289,7.7289,7.7289,7.7289,7.7289,7.7289,7.7289,7.7289,7.7289,7.7289,7.7289,7.7289,7.7289,7.7289,5.3371,5.3188,5.3408,5.1756,0.0,0.0,0.0,4.8306,4.8517,5.1353,5.0325,5.0141,5.4252,5.5317,5.6113,5.7728,6.0737,6.3576,6.5558,6.8641,7.055,7.0146,7.1174,7.2224,7.3032,7.3472,7.4206,7.5432,7.6261,7.6702,7.6702,7.7069,7.7289,7.7289,7.7289,7.7289,7.7289,7.7289,7.7289,7.7289,7.7289,7.7289,7.7289,7.7289,7.7289,7.7289,7.7289,7.7289,7.7289,7.7289,7.7289,7.7289,7.7289,7.7289,7.7289,7.7289,7.7289,7.7289,7.7289,7.7289,7.7289,7.7289,7.7289,7.7289,7.7289,7.7289,7.7289,7.7289,7.7289,7.7289,7.7289,7.7289,7.7289,7.7289,7.7289,7.7289,7.7289,7.7289,7.7289,7.7289,7.7289,7.7289,7.7289,7.7289,7.7289,7.7289,7.7289,7.7289,7.7289,7.7289,7.7289,7.7289,7.7289,7.7289,7.7289,7.7289,7.7289,7.7289,7.7289,7.7289,7.7289,7.7289,7.7289,7.7289,7.7289,7.7289,7.7289,7.7289,7.7289,7.7289,7.7289,7.7289,5.6847,5.6235,5.6345,5.5768,0.0,5.3067,0.0,0.0,0.0,5.2978,5.1253,0.0,0.0,0.0,0.0,5.4719,0.0,0.0,0.0,6.3576,0.0,6.6746,6.7614,6.8848,7.0463,7.1064,7.2129,7.4059,7.4515,7.5065,7.5836,7.6628,7.7142,7.7289,7.7289,7.7289,7.7289,7.7289,7.7289,7.7289,7.7289,7.7289,7.7289,7.7289,7.7289,7.7289,7.7289,7.7289,7.7289,7.7289,7.7289,7.7289,7.7289,7.7289,7.7289,7.7289,7.7289,7.7289,7.7289,7.7289,7.7289,7.7289,7.7289,7.7289,7.7289,7.7289,7.7289,7.7289,7.7289,7.7289,7.7289,7.7289,7.7289,7.7289,7.7289,7.7289,7.7289,7.7289,7.7289,7.7289,7.7289,7.7289,7.7289,7.7289,7.7289,7.7289,7.7289,7.7289,7.7289,7.7289,7.7289,7.7289,7.7289,7.7289,7.7289,7.7289,7.7289,7.7289,7.7289,7.7289,7.7289,7.7289,7.7289,7.7289,7.7289,7.7289,7.7289,7.7289,7.7289,7.7289,7.7289,7.7289,0.0,0.0,0.0,0.0,5.8547,5.9086,0.0,0.0,5.1453,4.7755,0.0,0.0,0.0,0.0,0.0,0.0,0.0,0.0,5.2307,5.5563,5.9453,6.2939,6.4738,6.6329,6.7958,6.754,6.8458,7.149,7.0463,7.127,7.483,7.5799,7.6555,7.7289,7.7289,7.7289,7.7289,7.7289,7.7289,7.7289,7.7289,7.7289,7.7289,7.7289,7.7289,7.7289,7.7289,7.7289,7.7289,7.7289,7.7289,7.7289,7.7289,7.7289,7.7289,7.7289,7.7289,7.7289,7.7289,7.7289,7.7289,7.7289,7.7289,7.7289,7.7289,7.7289,7.7289,7.7289,7.7289,7.7289,7.7289,7.7289,7.7289,7.7289,7.7289,7.7289,7.7289,7.7289,7.7289,7.7289,7.7289,7.7289,7.7289,7.7289,7.7289,7.7289,7.7289,7.7289,7.7289,7.7289,7.7289,7.7289,7.7289,7.7289,7.7289,7.7289,7.7289,7.7289,7.7289,7.7289,7.7289,7.7289,7.7289,7.7289,7.7289,7.7289,7.7289,7.7289,7.7289,7.7289,7.7289,7.7289,0.0,0.0,0.0,0.0,0.0,0.0,5.2664,0.0,4.9618,0.0,0.0,0.0,0.0,0.0,0.0,0.0,4.9921,0.0,0.0,0.0,5.4656,5.8217,0.0,0.0,6.3882,6.4273,6.5325,6.7637,6.765,6.8862,7.1945,7.4221,7.5763,7.6592,7.7069,7.7289,7.7289,7.7289,7.7289,7.7289,7.7289,7.7289,7.7289,7.7289,7.7289,7.7289,7.7289,7.7289,7.7289,7.7289,7.7289,7.7289,7.7289,7.7289,7.7289,7.7289,7.7289,7.7289,7.7289,7.7289,7.7289,7.7289,7.7289,7.7289,7.7289,7.7289,7.7289,7.7289,7.7289,7.7289,7.7289,7.7289,7.7289,7.7289,7.7289,7.7289,7.7289,7.7289,7.7289,7.7289,7.7289,7.7289,7.7289,7.7289,7.7289,7.7289,7.7289,7.7289,7.7289,7.7289,7.7289,7.7289,7.7289,7.7289,7.7289,7.7289,7.7289,7.7289,7.7289,7.7289,7.7289,7.7289,7.7289,7.7289,7.7289,7.7289,7.7289,7.7289,7.7289,7.7289,7.7289,7.7289,6.5178,0.0,0.0,0.0,0.0,0.0,0.0,0.0,0.0,0.0,0.0,0.0,0.0,0.0,0.0,0.0,0.0,4.9233,0.0,4.893,0.0,0.0,0.0,0.0,0.0,6.0529,6.1545,6.4077,6.4016,6.5595,6.9559,7.2408,7.4573,7.6056,7.6885,7.7289,7.7289,7.7289,7.7289,7.7289,7.7289,7.7289,7.7289,7.7289,7.7289,7.7289,7.7289,7.7289,7.7289,7.7289,7.7289,7.7289,7.7289,7.7289,7.7289,7.7289,7.7289,7.7289,7.7289,7.7289,7.7289,7.7289,7.7289,7.7289,7.7289,7.7289,7.7289,7.7289,7.7289,7.7289,7.7289,7.7289,7.7289,7.7289,7.7289,7.7289,7.7289,7.7289,7.7289,7.7289,7.7289,7.7289,7.7289,7.7289,7.7289,7.7289,7.7289,7.7289,7.7289,7.7289,7.7289,7.7289,7.7289,7.7289,7.7289,7.7289,7.7289,7.7289,7.7289,7.7289,7.7289,7.7289,7.7289,7.7289,7.7289,7.7289,7.7289,7.7289,7.7289,7.7289,7.7289,7.7289,6.9559,6.9876,6.8995,6.0272,5.8609,5.7288,0.0,0.0,5.4483,0.0,0.0,0.0,0.0,0.0,0.0,0.0,0.0,0.0,0.0,0.0,0.0,0.0,0.0,0.0,0.0,5.6014,5.6638,6.1374,5.8877,6.0554,6.8518,7.0499,7.2848,7.5983,7.6885,7.7289,7.7289,7.7289,7.7289,7.7289,7.7289,7.7289,7.7289,7.7289,7.7289,7.7289,7.7289,7.7289,7.7289,7.7289,7.7289,7.7289,7.7289,7.7289,7.7289,7.7289,7.7289,7.7289,7.7289,7.7289,7.7289,7.7289,7.7289,7.7289,7.7289,7.7289,7.7289,7.7289,7.7289,7.7289,7.7289,7.7289,7.7289,7.7289,7.7289,7.7289,7.7289,7.7289,7.7289,7.7289,7.7289,7.7289,7.7289,7.7289,7.7289,7.7289,7.7289,7.7289,7.7289,7.7289,7.7289,7.7289,7.7289,7.7289,7.7289,7.7289,7.7289,7.7289,7.7289,7.7289,7.7289,7.7289,7.7289,7.7289,7.7289,7.7289,7.7289,7.7289,7.7289,7.7289,7.7289,7.7289,7.1578,7.2445,7.1931,6.464,6.2205,5.982,5.3067,5.3225,0.0,0.0,0.0,0.0,0.0,0.0,0.0,0.0,0.0,0.0,0.0,0.0,0.0,0.0,0.0,0.0,0.0,0.0,5.4509,5.6675,5.7299,5.9979,6.5411,6.8752,7.1725,7.4441,7.5799,7.6775,7.7289,7.7289,7.7289,7.7289,7.7289,7.7289,7.7289,7.7289,7.7289,7.7289,7.7289,7.7289,7.7289,7.7289,7.7289,7.7289,7.7289,7.7289,7.7289,7.7289,7.7289,7.7289,7.7289,7.7289,7.7289,7.7289,7.7289,7.7289,7.7289,7.7289,7.7289,7.7289,7.7289,7.7289,7.7289,7.7289,7.7289,7.7289,7.7289,7.7289,7.7289,7.7289,7.7289,7.7289,7.7289,7.7289,7.7289,7.7289,7.7289,7.7289,7.7289,7.7289,7.7289,7.7289,7.7289,7.7289,7.7289,7.7289,7.7289,7.7289,7.7289,7.7289,7.7289,7.7289,7.7289,7.7289,7.7289,7.7289,7.7289,7.7289,7.7289,7.7289,7.7289,7.7289,7.7289,7.7289,7.3156,7.3891,7.3472,6.7614,6.5338,6.2842,5.637,5.6418,5.7079,0.0,0.0,0.0,0.0,0.0,0.0,0.0,0.0,0.0,0.0,4.4516,0.0,0.0,0.0,0.0,0.0,0.0,5.237,5.4656,5.5464,0.0,0.0,6.6916,7.0183,7.3193,7.5102,7.6497,7.7289,7.7289,7.7289,7.7289,7.7289,7.7289,7.7289,7.7289,7.7289,7.7289,7.7289,7.7289,7.7289,7.7289,7.7289,7.7289,7.7289,7.7289,7.7289,7.7289,7.7289,7.7289,7.7289,7.7289,7.7289,7.7289,7.7289,7.7289,7.7289,7.7289,7.7289,7.7289,7.7289,7.7289,7.7289,7.7289,7.7289,7.7289,7.7289,7.7289,7.7289,7.7289,7.7289,7.7289,7.7289,7.7289,7.7289,7.7289,7.7289,7.7289,7.7289,7.7289,7.7289,7.7289,7.7289,7.7289,7.7289,7.7289,7.7289,7.7289,7.7289,7.7289,7.7289,7.7289,7.7289,7.7289,7.7289,7.7289,7.7289,7.7289,7.7289,7.7289,7.7289,7.7289,7.7289,7.7289]}]]